Time,TemperatureF,DewpointF,PressureIn,WindDirection,WindDirectionDegrees,WindSpeedMPH,WindSpeedGustMPH,Humidity,HourlyPrecipIn,Conditions,Clouds,dailyrainin,SoftwareType,DateUTC
2013-04-24 00:00:00,65.2,49.1,30.02,West,275,5.0,16.0,56,0.00,,---,0.00,VWS V14.01,2013-04-24 04:00:00,
2013-04-24 00:01:00,65.2,49.1,30.02,NW,322,11.0,11.0,56,0.00,,---,0.00,VWS V14.01,2013-04-24 04:01:00,
2013-04-24 00:02:00,65.3,49.2,30.02,NW,317,0.0,11.0,56,0.00,,---,0.00,VWS V14.01,2013-04-24 04:02:00,
2013-04-24 00:03:00,65.3,49.2,30.02,WNW,288,2.0,11.0,56,0.00,,---,0.00,VWS V14.01,2013-04-24 04:03:00,
2013-04-24 00:04:00,65.3,49.2,30.02,WNW,285,10.0,12.0,56,0.00,,---,0.00,VWS V14.01,2013-04-24 04:04:00,
2013-04-24 00:05:00,65.6,49.5,30.02,West,265,6.0,12.0,56,0.00,,---,0.00,VWS V14.01,2013-04-24 04:05:00,
2013-04-24 00:06:00,65.6,49.5,30.02,WNW,285,8.0,12.0,56,0.00,,---,0.00,VWS V14.01,2013-04-24 04:06:00,
2013-04-24 00:07:00,65.6,49.5,30.02,West,269,12.0,12.0,56,0.00,,---,0.00,VWS V14.01,2013-04-24 04:07:00,
2013-04-24 00:08:00,65.6,49.5,30.02,WNW,302,7.0,12.0,56,0.00,,---,0.00,VWS V14.01,2013-04-24 04:08:00,
2013-04-24 00:09:00,65.8,49.7,30.02,NW,305,7.0,12.0,56,0.00,,---,0.00,VWS V14.01,2013-04-24 04:09:00,
2013-04-24 00:10:00,65.8,49.7,30.02,WNW,286,5.0,12.0,56,0.00,,---,0.00,VWS V14.01,2013-04-24 04:10:00,
2013-04-24 00:11:00,65.8,49.7,30.02,West,281,2.0,5.0,56,0.00,,---,0.00,VWS V14.01,2013-04-24 04:11:00,
2013-04-24 00:12:00,65.8,49.7,30.02,WNW,283,7.0,7.0,56,0.00,,---,0.00,VWS V14.01,2013-04-24 04:12:00,
2013-04-24 00:13:00,66.0,49.9,30.02,NW,310,8.0,8.0,56,0.00,,---,0.00,VWS V14.01,2013-04-24 04:13:00,
2013-04-24 00:14:00,66.0,49.4,30.02,WNW,286,1.0,8.0,55,0.00,,---,0.00,VWS V14.01,2013-04-24 04:14:00,
2013-04-24 00:15:00,66.3,49.7,30.01,WNW,285,10.0,10.0,55,0.00,,---,0.00,VWS V14.01,2013-04-24 04:15:00,
2013-04-24 00:16:00,66.3,49.7,30.01,WNW,300,13.0,13.0,55,0.00,,---,0.00,VWS V14.01,2013-04-24 04:16:00,
2013-04-24 00:17:00,66.3,49.7,30.01,West,278,6.0,13.0,55,0.00,,---,0.00,VWS V14.01,2013-04-24 04:17:00,
2013-04-24 00:18:00,66.4,49.8,30.01,WNW,290,0.0,13.0,55,0.00,,---,0.00,VWS V14.01,2013-04-24 04:18:00,
2013-04-24 00:19:00,66.6,50.0,30.01,West,269,6.0,13.0,55,0.00,,---,0.00,VWS V14.01,2013-04-24 04:19:00,
2013-04-24 00:20:00,66.6,50.0,30.01,SW,217,6.0,13.0,55,0.00,,---,0.00,VWS V14.01,2013-04-24 04:20:00,
2013-04-24 00:21:00,66.6,48.4,30.01,NNW,336,4.0,6.0,52,0.00,,---,0.00,VWS V14.01,2013-04-24 04:21:00,
2013-04-24 00:22:00,66.6,48.4,30.01,WNW,283,6.0,7.0,52,0.00,,---,0.00,VWS V14.01,2013-04-24 04:22:00,
2013-04-24 00:23:00,66.6,48.4,30.01,WSW,258,0.0,7.0,52,0.00,,---,0.00,VWS V14.01,2013-04-24 04:23:00,
2013-04-24 00:24:00,66.8,48.6,30.01,WNW,292,2.0,7.0,52,0.00,,---,0.00,VWS V14.01,2013-04-24 04:24:00,
2013-04-24 00:25:00,66.8,48.6,30.01,WNW,299,3.0,8.0,52,0.00,,---,0.00,VWS V14.01,2013-04-24 04:25:00,
2013-04-24 00:26:00,66.8,48.6,30.01,WNW,299,2.0,8.0,52,0.00,,---,0.00,VWS V14.01,2013-04-24 04:26:00,
2013-04-24 00:27:00,66.8,48.6,30.01,WNW,292,6.0,8.0,52,0.00,,---,0.00,VWS V14.01,2013-04-24 04:27:00,
2013-04-24 00:28:00,66.8,48.6,30.01,NW,312,7.0,8.0,52,0.00,,---,0.00,VWS V14.01,2013-04-24 04:28:00,
2013-04-24 00:29:00,66.8,48.6,30.01,NW,312,0.0,11.0,52,0.00,,---,0.00,VWS V14.01,2013-04-24 04:29:00,
2013-04-24 00:30:00,66.9,48.7,30.01,NW,319,0.0,11.0,52,0.00,,---,0.00,VWS V14.01,2013-04-24 04:30:00,
2013-04-24 00:31:00,66.9,48.7,30.01,WNW,296,1.0,1.0,52,0.00,,---,0.00,VWS V14.01,2013-04-24 04:31:00,
2013-04-24 00:32:00,67.1,49.4,30.01,WNW,302,2.0,5.0,53,0.00,,---,0.00,VWS V14.01,2013-04-24 04:32:00,
2013-04-24 00:33:00,67.1,49.4,30.01,West,281,0.0,5.0,53,0.00,,---,0.00,VWS V14.01,2013-04-24 04:33:00,
2013-04-24 00:34:00,67.1,49.4,30.01,WNW,303,5.0,5.0,53,0.00,,---,0.00,VWS V14.01,2013-04-24 04:34:00,
2013-04-24 00:35:00,67.1,49.4,30.01,West,279,7.0,8.0,53,0.00,,---,0.00,VWS V14.01,2013-04-24 04:35:00,
2013-04-24 00:36:00,67.1,49.4,30.01,NW,310,5.0,8.0,53,0.00,,---,0.00,VWS V14.01,2013-04-24 04:36:00,
2013-04-24 00:37:00,67.1,49.4,30.01,West,276,0.0,8.0,53,0.00,,---,0.00,VWS V14.01,2013-04-24 04:37:00,
2013-04-24 00:38:00,67.3,49.6,30.01,WNW,298,4.0,8.0,53,0.00,,---,0.00,VWS V14.01,2013-04-24 04:38:00,
2013-04-24 00:39:00,67.3,49.6,30.01,West,278,0.0,8.0,53,0.00,,---,0.00,VWS V14.01,2013-04-24 04:39:00,
2013-04-24 00:40:00,67.3,49.6,30.01,West,276,0.0,8.0,53,0.00,,---,0.00,VWS V14.01,2013-04-24 04:40:00,
2013-04-24 00:41:00,67.3,49.6,30.01,WSW,250,0.0,0.0,53,0.00,,---,0.00,VWS V14.01,2013-04-24 04:41:00,
2013-04-24 00:42:00,67.4,49.7,30.01,NW,305,16.0,16.0,53,0.00,,---,0.00,VWS V14.01,2013-04-24 04:42:00,
2013-04-24 00:43:00,67.4,49.7,30.01,WNW,289,7.0,16.0,53,0.00,,---,0.00,VWS V14.01,2013-04-24 04:43:00,
2013-04-24 00:44:00,67.4,49.7,30.01,WNW,295,6.0,16.0,53,0.00,,---,0.00,VWS V14.01,2013-04-24 04:44:00,
2013-04-24 00:45:00,67.4,49.7,30.00,WNW,295,6.0,16.0,53,0.00,,---,0.00,VWS V14.01,2013-04-24 04:45:00,
2013-04-24 00:46:00,67.4,49.7,30.00,WNW,295,6.0,16.0,53,0.00,,---,0.00,VWS V14.01,2013-04-24 04:46:00,
2013-04-24 00:47:00,67.4,49.7,30.00,WNW,302,7.0,16.0,53,0.00,,---,0.00,VWS V14.01,2013-04-24 04:47:00,
2013-04-24 00:48:00,67.3,49.6,30.00,WNW,300,8.0,16.0,53,0.00,,---,0.00,VWS V14.01,2013-04-24 04:48:00,
2013-04-24 00:49:00,67.3,49.6,30.00,West,266,7.0,16.0,53,0.00,,---,0.00,VWS V14.01,2013-04-24 04:49:00,
2013-04-24 00:50:00,67.1,49.4,30.00,West,269,0.0,16.0,53,0.00,,---,0.00,VWS V14.01,2013-04-24 04:50:00,
2013-04-24 00:51:00,67.1,49.4,30.00,WNW,298,4.0,4.0,53,0.00,,---,0.00,VWS V14.01,2013-04-24 04:51:00,
2013-04-24 00:52:00,67.1,49.4,30.00,WSW,257,3.0,8.0,53,0.00,,---,0.00,VWS V14.01,2013-04-24 04:52:00,
2013-04-24 00:53:00,67.1,48.9,30.00,WNW,288,1.0,8.0,52,0.00,,---,0.00,VWS V14.01,2013-04-24 04:53:00,
2013-04-24 00:54:00,67.1,49.4,30.00,WNW,282,0.0,8.0,53,0.00,,---,0.00,VWS V14.01,2013-04-24 04:54:00,
2013-04-24 00:55:00,67.3,49.6,30.00,NW,314,12.0,12.0,53,0.00,,---,0.00,VWS V14.01,2013-04-24 04:55:00,
2013-04-24 00:56:00,67.3,49.6,30.00,NNW,327,0.0,12.0,53,0.00,,---,0.00,VWS V14.01,2013-04-24 04:56:00,
2013-04-24 00:57:00,67.3,49.1,30.00,NW,324,0.0,12.0,52,0.00,,---,0.00,VWS V14.01,2013-04-24 04:57:00,
2013-04-24 00:58:00,67.3,50.1,30.00,NW,305,6.0,12.0,54,0.00,,---,0.00,VWS V14.01,2013-04-24 04:58:00,
2013-04-24 00:59:00,67.3,48.6,30.00,WNW,303,10.0,12.0,51,0.00,,---,0.00,VWS V14.01,2013-04-24 04:59:00,
2013-04-24 01:00:00,67.3,48.6,30.00,West,281,6.0,12.0,51,0.00,,---,0.00,VWS V14.01,2013-04-24 05:00:00,
2013-04-24 01:01:00,67.4,48.7,30.00,West,264,0.0,6.0,51,0.00,,---,0.00,VWS V14.01,2013-04-24 05:01:00,
2013-04-24 01:02:00,67.4,48.7,30.00,WNW,290,6.0,6.0,51,0.00,,---,0.00,VWS V14.01,2013-04-24 05:02:00,
2013-04-24 01:03:00,67.4,48.7,30.00,WNW,292,8.0,11.0,51,0.00,,---,0.00,VWS V14.01,2013-04-24 05:03:00,
2013-04-24 01:04:00,67.4,48.7,30.00,West,264,5.0,11.0,51,0.00,,---,0.00,VWS V14.01,2013-04-24 05:04:00,
2013-04-24 01:05:00,67.6,48.8,30.00,WNW,288,3.0,11.0,51,0.00,,---,0.00,VWS V14.01,2013-04-24 05:05:00,
2013-04-24 01:06:00,67.6,48.8,30.00,NW,316,4.0,11.0,51,0.00,,---,0.00,VWS V14.01,2013-04-24 05:06:00,
2013-04-24 01:07:00,67.6,48.8,30.00,NW,316,3.0,11.0,51,0.00,,---,0.00,VWS V14.01,2013-04-24 05:07:00,
2013-04-24 01:08:00,67.6,49.4,30.00,WNW,303,9.0,13.0,52,0.00,,---,0.00,VWS V14.01,2013-04-24 05:08:00,
2013-04-24 01:09:00,67.6,49.4,30.00,NW,316,7.0,13.0,52,0.00,,---,0.00,VWS V14.01,2013-04-24 05:09:00,
2013-04-24 01:10:00,67.6,49.4,30.00,NW,316,7.0,13.0,52,0.00,,---,0.00,VWS V14.01,2013-04-24 05:10:00,
2013-04-24 01:11:00,67.6,49.4,30.00,NW,319,3.0,7.0,52,0.00,,---,0.00,VWS V14.01,2013-04-24 05:11:00,
2013-04-24 01:12:00,67.6,49.4,30.00,West,268,2.0,7.0,52,0.00,,---,0.00,VWS V14.01,2013-04-24 05:12:00,
2013-04-24 01:13:00,67.4,48.7,30.00,NW,310,5.0,7.0,51,0.00,,---,0.00,VWS V14.01,2013-04-24 05:13:00,
2013-04-24 01:14:00,67.4,48.7,30.00,West,279,8.0,8.0,51,0.00,,---,0.00,VWS V14.01,2013-04-24 05:14:00,
2013-04-24 01:15:00,67.4,49.2,30.00,WSW,252,0.0,8.0,52,0.00,,---,0.00,VWS V14.01,2013-04-24 05:15:00,
2013-04-24 01:16:00,67.4,49.2,30.00,WSW,252,0.0,8.0,52,0.00,,---,0.00,VWS V14.01,2013-04-24 05:16:00,
2013-04-24 01:17:00,67.4,49.2,30.00,WNW,302,2.0,8.0,52,0.00,,---,0.00,VWS V14.01,2013-04-24 05:17:00,
2013-04-24 01:18:00,67.4,49.2,30.00,WNW,295,2.0,8.0,52,0.00,,---,0.00,VWS V14.01,2013-04-24 05:18:00,
2013-04-24 01:19:00,67.1,48.9,30.00,SW,220,0.0,8.0,52,0.00,,---,0.00,VWS V14.01,2013-04-24 05:19:00,
2013-04-24 01:20:00,67.1,48.9,30.00,West,265,0.0,8.0,52,0.00,,---,0.00,VWS V14.01,2013-04-24 05:20:00,
2013-04-24 01:21:00,66.9,49.2,30.00,West,265,0.0,0.0,53,0.00,,---,0.00,VWS V14.01,2013-04-24 05:21:00,
2013-04-24 01:22:00,66.9,49.2,30.00,WNW,296,0.0,5.0,53,0.00,,---,0.00,VWS V14.01,2013-04-24 05:22:00,
2013-04-24 01:23:00,66.9,49.2,30.00,NW,310,7.0,7.0,53,0.00,,---,0.00,VWS V14.01,2013-04-24 05:23:00,
2013-04-24 01:24:00,66.9,49.2,30.00,NW,320,0.0,7.0,53,0.00,,---,0.00,VWS V14.01,2013-04-24 05:24:00,
2013-04-24 01:25:00,66.9,49.2,30.00,West,269,1.0,7.0,53,0.00,,---,0.00,VWS V14.01,2013-04-24 05:25:00,
2013-04-24 01:26:00,66.9,49.2,30.00,WNW,286,4.0,7.0,53,0.00,,---,0.00,VWS V14.01,2013-04-24 05:26:00,
2013-04-24 01:27:00,66.9,49.2,30.00,WSW,237,0.0,7.0,53,0.00,,---,0.00,VWS V14.01,2013-04-24 05:27:00,
2013-04-24 01:28:00,66.9,49.2,30.00,NW,323,3.0,7.0,53,0.00,,---,0.00,VWS V14.01,2013-04-24 05:28:00,
2013-04-24 01:29:00,66.9,49.2,30.00,NW,305,0.0,7.0,53,0.00,,---,0.00,VWS V14.01,2013-04-24 05:29:00,
2013-04-24 01:30:00,66.9,49.2,29.99,NW,305,0.0,7.0,53,0.00,,---,0.00,VWS V14.01,2013-04-24 05:30:00,
2013-04-24 01:31:00,66.9,49.2,29.99,NW,306,0.0,0.0,53,0.00,,---,0.00,VWS V14.01,2013-04-24 05:31:00,
2013-04-24 01:32:00,66.9,49.2,29.99,NW,306,0.0,0.0,53,0.00,,---,0.00,VWS V14.01,2013-04-24 05:32:00,
2013-04-24 01:33:00,66.9,49.2,29.99,WNW,295,3.0,3.0,53,0.00,,---,0.00,VWS V14.01,2013-04-24 05:33:00,
2013-04-24 01:34:00,66.9,49.2,29.99,NW,306,3.0,7.0,53,0.00,,---,0.00,VWS V14.01,2013-04-24 05:34:00,
2013-04-24 01:35:00,66.9,49.2,29.99,West,274,1.0,7.0,53,0.00,,---,0.00,VWS V14.01,2013-04-24 05:35:00,
2013-04-24 01:36:00,66.9,49.2,29.99,West,274,1.0,7.0,53,0.00,,---,0.00,VWS V14.01,2013-04-24 05:36:00,
2013-04-24 01:37:00,66.9,49.2,29.99,NNW,330,0.0,7.0,53,0.00,,---,0.00,VWS V14.01,2013-04-24 05:37:00,
2013-04-24 01:38:00,66.9,49.2,29.99,NW,306,0.0,7.0,53,0.00,,---,0.00,VWS V14.01,2013-04-24 05:38:00,
2013-04-24 01:39:00,66.9,49.2,29.99,WNW,298,0.0,7.0,53,0.00,,---,0.00,VWS V14.01,2013-04-24 05:39:00,
2013-04-24 01:40:00,66.9,49.2,29.99,North,1,0.0,7.0,53,0.00,,---,0.00,VWS V14.01,2013-04-24 05:40:00,
2013-04-24 01:41:00,66.9,48.7,29.99,NW,309,0.0,0.0,52,0.00,,---,0.00,VWS V14.01,2013-04-24 05:41:00,
2013-04-24 01:42:00,66.9,49.2,29.99,West,259,5.0,7.0,53,0.00,,---,0.00,VWS V14.01,2013-04-24 05:42:00,
2013-04-24 01:43:00,66.9,49.2,29.99,WNW,290,2.0,7.0,53,0.00,,---,0.00,VWS V14.01,2013-04-24 05:43:00,
2013-04-24 01:44:00,66.9,48.7,29.99,WNW,292,12.0,12.0,52,0.00,,---,0.00,VWS V14.01,2013-04-24 05:44:00,
2013-04-24 01:45:00,66.9,48.7,30.00,WNW,290,8.0,12.0,52,0.00,,---,0.00,VWS V14.01,2013-04-24 05:45:00,
2013-04-24 01:46:00,66.8,48.6,30.00,WNW,282,2.0,12.0,52,0.00,,---,0.00,VWS V14.01,2013-04-24 05:46:00,
2013-04-24 01:47:00,66.8,48.6,30.00,West,261,0.0,12.0,52,0.00,,---,0.00,VWS V14.01,2013-04-24 05:47:00,
2013-04-24 01:48:00,66.6,48.4,30.00,WNW,293,0.0,12.0,52,0.00,,---,0.00,VWS V14.01,2013-04-24 05:48:00,
2013-04-24 01:49:00,66.6,49.5,30.00,WNW,292,0.0,12.0,54,0.00,,---,0.00,VWS V14.01,2013-04-24 05:49:00,
2013-04-24 01:50:00,66.6,49.5,30.00,NW,306,3.0,12.0,54,0.00,,---,0.00,VWS V14.01,2013-04-24 05:50:00,
2013-04-24 01:51:00,66.6,49.5,30.00,WSW,258,4.0,6.0,54,0.00,,---,0.00,VWS V14.01,2013-04-24 05:51:00,
2013-04-24 01:52:00,66.8,49.6,30.00,West,279,0.0,6.0,54,0.00,,---,0.00,VWS V14.01,2013-04-24 05:52:00,
2013-04-24 01:53:00,66.8,49.6,30.00,WSW,244,5.0,12.0,54,0.00,,---,0.00,VWS V14.01,2013-04-24 05:53:00,
2013-04-24 01:54:00,66.8,49.1,30.00,WNW,283,3.0,12.0,53,0.00,,---,0.00,VWS V14.01,2013-04-24 05:54:00,
2013-04-24 01:55:00,66.8,49.1,30.00,WNW,298,2.0,12.0,53,0.00,,---,0.00,VWS V14.01,2013-04-24 05:55:00,
2013-04-24 01:56:00,66.8,49.1,30.00,WNW,299,7.0,12.0,53,0.00,,---,0.00,VWS V14.01,2013-04-24 05:56:00,
2013-04-24 01:57:00,66.8,49.1,30.00,WNW,299,2.0,12.0,53,0.00,,---,0.00,VWS V14.01,2013-04-24 05:57:00,
2013-04-24 01:58:00,66.8,49.1,30.00,West,275,1.0,12.0,53,0.00,,---,0.00,VWS V14.01,2013-04-24 05:58:00,
2013-04-24 01:59:00,66.8,49.1,30.00,WSW,237,2.0,12.0,53,0.00,,---,0.00,VWS V14.01,2013-04-24 05:59:00,
2013-04-24 02:00:00,66.8,49.1,29.99,WNW,295,8.0,12.0,53,0.00,,---,0.00,VWS V14.01,2013-04-24 06:00:00,
2013-04-24 02:01:00,66.8,49.1,29.99,West,275,13.0,13.0,53,0.00,,---,0.00,VWS V14.01,2013-04-24 06:01:00,
2013-04-24 02:02:00,66.8,48.6,29.99,WSW,237,1.0,13.0,52,0.00,,---,0.00,VWS V14.01,2013-04-24 06:02:00,
2013-04-24 02:03:00,66.8,49.1,29.99,WNW,295,2.0,13.0,53,0.00,,---,0.00,VWS V14.01,2013-04-24 06:03:00,
2013-04-24 02:04:00,66.8,49.1,29.99,NW,309,0.0,13.0,53,0.00,,---,0.00,VWS V14.01,2013-04-24 06:04:00,
2013-04-24 02:05:00,66.6,49.0,29.99,West,268,0.0,13.0,53,0.00,,---,0.00,VWS V14.01,2013-04-24 06:05:00,
2013-04-24 02:06:00,66.6,49.0,29.99,WSW,248,0.0,13.0,53,0.00,,---,0.00,VWS V14.01,2013-04-24 06:06:00,
2013-04-24 02:07:00,66.6,49.5,29.99,WNW,292,8.0,13.0,54,0.00,,---,0.00,VWS V14.01,2013-04-24 06:07:00,
2013-04-24 02:08:00,66.6,49.5,29.99,WNW,286,11.0,13.0,54,0.00,,---,0.00,VWS V14.01,2013-04-24 06:08:00,
2013-04-24 02:09:00,66.6,49.5,29.99,WNW,303,5.0,13.0,54,0.00,,---,0.00,VWS V14.01,2013-04-24 06:09:00,
2013-04-24 02:10:00,66.4,49.3,29.99,NW,313,0.0,13.0,54,0.00,,---,0.00,VWS V14.01,2013-04-24 06:10:00,
2013-04-24 02:11:00,66.4,49.3,29.99,West,278,7.0,7.0,54,0.00,,---,0.00,VWS V14.01,2013-04-24 06:11:00,
2013-04-24 02:12:00,66.3,49.2,29.99,WNW,296,8.0,8.0,54,0.00,,---,0.00,VWS V14.01,2013-04-24 06:12:00,
2013-04-24 02:13:00,66.3,49.2,29.99,NW,306,0.0,8.0,54,0.00,,---,0.00,VWS V14.01,2013-04-24 06:13:00,
2013-04-24 02:14:00,66.3,49.2,29.99,NW,306,0.0,8.0,54,0.00,,---,0.00,VWS V14.01,2013-04-24 06:14:00,
2013-04-24 02:15:00,66.1,49.0,30.00,NW,310,5.0,8.0,54,0.00,,---,0.00,VWS V14.01,2013-04-24 06:15:00,
2013-04-24 02:16:00,66.1,49.0,30.00,NW,305,0.0,8.0,54,0.00,,---,0.00,VWS V14.01,2013-04-24 06:16:00,
2013-04-24 02:17:00,66.1,49.0,30.00,NW,305,0.0,8.0,54,0.00,,---,0.00,VWS V14.01,2013-04-24 06:17:00,
2013-04-24 02:18:00,66.1,49.0,30.00,NW,306,0.0,8.0,54,0.00,,---,0.00,VWS V14.01,2013-04-24 06:18:00,
2013-04-24 02:19:00,66.0,49.4,30.00,WNW,288,0.0,8.0,55,0.00,,---,0.00,VWS V14.01,2013-04-24 06:19:00,
2013-04-24 02:20:00,66.0,49.4,30.00,West,271,6.0,8.0,55,0.00,,---,0.00,VWS V14.01,2013-04-24 06:20:00,
2013-04-24 02:21:00,66.0,49.4,30.00,West,278,8.0,8.0,55,0.00,,---,0.00,VWS V14.01,2013-04-24 06:21:00,
2013-04-24 02:22:00,65.8,49.2,30.00,NW,305,8.0,8.0,55,0.00,,---,0.00,VWS V14.01,2013-04-24 06:22:00,
2013-04-24 02:23:00,65.8,49.2,30.00,WNW,288,3.0,8.0,55,0.00,,---,0.00,VWS V14.01,2013-04-24 06:23:00,
2013-04-24 02:24:00,65.8,49.7,30.00,West,274,2.0,8.0,56,0.00,,---,0.00,VWS V14.01,2013-04-24 06:24:00,
2013-04-24 02:25:00,65.6,49.5,30.00,WNW,293,0.0,8.0,56,0.00,,---,0.00,VWS V14.01,2013-04-24 06:25:00,
2013-04-24 02:26:00,65.6,49.5,30.00,NW,305,2.0,8.0,56,0.00,,---,0.00,VWS V14.01,2013-04-24 06:26:00,
2013-04-24 02:27:00,65.6,49.5,30.00,WNW,296,6.0,8.0,56,0.00,,---,0.00,VWS V14.01,2013-04-24 06:27:00,
2013-04-24 02:28:00,65.6,49.5,30.00,WNW,302,6.0,8.0,56,0.00,,---,0.00,VWS V14.01,2013-04-24 06:28:00,
2013-04-24 02:29:00,65.5,49.4,30.00,NNW,334,3.0,8.0,56,0.00,,---,0.00,VWS V14.01,2013-04-24 06:29:00,
2013-04-24 02:30:00,65.5,49.4,29.99,West,272,0.0,8.0,56,0.00,,---,0.00,VWS V14.01,2013-04-24 06:30:00,
2013-04-24 02:31:00,65.5,49.9,29.99,NW,312,0.0,0.0,57,0.00,,---,0.00,VWS V14.01,2013-04-24 06:31:00,
2013-04-24 02:32:00,65.5,49.9,29.99,WNW,286,5.0,5.0,57,0.00,,---,0.00,VWS V14.01,2013-04-24 06:32:00,
2013-04-24 02:33:00,65.5,49.9,29.99,WNW,293,0.0,7.0,57,0.00,,---,0.00,VWS V14.01,2013-04-24 06:33:00,
2013-04-24 02:34:00,65.5,49.4,29.99,WSW,252,5.0,9.0,56,0.00,,---,0.00,VWS V14.01,2013-04-24 06:34:00,
2013-04-24 02:35:00,65.5,49.4,29.99,West,275,0.0,9.0,56,0.00,,---,0.00,VWS V14.01,2013-04-24 06:35:00,
2013-04-24 02:36:00,65.5,49.9,29.99,WNW,293,0.0,9.0,57,0.00,,---,0.00,VWS V14.01,2013-04-24 06:36:00,
2013-04-24 02:37:00,65.5,49.9,29.99,WNW,298,5.0,9.0,57,0.00,,---,0.00,VWS V14.01,2013-04-24 06:37:00,
2013-04-24 02:38:00,65.5,49.9,29.99,NW,314,2.0,9.0,57,0.00,,---,0.00,VWS V14.01,2013-04-24 06:38:00,
2013-04-24 02:39:00,65.5,49.9,29.99,NW,306,0.0,9.0,57,0.00,,---,0.00,VWS V14.01,2013-04-24 06:39:00,
2013-04-24 02:40:00,65.5,50.3,29.99,WNW,300,0.0,9.0,58,0.00,,---,0.00,VWS V14.01,2013-04-24 06:40:00,
2013-04-24 02:41:00,65.5,50.3,29.99,NW,305,0.0,3.0,58,0.00,,---,0.00,VWS V14.01,2013-04-24 06:41:00,
2013-04-24 02:42:00,65.6,50.4,29.99,West,271,3.0,3.0,58,0.00,,---,0.00,VWS V14.01,2013-04-24 06:42:00,
2013-04-24 02:43:00,65.6,50.4,29.99,West,261,0.0,7.0,58,0.00,,---,0.00,VWS V14.01,2013-04-24 06:43:00,
2013-04-24 02:44:00,65.6,50.0,29.99,West,265,0.0,7.0,57,0.00,,---,0.00,VWS V14.01,2013-04-24 06:44:00,
2013-04-24 02:45:00,65.6,50.4,29.99,WSW,240,4.0,7.0,58,0.00,,---,0.00,VWS V14.01,2013-04-24 06:45:00,
2013-04-24 02:46:00,65.8,50.6,29.99,West,264,0.0,7.0,58,0.00,,---,0.00,VWS V14.01,2013-04-24 06:46:00,
2013-04-24 02:47:00,65.8,50.6,29.99,West,281,6.0,10.0,58,0.00,,---,0.00,VWS V14.01,2013-04-24 06:47:00,
2013-04-24 02:48:00,65.8,50.2,29.99,West,265,0.0,10.0,57,0.00,,---,0.00,VWS V14.01,2013-04-24 06:48:00,
2013-04-24 02:49:00,65.8,50.2,29.99,West,276,0.0,10.0,57,0.00,,---,0.00,VWS V14.01,2013-04-24 06:49:00,
2013-04-24 02:50:00,65.8,50.2,29.99,NNW,330,0.0,10.0,57,0.00,,---,0.00,VWS V14.01,2013-04-24 06:50:00,
2013-04-24 02:51:00,65.8,50.2,29.99,WSW,238,3.0,6.0,57,0.00,,---,0.00,VWS V14.01,2013-04-24 06:51:00,
2013-04-24 02:52:00,65.8,49.7,29.99,WNW,295,5.0,6.0,56,0.00,,---,0.00,VWS V14.01,2013-04-24 06:52:00,
2013-04-24 02:53:00,65.8,50.2,29.99,WNW,296,6.0,6.0,57,0.00,,---,0.00,VWS V14.01,2013-04-24 06:53:00,
2013-04-24 02:54:00,65.8,49.7,29.99,WNW,288,0.0,6.0,56,0.00,,---,0.00,VWS V14.01,2013-04-24 06:54:00,
2013-04-24 02:55:00,65.8,50.2,29.99,WNW,300,0.0,6.0,57,0.00,,---,0.00,VWS V14.01,2013-04-24 06:55:00,
2013-04-24 02:56:00,65.8,50.2,29.99,West,266,0.0,6.0,57,0.00,,---,0.00,VWS V14.01,2013-04-24 06:56:00,
2013-04-24 02:57:00,66.0,50.8,29.99,West,266,0.0,6.0,58,0.00,,---,0.00,VWS V14.01,2013-04-24 06:57:00,
2013-04-24 02:58:00,66.0,50.8,29.99,West,274,0.0,6.0,58,0.00,,---,0.00,VWS V14.01,2013-04-24 06:58:00,
2013-04-24 02:59:00,66.0,50.8,29.99,West,275,0.0,6.0,58,0.00,,---,0.00,VWS V14.01,2013-04-24 06:59:00,
2013-04-24 03:00:00,66.0,50.3,29.98,WNW,292,0.0,6.0,57,0.00,,---,0.00,VWS V14.01,2013-04-24 07:00:00,
2013-04-24 03:01:00,66.0,50.8,29.98,WNW,292,0.0,0.0,58,0.00,,---,0.00,VWS V14.01,2013-04-24 07:01:00,
2013-04-24 03:02:00,66.0,50.8,29.98,West,264,3.0,3.0,58,0.00,,---,0.00,VWS V14.01,2013-04-24 07:02:00,
2013-04-24 03:03:00,66.1,50.4,29.98,West,268,0.0,3.0,57,0.00,,---,0.00,VWS V14.01,2013-04-24 07:03:00,
2013-04-24 03:04:00,66.1,50.4,29.98,NW,307,0.0,3.0,57,0.00,,---,0.00,VWS V14.01,2013-04-24 07:04:00,
2013-04-24 03:05:00,66.1,50.9,29.98,WNW,302,0.0,3.0,58,0.00,,---,0.00,VWS V14.01,2013-04-24 07:05:00,
2013-04-24 03:06:00,66.1,50.4,29.98,WNW,286,0.0,3.0,57,0.00,,---,0.00,VWS V14.01,2013-04-24 07:06:00,
2013-04-24 03:07:00,66.1,50.0,29.98,WNW,283,0.0,3.0,56,0.00,,---,0.00,VWS V14.01,2013-04-24 07:07:00,
2013-04-24 03:08:00,66.1,50.4,29.98,WNW,283,0.0,3.0,57,0.00,,---,0.00,VWS V14.01,2013-04-24 07:08:00,
2013-04-24 03:09:00,66.3,50.6,29.98,WNW,285,0.0,3.0,57,0.00,,---,0.00,VWS V14.01,2013-04-24 07:09:00,
2013-04-24 03:10:00,66.3,50.6,29.98,WNW,288,3.0,3.0,57,0.00,,---,0.00,VWS V14.01,2013-04-24 07:10:00,
2013-04-24 03:11:00,66.3,50.6,29.98,WNW,290,0.0,3.0,57,0.00,,---,0.00,VWS V14.01,2013-04-24 07:11:00,
2013-04-24 03:12:00,66.3,50.2,29.98,WNW,282,0.0,3.0,56,0.00,,---,0.00,VWS V14.01,2013-04-24 07:12:00,
2013-04-24 03:13:00,66.3,50.6,29.98,WNW,282,0.0,3.0,57,0.00,,---,0.00,VWS V14.01,2013-04-24 07:13:00,
2013-04-24 03:14:00,66.3,50.2,29.98,WNW,282,0.0,3.0,56,0.00,,---,0.00,VWS V14.01,2013-04-24 07:14:00,
2013-04-24 03:15:00,66.3,50.6,29.97,WNW,290,0.0,3.0,57,0.00,,---,0.00,VWS V14.01,2013-04-24 07:15:00,
2013-04-24 03:16:00,66.3,51.1,29.97,WNW,288,0.0,3.0,58,0.00,,---,0.00,VWS V14.01,2013-04-24 07:16:00,
2013-04-24 03:17:00,66.3,50.2,29.97,WNW,296,0.0,3.0,56,0.00,,---,0.00,VWS V14.01,2013-04-24 07:17:00,
2013-04-24 03:18:00,66.3,50.6,29.97,WNW,298,0.0,3.0,57,0.00,,---,0.00,VWS V14.01,2013-04-24 07:18:00,
2013-04-24 03:19:00,66.3,50.2,29.97,WNW,302,0.0,6.0,56,0.00,,---,0.00,VWS V14.01,2013-04-24 07:19:00,
2013-04-24 03:20:00,66.3,50.2,29.97,WNW,298,0.0,6.0,56,0.00,,---,0.00,VWS V14.01,2013-04-24 07:20:00,
2013-04-24 03:21:00,66.3,50.6,29.97,WNW,298,0.0,0.0,57,0.00,,---,0.00,VWS V14.01,2013-04-24 07:21:00,
2013-04-24 03:22:00,66.3,50.6,29.97,WNW,298,0.0,3.0,57,0.00,,---,0.00,VWS V14.01,2013-04-24 07:22:00,
2013-04-24 03:23:00,66.3,50.6,29.97,WNW,298,0.0,3.0,57,0.00,,---,0.00,VWS V14.01,2013-04-24 07:23:00,
2013-04-24 03:24:00,66.4,50.7,29.97,West,266,0.0,3.0,57,0.00,,---,0.00,VWS V14.01,2013-04-24 07:24:00,
2013-04-24 03:25:00,66.4,50.7,29.97,West,271,0.0,3.0,57,0.00,,---,0.00,VWS V14.01,2013-04-24 07:25:00,
2013-04-24 03:26:00,66.4,50.7,29.97,West,271,0.0,3.0,57,0.00,,---,0.00,VWS V14.01,2013-04-24 07:26:00,
2013-04-24 03:27:00,66.4,50.7,29.97,WNW,295,2.0,3.0,57,0.00,,---,0.00,VWS V14.01,2013-04-24 07:27:00,
2013-04-24 03:28:00,66.4,50.7,29.97,West,268,6.0,6.0,57,0.00,,---,0.00,VWS V14.01,2013-04-24 07:28:00,
2013-04-24 03:29:00,66.4,50.7,29.97,WNW,295,0.0,6.0,57,0.00,,---,0.00,VWS V14.01,2013-04-24 07:29:00,
2013-04-24 03:30:00,66.4,50.2,29.97,WNW,300,2.0,6.0,56,0.00,,---,0.00,VWS V14.01,2013-04-24 07:30:00,
2013-04-24 03:31:00,66.4,50.7,29.97,WNW,288,3.0,3.0,57,0.00,,---,0.00,VWS V14.01,2013-04-24 07:31:00,
2013-04-24 03:32:00,66.4,50.7,29.97,WNW,290,0.0,3.0,57,0.00,,---,0.00,VWS V14.01,2013-04-24 07:32:00,
2013-04-24 03:33:00,66.6,50.9,29.97,WNW,282,3.0,3.0,57,0.00,,---,0.00,VWS V14.01,2013-04-24 07:33:00,
2013-04-24 03:34:00,66.6,50.9,29.97,WNW,293,0.0,5.0,57,0.00,,---,0.00,VWS V14.01,2013-04-24 07:34:00,
2013-04-24 03:35:00,66.6,50.9,29.97,WNW,288,5.0,6.0,57,0.00,,---,0.00,VWS V14.01,2013-04-24 07:35:00,
2013-04-24 03:36:00,66.6,50.9,29.97,WNW,282,0.0,6.0,57,0.00,,---,0.00,VWS V14.01,2013-04-24 07:36:00,
2013-04-24 03:37:00,66.6,50.9,29.97,NW,305,1.0,6.0,57,0.00,,---,0.00,VWS V14.01,2013-04-24 07:37:00,
2013-04-24 03:38:00,66.8,51.1,29.97,WNW,299,3.0,6.0,57,0.00,,---,0.00,VWS V14.01,2013-04-24 07:38:00,
2013-04-24 03:39:00,66.8,50.6,29.97,WNW,299,0.0,6.0,56,0.00,,---,0.00,VWS V14.01,2013-04-24 07:39:00,
2013-04-24 03:40:00,66.8,50.6,29.97,West,275,0.0,6.0,56,0.00,,---,0.00,VWS V14.01,2013-04-24 07:40:00,
2013-04-24 03:41:00,66.8,51.1,29.97,WNW,296,0.0,0.0,57,0.00,,---,0.00,VWS V14.01,2013-04-24 07:41:00,
2013-04-24 03:42:00,66.8,51.1,29.97,NW,314,5.0,7.0,57,0.00,,---,0.00,VWS V14.01,2013-04-24 07:42:00,
2013-04-24 03:43:00,66.8,50.6,29.97,WNW,290,7.0,8.0,56,0.00,,---,0.00,VWS V14.01,2013-04-24 07:43:00,
2013-04-24 03:44:00,66.8,50.6,29.97,NW,307,5.0,8.0,56,0.00,,---,0.00,VWS V14.01,2013-04-24 07:44:00,
2013-04-24 03:45:00,66.8,50.6,29.96,NW,307,5.0,8.0,56,0.00,,---,0.00,VWS V14.01,2013-04-24 07:45:00,
2013-04-24 03:46:00,66.8,50.6,29.96,WNW,298,0.0,8.0,56,0.00,,---,0.00,VWS V14.01,2013-04-24 07:46:00,
2013-04-24 03:47:00,66.8,50.6,29.96,WNW,295,0.0,8.0,56,0.00,,---,0.00,VWS V14.01,2013-04-24 07:47:00,
2013-04-24 03:48:00,66.8,51.1,29.96,WNW,282,0.0,8.0,57,0.00,,---,0.00,VWS V14.01,2013-04-24 07:48:00,
2013-04-24 03:49:00,66.8,51.1,29.96,WNW,286,0.0,8.0,57,0.00,,---,0.00,VWS V14.01,2013-04-24 07:49:00,
2013-04-24 03:50:00,66.8,51.1,29.96,WNW,286,0.0,8.0,57,0.00,,---,0.00,VWS V14.01,2013-04-24 07:50:00,
2013-04-24 03:51:00,66.8,51.1,29.96,West,264,0.0,0.0,57,0.00,,---,0.00,VWS V14.01,2013-04-24 07:51:00,
2013-04-24 03:52:00,66.8,51.6,29.96,West,264,0.0,0.0,58,0.00,,---,0.00,VWS V14.01,2013-04-24 07:52:00,
2013-04-24 03:53:00,66.8,51.1,29.96,West,274,0.0,6.0,57,0.00,,---,0.00,VWS V14.01,2013-04-24 07:53:00,
2013-04-24 03:54:00,66.9,51.2,29.96,WNW,302,0.0,6.0,57,0.00,,---,0.00,VWS V14.01,2013-04-24 07:54:00,
2013-04-24 03:55:00,66.9,51.2,29.96,WNW,300,0.0,6.0,57,0.00,,---,0.00,VWS V14.01,2013-04-24 07:55:00,
2013-04-24 03:56:00,66.9,51.2,29.96,West,276,2.0,6.0,57,0.00,,---,0.00,VWS V14.01,2013-04-24 07:56:00,
2013-04-24 03:57:00,66.9,51.2,29.96,West,276,2.0,6.0,57,0.00,,---,0.00,VWS V14.01,2013-04-24 07:57:00,
2013-04-24 03:58:00,66.9,51.2,29.96,West,271,0.0,7.0,57,0.00,,---,0.00,VWS V14.01,2013-04-24 07:58:00,
2013-04-24 03:59:00,66.9,51.2,29.96,West,271,4.0,7.0,57,0.00,,---,0.00,VWS V14.01,2013-04-24 07:59:00,
2013-04-24 04:00:00,66.9,51.2,29.96,WNW,289,3.0,7.0,57,0.00,,---,0.00,VWS V14.01,2013-04-24 08:00:00,
2013-04-24 04:01:00,66.9,51.2,29.96,WNW,292,1.0,3.0,57,0.00,,---,0.00,VWS V14.01,2013-04-24 08:01:00,
2013-04-24 04:02:00,66.9,51.2,29.96,WNW,289,1.0,3.0,57,0.00,,---,0.00,VWS V14.01,2013-04-24 08:02:00,
2013-04-24 04:03:00,66.9,50.7,29.96,WNW,289,0.0,3.0,56,0.00,,---,0.00,VWS V14.01,2013-04-24 08:03:00,
2013-04-24 04:04:00,66.9,51.2,29.96,WNW,289,0.0,3.0,57,0.00,,---,0.00,VWS V14.01,2013-04-24 08:04:00,
2013-04-24 04:05:00,66.9,50.7,29.96,WNW,289,0.0,3.0,56,0.00,,---,0.00,VWS V14.01,2013-04-24 08:05:00,
2013-04-24 04:06:00,66.9,51.2,29.96,WNW,288,2.0,3.0,57,0.00,,---,0.00,VWS V14.01,2013-04-24 08:06:00,
2013-04-24 04:07:00,66.9,51.2,29.96,West,271,5.0,5.0,57,0.00,,---,0.00,VWS V14.01,2013-04-24 08:07:00,
2013-04-24 04:08:00,66.9,51.2,29.96,West,271,0.0,5.0,57,0.00,,---,0.00,VWS V14.01,2013-04-24 08:08:00,
2013-04-24 04:09:00,66.9,51.2,29.96,West,271,0.0,5.0,57,0.00,,---,0.00,VWS V14.01,2013-04-24 08:09:00,
2013-04-24 04:10:00,66.9,51.2,29.96,West,278,0.0,5.0,57,0.00,,---,0.00,VWS V14.01,2013-04-24 08:10:00,
2013-04-24 04:11:00,66.9,51.2,29.96,West,278,0.0,0.0,57,0.00,,---,0.00,VWS V14.01,2013-04-24 08:11:00,
2013-04-24 04:12:00,66.9,51.2,29.96,West,276,0.0,0.0,57,0.00,,---,0.00,VWS V14.01,2013-04-24 08:12:00,
2013-04-24 04:13:00,66.9,51.2,29.96,West,276,0.0,0.0,57,0.00,,---,0.00,VWS V14.01,2013-04-24 08:13:00,
2013-04-24 04:14:00,66.9,51.2,29.96,West,276,0.0,0.0,57,0.00,,---,0.00,VWS V14.01,2013-04-24 08:14:00,
2013-04-24 04:15:00,66.9,51.2,29.95,West,278,0.0,1.0,57,0.00,,---,0.00,VWS V14.01,2013-04-24 08:15:00,
2013-04-24 04:16:00,67.1,51.8,29.95,West,276,2.0,2.0,58,0.00,,---,0.00,VWS V14.01,2013-04-24 08:16:00,
2013-04-24 04:17:00,67.1,51.8,29.95,WNW,303,6.0,6.0,58,0.00,,---,0.00,VWS V14.01,2013-04-24 08:17:00,
2013-04-24 04:18:00,67.1,51.8,29.95,WNW,288,0.0,6.0,58,0.00,,---,0.00,VWS V14.01,2013-04-24 08:18:00,
2013-04-24 04:19:00,67.1,51.4,29.95,West,276,1.0,6.0,57,0.00,,---,0.00,VWS V14.01,2013-04-24 08:19:00,
2013-04-24 04:20:00,67.1,51.4,29.95,West,279,0.0,6.0,57,0.00,,---,0.00,VWS V14.01,2013-04-24 08:20:00,
2013-04-24 04:21:00,67.1,51.4,29.95,WNW,298,6.0,6.0,57,0.00,,---,0.00,VWS V14.01,2013-04-24 08:21:00,
2013-04-24 04:22:00,67.1,51.4,29.95,WNW,299,2.0,6.0,57,0.00,,---,0.00,VWS V14.01,2013-04-24 08:22:00,
2013-04-24 04:23:00,67.1,51.4,29.95,WNW,298,3.0,6.0,57,0.00,,---,0.00,VWS V14.01,2013-04-24 08:23:00,
2013-04-24 04:24:00,66.9,50.7,29.95,NW,306,0.0,6.0,56,0.00,,---,0.00,VWS V14.01,2013-04-24 08:24:00,
2013-04-24 04:25:00,66.9,51.2,29.95,WNW,290,0.0,6.0,57,0.00,,---,0.00,VWS V14.01,2013-04-24 08:25:00,
2013-04-24 04:26:00,66.9,51.2,29.95,WNW,300,0.0,6.0,57,0.00,,---,0.00,VWS V14.01,2013-04-24 08:26:00,
2013-04-24 04:27:00,66.9,51.2,29.95,NW,313,5.0,6.0,57,0.00,,---,0.00,VWS V14.01,2013-04-24 08:27:00,
2013-04-24 04:28:00,66.9,51.2,29.95,NW,322,3.0,6.0,57,0.00,,---,0.00,VWS V14.01,2013-04-24 08:28:00,
2013-04-24 04:29:00,66.9,51.2,29.95,WNW,282,0.0,6.0,57,0.00,,---,0.00,VWS V14.01,2013-04-24 08:29:00,
2013-04-24 04:30:00,66.9,51.2,29.95,WNW,295,6.0,6.0,57,0.00,,---,0.00,VWS V14.01,2013-04-24 08:30:00,
2013-04-24 04:31:00,66.8,51.1,29.95,West,274,0.0,6.0,57,0.00,,---,0.00,VWS V14.01,2013-04-24 08:31:00,
2013-04-24 04:32:00,66.8,51.6,29.95,WNW,296,3.0,6.0,58,0.00,,---,0.00,VWS V14.01,2013-04-24 08:32:00,
2013-04-24 04:33:00,66.8,51.6,29.95,WNW,298,0.0,6.0,58,0.00,,---,0.00,VWS V14.01,2013-04-24 08:33:00,
2013-04-24 04:34:00,66.8,51.6,29.95,WNW,288,0.0,6.0,58,0.00,,---,0.00,VWS V14.01,2013-04-24 08:34:00,
2013-04-24 04:35:00,66.8,51.6,29.95,WNW,290,0.0,6.0,58,0.00,,---,0.00,VWS V14.01,2013-04-24 08:35:00,
2013-04-24 04:36:00,66.8,51.6,29.95,West,278,0.0,6.0,58,0.00,,---,0.00,VWS V14.01,2013-04-24 08:36:00,
2013-04-24 04:37:00,66.8,51.6,29.95,West,281,0.0,6.0,58,0.00,,---,0.00,VWS V14.01,2013-04-24 08:37:00,
2013-04-24 04:38:00,66.8,51.6,29.95,WNW,290,0.0,6.0,58,0.00,,---,0.00,VWS V14.01,2013-04-24 08:38:00,
2013-04-24 04:39:00,66.8,51.6,29.95,WNW,290,0.0,6.0,58,0.00,,---,0.00,VWS V14.01,2013-04-24 08:39:00,
2013-04-24 04:40:00,66.8,51.6,29.95,West,272,0.0,6.0,58,0.00,,---,0.00,VWS V14.01,2013-04-24 08:40:00,
2013-04-24 04:41:00,66.8,51.6,29.95,WNW,285,0.0,0.0,58,0.00,,---,0.00,VWS V14.01,2013-04-24 08:41:00,
2013-04-24 04:42:00,66.8,51.6,29.95,WNW,285,0.0,0.0,58,0.00,,---,0.00,VWS V14.01,2013-04-24 08:42:00,
2013-04-24 04:43:00,66.8,51.6,29.95,WNW,282,3.0,3.0,58,0.00,,---,0.00,VWS V14.01,2013-04-24 08:43:00,
2013-04-24 04:44:00,66.8,51.6,29.95,West,271,0.0,3.0,58,0.00,,---,0.00,VWS V14.01,2013-04-24 08:44:00,
2013-04-24 04:45:00,66.8,51.6,29.95,WNW,286,2.0,3.0,58,0.00,,---,0.00,VWS V14.01,2013-04-24 08:45:00,
2013-04-24 04:46:00,66.8,51.6,29.95,WNW,286,2.0,3.0,58,0.00,,---,0.00,VWS V14.01,2013-04-24 08:46:00,
2013-04-24 04:47:00,66.6,51.4,29.95,West,281,0.0,3.0,58,0.00,,---,0.00,VWS V14.01,2013-04-24 08:47:00,
2013-04-24 04:48:00,66.6,51.4,29.95,WNW,296,0.0,3.0,58,0.00,,---,0.00,VWS V14.01,2013-04-24 08:48:00,
2013-04-24 04:49:00,66.6,51.4,29.95,West,278,7.0,7.0,58,0.00,,---,0.00,VWS V14.01,2013-04-24 08:49:00,
2013-04-24 04:50:00,66.6,51.4,29.95,West,278,0.0,7.0,58,0.00,,---,0.00,VWS V14.01,2013-04-24 08:50:00,
2013-04-24 04:51:00,66.6,51.4,29.95,West,274,0.0,2.0,58,0.00,,---,0.00,VWS V14.01,2013-04-24 08:51:00,
2013-04-24 04:52:00,66.4,51.2,29.95,WNW,299,0.0,2.0,58,0.00,,---,0.00,VWS V14.01,2013-04-24 08:52:00,
2013-04-24 04:53:00,66.4,51.7,29.95,WNW,293,1.0,2.0,59,0.00,,---,0.00,VWS V14.01,2013-04-24 08:53:00,
2013-04-24 04:54:00,66.4,51.7,29.95,WNW,293,0.0,3.0,59,0.00,,---,0.00,VWS V14.01,2013-04-24 08:54:00,
2013-04-24 04:55:00,66.4,51.7,29.95,WNW,298,2.0,3.0,59,0.00,,---,0.00,VWS V14.01,2013-04-24 08:55:00,
2013-04-24 04:56:00,66.4,51.7,29.95,WNW,293,0.0,3.0,59,0.00,,---,0.00,VWS V14.01,2013-04-24 08:56:00,
2013-04-24 04:57:00,66.3,51.6,29.95,WNW,293,0.0,3.0,59,0.00,,---,0.00,VWS V14.01,2013-04-24 08:57:00,
2013-04-24 04:58:00,66.3,51.6,29.95,WNW,293,0.0,3.0,59,0.00,,---,0.00,VWS V14.01,2013-04-24 08:58:00,
2013-04-24 04:59:00,66.1,51.4,29.95,WNW,293,0.0,3.0,59,0.00,,---,0.00,VWS V14.01,2013-04-24 08:59:00,
2013-04-24 05:00:00,66.1,51.8,29.95,WNW,303,0.0,3.0,60,0.00,,---,0.00,VWS V14.01,2013-04-24 09:00:00,
2013-04-24 05:01:00,66.1,51.8,29.95,WNW,298,0.0,0.0,60,0.00,,---,0.00,VWS V14.01,2013-04-24 09:01:00,
2013-04-24 05:02:00,66.1,51.8,29.95,WNW,298,0.0,0.0,60,0.00,,---,0.00,VWS V14.01,2013-04-24 09:02:00,
2013-04-24 05:03:00,66.0,51.7,29.95,West,272,1.0,2.0,60,0.00,,---,0.00,VWS V14.01,2013-04-24 09:03:00,
2013-04-24 05:04:00,66.0,51.7,29.95,West,272,0.0,2.0,60,0.00,,---,0.00,VWS V14.01,2013-04-24 09:04:00,
2013-04-24 05:05:00,66.0,51.7,29.95,West,275,0.0,2.0,60,0.00,,---,0.00,VWS V14.01,2013-04-24 09:05:00,
2013-04-24 05:06:00,66.0,51.7,29.95,West,275,0.0,2.0,60,0.00,,---,0.00,VWS V14.01,2013-04-24 09:06:00,
2013-04-24 05:07:00,66.0,51.7,29.95,WNW,285,0.0,7.0,60,0.00,,---,0.00,VWS V14.01,2013-04-24 09:07:00,
2013-04-24 05:08:00,66.0,51.7,29.95,West,279,1.0,7.0,60,0.00,,---,0.00,VWS V14.01,2013-04-24 09:08:00,
2013-04-24 05:09:00,65.8,51.5,29.95,WNW,286,3.0,7.0,60,0.00,,---,0.00,VWS V14.01,2013-04-24 09:09:00,
2013-04-24 05:10:00,65.6,52.2,29.95,West,266,3.0,8.0,62,0.00,,---,0.00,VWS V14.01,2013-04-24 09:10:00,
2013-04-24 05:11:00,65.6,52.2,29.95,WNW,286,2.0,7.0,62,0.00,,---,0.00,VWS V14.01,2013-04-24 09:11:00,
2013-04-24 05:12:00,65.6,52.2,29.95,WNW,282,0.0,7.0,62,0.00,,---,0.00,VWS V14.01,2013-04-24 09:12:00,
2013-04-24 05:13:00,65.6,52.2,29.95,WNW,303,0.0,7.0,62,0.00,,---,0.00,VWS V14.01,2013-04-24 09:13:00,
2013-04-24 05:14:00,65.6,52.2,29.95,NW,305,3.0,7.0,62,0.00,,---,0.00,VWS V14.01,2013-04-24 09:14:00,
2013-04-24 05:15:00,65.6,52.2,29.97,NW,305,0.0,7.0,62,0.00,,---,0.00,VWS V14.01,2013-04-24 09:15:00,
2013-04-24 05:16:00,65.2,51.9,29.97,NW,306,0.0,7.0,62,0.00,,---,0.00,VWS V14.01,2013-04-24 09:16:00,
2013-04-24 05:17:00,65.2,51.9,29.97,NW,305,4.0,7.0,62,0.00,,---,0.00,VWS V14.01,2013-04-24 09:17:00,
2013-04-24 05:18:00,65.0,51.7,29.97,WNW,285,3.0,7.0,62,0.00,,---,0.00,VWS V14.01,2013-04-24 09:18:00,
2013-04-24 05:19:00,65.0,53.4,29.97,West,266,2.0,7.0,66,0.00,,---,0.00,VWS V14.01,2013-04-24 09:19:00,
2013-04-24 05:20:00,65.0,53.4,29.97,West,266,2.0,7.0,66,0.00,,---,0.00,VWS V14.01,2013-04-24 09:20:00,
2013-04-24 05:21:00,65.0,53.4,29.97,West,266,2.0,2.0,66,0.00,,---,0.00,VWS V14.01,2013-04-24 09:21:00,
2013-04-24 05:22:00,65.0,53.4,29.97,West,266,2.0,2.0,66,0.00,,---,0.00,VWS V14.01,2013-04-24 09:22:00,
2013-04-24 05:23:00,64.5,52.9,29.97,WNW,282,3.0,6.0,66,0.00,,---,0.00,VWS V14.01,2013-04-24 09:23:00,
2013-04-24 05:24:00,64.5,52.9,29.97,WNW,282,6.0,6.0,66,0.00,,---,0.00,VWS V14.01,2013-04-24 09:24:00,
2013-04-24 05:25:00,64.5,52.9,29.97,WNW,282,6.0,6.0,66,0.00,,---,0.00,VWS V14.01,2013-04-24 09:25:00,
2013-04-24 05:26:00,64.5,52.9,29.97,WNW,282,6.0,6.0,66,0.00,,---,0.00,VWS V14.01,2013-04-24 09:26:00,
2013-04-24 05:27:00,63.9,52.3,29.97,WNW,295,0.0,6.0,66,0.00,,---,0.00,VWS V14.01,2013-04-24 09:27:00,
2013-04-24 05:28:00,63.9,54.7,29.97,West,268,5.0,6.0,72,0.00,,---,0.00,VWS V14.01,2013-04-24 09:28:00,
2013-04-24 05:29:00,63.9,54.7,29.97,West,268,5.0,6.0,72,0.00,,---,0.00,VWS V14.01,2013-04-24 09:29:00,
2013-04-24 05:30:00,63.5,54.7,29.98,WNW,298,0.0,6.0,73,0.00,,---,0.00,VWS V14.01,2013-04-24 09:30:00,
2013-04-24 05:31:00,63.4,55.0,29.98,WNW,302,0.0,3.0,74,0.00,,---,0.00,VWS V14.01,2013-04-24 09:31:00,
2013-04-24 05:32:00,63.2,54.8,29.98,WNW,295,3.0,3.0,74,0.00,,---,0.00,VWS V14.01,2013-04-24 09:32:00,
2013-04-24 05:33:00,63.1,54.7,29.98,West,275,0.0,3.0,74,0.00,,---,0.00,VWS V14.01,2013-04-24 09:33:00,
2013-04-24 05:34:00,62.9,54.9,29.98,West,275,0.0,3.0,75,0.00,,---,0.00,VWS V14.01,2013-04-24 09:34:00,
2013-04-24 05:35:00,62.7,54.7,29.98,West,275,0.0,3.0,75,0.00,,---,0.00,VWS V14.01,2013-04-24 09:35:00,
2013-04-24 05:36:00,62.7,54.7,29.98,WNW,300,2.0,3.0,75,0.00,,---,0.00,VWS V14.01,2013-04-24 09:36:00,
2013-04-24 05:37:00,62.4,54.8,29.98,WNW,300,0.0,3.0,76,0.00,,---,0.00,VWS V14.01,2013-04-24 09:37:00,
2013-04-24 05:38:00,62.4,54.8,29.98,WNW,300,0.0,3.0,76,0.00,,---,0.00,VWS V14.01,2013-04-24 09:38:00,
2013-04-24 05:39:00,62.3,55.0,29.98,WNW,300,0.0,3.0,77,0.00,,---,0.00,VWS V14.01,2013-04-24 09:39:00,
2013-04-24 05:40:00,62.3,55.0,29.98,WNW,300,0.0,3.0,77,0.00,,---,0.00,VWS V14.01,2013-04-24 09:40:00,
2013-04-24 05:41:00,62.1,54.8,29.98,WNW,300,0.0,0.0,77,0.00,,---,0.00,VWS V14.01,2013-04-24 09:41:00,
2013-04-24 05:42:00,62.0,55.1,29.98,WNW,300,0.0,0.0,78,0.00,,---,0.00,VWS V14.01,2013-04-24 09:42:00,
2013-04-24 05:43:00,62.0,55.1,29.98,WNW,300,0.0,0.0,78,0.00,,---,0.00,VWS V14.01,2013-04-24 09:43:00,
2013-04-24 05:44:00,62.0,55.4,29.98,WNW,299,0.0,2.0,79,0.00,,---,0.00,VWS V14.01,2013-04-24 09:44:00,
2013-04-24 05:45:00,61.8,55.2,29.99,WNW,299,0.0,2.0,79,0.00,,---,0.00,VWS V14.01,2013-04-24 09:45:00,
2013-04-24 05:46:00,61.8,55.2,29.99,WNW,299,0.0,2.0,79,0.00,,---,0.00,VWS V14.01,2013-04-24 09:46:00,
2013-04-24 05:47:00,61.6,55.4,29.99,WNW,299,0.0,2.0,80,0.00,,---,0.00,VWS V14.01,2013-04-24 09:47:00,
2013-04-24 05:48:00,61.6,55.4,29.99,WNW,299,3.0,3.0,80,0.00,,---,0.00,VWS V14.01,2013-04-24 09:48:00,
2013-04-24 05:49:00,61.5,55.3,29.99,WNW,299,0.0,3.0,80,0.00,,---,0.00,VWS V14.01,2013-04-24 09:49:00,
2013-04-24 05:50:00,61.5,55.3,29.99,WNW,299,0.0,3.0,80,0.00,,---,0.00,VWS V14.01,2013-04-24 09:50:00,
2013-04-24 05:51:00,61.3,55.1,29.99,WNW,299,0.0,0.0,80,0.00,,---,0.00,VWS V14.01,2013-04-24 09:51:00,
2013-04-24 05:52:00,61.3,55.1,29.99,WNW,299,0.0,0.0,80,0.00,,---,0.00,VWS V14.01,2013-04-24 09:52:00,
2013-04-24 05:53:00,61.3,55.1,29.99,WNW,299,0.0,0.0,80,0.00,,---,0.00,VWS V14.01,2013-04-24 09:53:00,
2013-04-24 05:54:00,61.2,55.3,29.99,WNW,299,0.0,0.0,81,0.00,,---,0.00,VWS V14.01,2013-04-24 09:54:00,
2013-04-24 05:55:00,61.2,55.3,29.99,WNW,299,0.0,0.0,81,0.00,,---,0.00,VWS V14.01,2013-04-24 09:55:00,
2013-04-24 05:56:00,61.2,55.3,29.99,WNW,299,0.0,0.0,81,0.00,,---,0.00,VWS V14.01,2013-04-24 09:56:00,
2013-04-24 05:57:00,61.0,55.1,29.99,WNW,299,0.0,0.0,81,0.00,,---,0.00,VWS V14.01,2013-04-24 09:57:00,
2013-04-24 05:58:00,61.0,55.5,29.99,WNW,299,0.0,0.0,82,0.00,,---,0.00,VWS V14.01,2013-04-24 09:58:00,
2013-04-24 05:59:00,61.0,55.5,29.99,WNW,299,0.0,0.0,82,0.00,,---,0.00,VWS V14.01,2013-04-24 09:59:00,
2013-04-24 06:00:00,61.0,55.5,29.98,WNW,299,0.0,0.0,82,0.00,,---,0.00,VWS V14.01,2013-04-24 10:00:00,
2013-04-24 06:01:00,61.0,55.8,29.98,WNW,299,0.0,0.0,83,0.00,,---,0.00,VWS V14.01,2013-04-24 10:01:00,
2013-04-24 06:02:00,60.9,55.7,29.98,WNW,299,0.0,0.0,83,0.00,,---,0.00,VWS V14.01,2013-04-24 10:02:00,
2013-04-24 06:03:00,60.9,55.7,29.98,NW,317,7.0,7.0,83,0.00,,---,0.00,VWS V14.01,2013-04-24 10:03:00,
2013-04-24 06:04:00,60.9,55.7,29.98,WNW,282,0.0,7.0,83,0.00,,---,0.00,VWS V14.01,2013-04-24 10:04:00,
2013-04-24 06:05:00,60.7,55.5,29.98,WNW,285,1.0,7.0,83,0.00,,---,0.00,VWS V14.01,2013-04-24 10:05:00,
2013-04-24 06:06:00,60.7,55.5,29.98,WSW,247,4.0,7.0,83,0.00,,---,0.00,VWS V14.01,2013-04-24 10:06:00,
2013-04-24 06:07:00,60.5,55.3,29.98,WSW,255,0.0,7.0,83,0.00,,---,0.00,VWS V14.01,2013-04-24 10:07:00,
2013-04-24 06:08:00,60.5,55.3,29.98,WNW,282,0.0,7.0,83,0.00,,---,0.00,VWS V14.01,2013-04-24 10:08:00,
2013-04-24 06:09:00,60.5,55.0,29.98,WNW,286,2.0,7.0,82,0.00,,---,0.00,VWS V14.01,2013-04-24 10:09:00,
2013-04-24 06:10:00,60.4,54.9,29.98,WNW,300,0.0,7.0,82,0.00,,---,0.00,VWS V14.01,2013-04-24 10:10:00,
2013-04-24 06:11:00,60.4,54.9,29.98,West,274,0.0,6.0,82,0.00,,---,0.00,VWS V14.01,2013-04-24 10:11:00,
2013-04-24 06:12:00,60.2,54.7,29.98,West,272,0.0,6.0,82,0.00,,---,0.00,VWS V14.01,2013-04-24 10:12:00,
2013-04-24 06:13:00,60.2,54.7,29.98,West,272,0.0,6.0,82,0.00,,---,0.00,VWS V14.01,2013-04-24 10:13:00,
2013-04-24 06:14:00,60.2,54.7,29.98,WNW,282,0.0,6.0,82,0.00,,---,0.00,VWS V14.01,2013-04-24 10:14:00,
2013-04-24 06:15:00,60.2,54.7,29.99,WNW,282,0.0,6.0,82,0.00,,---,0.00,VWS V14.01,2013-04-24 10:15:00,
2013-04-24 06:16:00,60.2,54.7,29.99,WNW,285,0.0,6.0,82,0.00,,---,0.00,VWS V14.01,2013-04-24 10:16:00,
2013-04-24 06:17:00,60.2,54.4,29.99,WNW,285,2.0,6.0,81,0.00,,---,0.00,VWS V14.01,2013-04-24 10:17:00,
2013-04-24 06:18:00,60.2,54.4,29.99,WNW,282,0.0,6.0,81,0.00,,---,0.00,VWS V14.01,2013-04-24 10:18:00,
2013-04-24 06:19:00,60.2,54.4,29.99,WNW,282,0.0,6.0,81,0.00,,---,0.00,VWS V14.01,2013-04-24 10:19:00,
2013-04-24 06:20:00,60.2,54.4,29.99,WNW,282,0.0,6.0,81,0.00,,---,0.00,VWS V14.01,2013-04-24 10:20:00,
2013-04-24 06:21:00,60.2,54.4,29.99,WNW,282,1.0,1.0,81,0.00,,---,0.00,VWS V14.01,2013-04-24 10:21:00,
2013-04-24 06:22:00,60.2,54.4,29.99,WNW,282,1.0,1.0,81,0.00,,---,0.00,VWS V14.01,2013-04-24 10:22:00,
2013-04-24 06:23:00,60.2,54.4,29.99,NW,310,5.0,5.0,81,0.00,,---,0.00,VWS V14.01,2013-04-24 10:23:00,
2013-04-24 06:24:00,60.2,54.4,29.99,NW,310,0.0,5.0,81,0.00,,---,0.00,VWS V14.01,2013-04-24 10:24:00,
2013-04-24 06:25:00,60.2,54.4,29.99,West,266,0.0,5.0,81,0.00,,---,0.00,VWS V14.01,2013-04-24 10:25:00,
2013-04-24 06:26:00,60.2,54.4,29.99,West,266,0.0,5.0,81,0.00,,---,0.00,VWS V14.01,2013-04-24 10:26:00,
2013-04-24 06:27:00,60.2,54.4,29.99,WNW,299,6.0,6.0,81,0.00,,---,0.00,VWS V14.01,2013-04-24 10:27:00,
2013-04-24 06:28:00,60.2,54.4,29.99,NNW,340,6.0,6.0,81,0.00,,---,0.00,VWS V14.01,2013-04-24 10:28:00,
2013-04-24 06:29:00,60.2,54.0,29.99,WNW,300,0.0,6.0,80,0.00,,---,0.00,VWS V14.01,2013-04-24 10:29:00,
2013-04-24 06:30:00,60.2,54.0,29.98,WNW,282,6.0,6.0,80,0.00,,---,0.00,VWS V14.01,2013-04-24 10:30:00,
2013-04-24 06:31:00,60.2,54.0,29.98,West,275,0.0,6.0,80,0.00,,---,0.00,VWS V14.01,2013-04-24 10:31:00,
2013-04-24 06:32:00,60.2,54.0,29.98,WNW,288,1.0,6.0,80,0.00,,---,0.00,VWS V14.01,2013-04-24 10:32:00,
2013-04-24 06:33:00,60.2,54.0,29.98,WNW,288,0.0,6.0,80,0.00,,---,0.00,VWS V14.01,2013-04-24 10:33:00,
2013-04-24 06:34:00,60.2,54.0,29.98,WNW,288,0.0,6.0,80,0.00,,---,0.00,VWS V14.01,2013-04-24 10:34:00,
2013-04-24 06:35:00,60.4,54.2,29.98,WNW,296,0.0,6.0,80,0.00,,---,0.00,VWS V14.01,2013-04-24 10:35:00,
2013-04-24 06:36:00,60.4,54.2,29.98,WNW,295,0.0,6.0,80,0.00,,---,0.00,VWS V14.01,2013-04-24 10:36:00,
2013-04-24 06:37:00,60.4,53.9,29.98,WNW,295,0.0,6.0,79,0.00,,---,0.00,VWS V14.01,2013-04-24 10:37:00,
2013-04-24 06:38:00,60.4,53.9,29.98,West,269,0.0,6.0,79,0.00,,---,0.00,VWS V14.01,2013-04-24 10:38:00,
2013-04-24 06:39:00,60.4,53.9,29.98,West,281,1.0,6.0,79,0.00,,---,0.00,VWS V14.01,2013-04-24 10:39:00,
2013-04-24 06:40:00,60.4,53.9,29.98,West,281,0.0,6.0,79,0.00,,---,0.00,VWS V14.01,2013-04-24 10:40:00,
2013-04-24 06:41:00,60.4,53.9,29.98,WNW,290,3.0,3.0,79,0.00,,---,0.00,VWS V14.01,2013-04-24 10:41:00,
2013-04-24 06:42:00,60.4,54.2,29.98,WSW,257,0.0,3.0,80,0.00,,---,0.00,VWS V14.01,2013-04-24 10:42:00,
2013-04-24 06:43:00,60.4,54.2,29.98,West,268,0.0,3.0,80,0.00,,---,0.00,VWS V14.01,2013-04-24 10:43:00,
2013-04-24 06:44:00,60.4,54.2,29.98,West,268,0.0,3.0,80,0.00,,---,0.00,VWS V14.01,2013-04-24 10:44:00,
2013-04-24 06:45:00,60.4,54.2,29.99,WNW,285,3.0,3.0,80,0.00,,---,0.00,VWS V14.01,2013-04-24 10:45:00,
2013-04-24 06:46:00,60.4,54.2,29.99,WNW,292,0.0,6.0,80,0.00,,---,0.00,VWS V14.01,2013-04-24 10:46:00,
2013-04-24 06:47:00,60.4,54.2,29.99,NNW,327,4.0,6.0,80,0.00,,---,0.00,VWS V14.01,2013-04-24 10:47:00,
2013-04-24 06:48:00,60.4,54.2,29.99,NW,319,0.0,6.0,80,0.00,,---,0.00,VWS V14.01,2013-04-24 10:48:00,
2013-04-24 06:49:00,60.4,54.2,29.99,WNW,299,7.0,7.0,80,0.00,,---,0.00,VWS V14.01,2013-04-24 10:49:00,
2013-04-24 06:50:00,60.4,54.2,29.99,WNW,299,0.0,7.0,80,0.00,,---,0.00,VWS V14.01,2013-04-24 10:50:00,
2013-04-24 06:51:00,60.4,54.2,29.99,NW,306,2.0,2.0,80,0.00,,---,0.00,VWS V14.01,2013-04-24 10:51:00,
2013-04-24 06:52:00,60.4,54.2,29.99,WNW,302,3.0,4.0,80,0.00,,---,0.00,VWS V14.01,2013-04-24 10:52:00,
2013-04-24 06:53:00,60.4,54.2,29.99,WNW,289,0.0,4.0,80,0.00,,---,0.00,VWS V14.01,2013-04-24 10:53:00,
2013-04-24 06:54:00,60.4,54.2,29.99,WNW,298,0.0,5.0,80,0.00,,---,0.00,VWS V14.01,2013-04-24 10:54:00,
2013-04-24 06:55:00,60.2,54.0,29.99,WNW,293,0.0,5.0,80,0.00,,---,0.00,VWS V14.01,2013-04-24 10:55:00,
2013-04-24 06:56:00,60.2,54.0,29.99,WNW,298,2.0,5.0,80,0.00,,---,0.00,VWS V14.01,2013-04-24 10:56:00,
2013-04-24 06:57:00,60.2,54.0,29.99,WNW,298,0.0,5.0,80,0.00,,---,0.00,VWS V14.01,2013-04-24 10:57:00,
2013-04-24 06:58:00,60.2,54.0,29.99,WNW,298,2.0,5.0,80,0.00,,---,0.00,VWS V14.01,2013-04-24 10:58:00,
2013-04-24 06:59:00,60.2,54.0,29.99,WNW,299,3.0,5.0,80,0.00,,---,0.00,VWS V14.01,2013-04-24 10:59:00,
2013-04-24 07:00:00,60.2,54.0,29.99,WNW,302,0.0,5.0,80,0.00,,---,0.00,VWS V14.01,2013-04-24 11:00:00,
2013-04-24 07:01:00,60.2,54.0,29.99,WNW,302,0.0,0.0,80,0.00,,---,0.00,VWS V14.01,2013-04-24 11:01:00,
2013-04-24 07:02:00,60.2,54.0,29.99,WNW,300,1.0,1.0,80,0.00,,---,0.00,VWS V14.01,2013-04-24 11:02:00,
2013-04-24 07:03:00,60.2,54.0,29.99,WNW,300,1.0,1.0,80,0.00,,---,0.00,VWS V14.01,2013-04-24 11:03:00,
2013-04-24 07:04:00,60.2,54.0,29.99,West,278,2.0,3.0,80,0.00,,---,0.00,VWS V14.01,2013-04-24 11:04:00,
2013-04-24 07:05:00,60.2,54.0,29.99,West,278,0.0,3.0,80,0.00,,---,0.00,VWS V14.01,2013-04-24 11:05:00,
2013-04-24 07:06:00,60.2,54.0,29.99,WNW,282,1.0,3.0,80,0.00,,---,0.00,VWS V14.01,2013-04-24 11:06:00,
2013-04-24 07:07:00,60.2,54.0,29.99,WNW,290,0.0,3.0,80,0.00,,---,0.00,VWS V14.01,2013-04-24 11:07:00,
2013-04-24 07:08:00,60.2,54.0,29.99,WNW,295,0.0,3.0,80,0.00,,---,0.00,VWS V14.01,2013-04-24 11:08:00,
2013-04-24 07:09:00,60.2,54.0,29.99,WNW,295,0.0,3.0,80,0.00,,---,0.00,VWS V14.01,2013-04-24 11:09:00,
2013-04-24 07:10:00,60.1,53.9,29.99,WNW,285,5.0,5.0,80,0.00,,---,0.00,VWS V14.01,2013-04-24 11:10:00,
2013-04-24 07:11:00,60.1,53.9,29.99,WNW,285,5.0,5.0,80,0.00,,---,0.00,VWS V14.01,2013-04-24 11:11:00,
2013-04-24 07:12:00,60.1,53.9,29.99,WNW,290,0.0,5.0,80,0.00,,---,0.00,VWS V14.01,2013-04-24 11:12:00,
2013-04-24 07:13:00,60.1,53.9,29.99,WNW,282,0.0,5.0,80,0.00,,---,0.00,VWS V14.01,2013-04-24 11:13:00,
2013-04-24 07:14:00,60.1,53.9,29.99,WNW,282,0.0,5.0,80,0.00,,---,0.00,VWS V14.01,2013-04-24 11:14:00,
2013-04-24 07:15:00,60.1,53.9,29.99,WNW,282,0.0,5.0,80,0.00,,---,0.00,VWS V14.01,2013-04-24 11:15:00,
2013-04-24 07:16:00,60.1,54.3,29.99,WNW,282,0.0,5.0,81,0.00,,---,0.00,VWS V14.01,2013-04-24 11:16:00,
2013-04-24 07:17:00,60.1,54.3,29.99,WNW,282,3.0,5.0,81,0.00,,---,0.00,VWS V14.01,2013-04-24 11:17:00,
2013-04-24 07:18:00,60.1,54.3,29.99,WNW,282,2.0,5.0,81,0.00,,---,0.00,VWS V14.01,2013-04-24 11:18:00,
2013-04-24 07:19:00,60.1,54.3,29.99,WNW,282,0.0,5.0,81,0.00,,---,0.00,VWS V14.01,2013-04-24 11:19:00,
2013-04-24 07:20:00,60.1,54.3,29.99,WNW,282,0.0,5.0,81,0.00,,---,0.00,VWS V14.01,2013-04-24 11:20:00,
2013-04-24 07:21:00,60.1,54.3,29.99,WNW,282,0.0,2.0,81,0.00,,---,0.00,VWS V14.01,2013-04-24 11:21:00,
2013-04-24 07:22:00,60.1,54.3,29.99,WNW,282,0.0,2.0,81,0.00,,---,0.00,VWS V14.01,2013-04-24 11:22:00,
2013-04-24 07:23:00,60.1,54.3,29.99,WNW,293,1.0,2.0,81,0.00,,---,0.00,VWS V14.01,2013-04-24 11:23:00,
2013-04-24 07:24:00,60.1,54.3,29.99,WNW,295,0.0,2.0,81,0.00,,---,0.00,VWS V14.01,2013-04-24 11:24:00,
2013-04-24 07:25:00,60.1,54.3,29.99,WNW,295,0.0,2.0,81,0.00,,---,0.00,VWS V14.01,2013-04-24 11:25:00,
2013-04-24 07:26:00,59.9,54.1,29.99,WNW,295,0.0,2.0,81,0.00,,---,0.00,VWS V14.01,2013-04-24 11:26:00,
2013-04-24 07:27:00,59.9,54.1,29.99,WNW,295,0.0,2.0,81,0.00,,---,0.00,VWS V14.01,2013-04-24 11:27:00,
2013-04-24 07:28:00,59.9,54.1,29.99,WNW,295,0.0,2.0,81,0.00,,---,0.00,VWS V14.01,2013-04-24 11:28:00,
2013-04-24 07:29:00,59.9,54.1,29.99,WNW,295,0.0,2.0,81,0.00,,---,0.00,VWS V14.01,2013-04-24 11:29:00,
2013-04-24 07:30:00,59.9,54.1,29.99,WNW,295,0.0,2.0,81,0.00,,---,0.00,VWS V14.01,2013-04-24 11:30:00,
2013-04-24 07:31:00,59.9,54.1,29.99,WNW,295,0.0,0.0,81,0.00,,---,0.00,VWS V14.01,2013-04-24 11:31:00,
2013-04-24 07:32:00,59.9,54.1,29.99,WNW,295,0.0,0.0,81,0.00,,---,0.00,VWS V14.01,2013-04-24 11:32:00,
2013-04-24 07:33:00,59.9,54.1,29.99,WNW,295,0.0,0.0,81,0.00,,---,0.00,VWS V14.01,2013-04-24 11:33:00,
2013-04-24 07:34:00,59.9,54.1,29.99,WNW,295,0.0,0.0,81,0.00,,---,0.00,VWS V14.01,2013-04-24 11:34:00,
2013-04-24 07:35:00,59.9,54.1,29.99,WNW,293,0.0,0.0,81,0.00,,---,0.00,VWS V14.01,2013-04-24 11:35:00,
2013-04-24 07:36:00,59.9,54.1,29.99,WNW,293,0.0,0.0,81,0.00,,---,0.00,VWS V14.01,2013-04-24 11:36:00,
2013-04-24 07:37:00,59.9,54.1,29.99,WNW,293,0.0,0.0,81,0.00,,---,0.00,VWS V14.01,2013-04-24 11:37:00,
2013-04-24 07:38:00,59.9,54.1,29.99,WNW,293,0.0,0.0,81,0.00,,---,0.00,VWS V14.01,2013-04-24 11:38:00,
2013-04-24 07:39:00,59.9,54.1,29.99,WNW,293,0.0,0.0,81,0.00,,---,0.00,VWS V14.01,2013-04-24 11:39:00,
2013-04-24 07:40:00,59.9,54.1,29.99,WNW,293,0.0,0.0,81,0.00,,---,0.00,VWS V14.01,2013-04-24 11:40:00,
2013-04-24 07:41:00,59.9,54.1,29.99,WNW,293,0.0,0.0,81,0.00,,---,0.00,VWS V14.01,2013-04-24 11:41:00,
2013-04-24 07:42:00,59.9,54.1,29.99,WNW,293,0.0,0.0,81,0.00,,---,0.00,VWS V14.01,2013-04-24 11:42:00,
2013-04-24 07:43:00,59.9,54.1,29.99,WNW,293,0.0,0.0,81,0.00,,---,0.00,VWS V14.01,2013-04-24 11:43:00,
2013-04-24 07:44:00,59.9,54.1,29.99,WNW,293,0.0,0.0,81,0.00,,---,0.00,VWS V14.01,2013-04-24 11:44:00,
2013-04-24 07:45:00,59.9,54.1,29.98,WNW,293,0.0,0.0,81,0.00,,---,0.00,VWS V14.01,2013-04-24 11:45:00,
2013-04-24 07:46:00,59.9,54.1,29.98,WNW,293,0.0,0.0,81,0.00,,---,0.00,VWS V14.01,2013-04-24 11:46:00,
2013-04-24 07:47:00,59.9,54.1,29.98,WNW,293,0.0,0.0,81,0.00,,---,0.00,VWS V14.01,2013-04-24 11:47:00,
2013-04-24 07:48:00,59.9,54.1,29.98,WNW,293,0.0,0.0,81,0.00,,---,0.00,VWS V14.01,2013-04-24 11:48:00,
2013-04-24 07:49:00,59.9,54.1,29.98,WNW,293,0.0,0.0,81,0.00,,---,0.00,VWS V14.01,2013-04-24 11:49:00,
2013-04-24 07:50:00,59.9,54.1,29.98,WNW,293,0.0,0.0,81,0.00,,---,0.00,VWS V14.01,2013-04-24 11:50:00,
2013-04-24 07:51:00,59.8,54.0,29.98,WNW,293,0.0,0.0,81,0.00,,---,0.00,VWS V14.01,2013-04-24 11:51:00,
2013-04-24 07:52:00,59.8,54.0,29.98,WNW,293,0.0,0.0,81,0.00,,---,0.00,VWS V14.01,2013-04-24 11:52:00,
2013-04-24 07:53:00,59.8,54.0,29.98,WNW,293,0.0,1.0,81,0.00,,---,0.00,VWS V14.01,2013-04-24 11:53:00,
2013-04-24 07:54:00,59.8,54.0,29.98,WNW,293,0.0,2.0,81,0.00,,---,0.00,VWS V14.01,2013-04-24 11:54:00,
2013-04-24 07:55:00,59.8,54.0,29.98,WNW,293,0.0,2.0,81,0.00,,---,0.00,VWS V14.01,2013-04-24 11:55:00,
2013-04-24 07:56:00,59.8,54.0,29.98,WNW,293,0.0,2.0,81,0.00,,---,0.00,VWS V14.01,2013-04-24 11:56:00,
2013-04-24 07:57:00,59.8,54.0,29.98,WNW,293,0.0,2.0,81,0.00,,---,0.00,VWS V14.01,2013-04-24 11:57:00,
2013-04-24 07:58:00,59.8,54.0,29.98,WNW,293,0.0,2.0,81,0.00,,---,0.00,VWS V14.01,2013-04-24 11:58:00,
2013-04-24 07:59:00,59.6,53.8,29.98,WNW,293,0.0,2.0,81,0.00,,---,0.00,VWS V14.01,2013-04-24 11:59:00,
2013-04-24 08:00:00,59.6,53.8,29.99,WNW,293,0.0,2.0,81,0.00,,---,0.00,VWS V14.01,2013-04-24 12:00:00,
2013-04-24 08:01:00,59.6,53.8,29.99,WNW,293,0.0,0.0,81,0.00,,---,0.00,VWS V14.01,2013-04-24 12:01:00,
2013-04-24 08:02:00,59.6,53.8,29.99,WNW,295,0.0,0.0,81,0.00,,---,0.00,VWS V14.01,2013-04-24 12:02:00,
2013-04-24 08:03:00,59.6,53.8,29.99,WNW,295,0.0,0.0,81,0.00,,---,0.00,VWS V14.01,2013-04-24 12:03:00,
2013-04-24 08:04:00,59.6,53.8,29.99,WNW,295,0.0,0.0,81,0.00,,---,0.00,VWS V14.01,2013-04-24 12:04:00,
2013-04-24 08:05:00,59.6,53.8,29.99,WNW,295,0.0,0.0,81,0.00,,---,0.00,VWS V14.01,2013-04-24 12:05:00,
2013-04-24 08:06:00,59.6,53.8,29.99,WNW,295,0.0,0.0,81,0.00,,---,0.00,VWS V14.01,2013-04-24 12:06:00,
2013-04-24 08:07:00,59.5,53.7,29.99,WNW,295,0.0,0.0,81,0.00,,---,0.00,VWS V14.01,2013-04-24 12:07:00,
2013-04-24 08:08:00,59.5,53.7,29.99,WNW,295,0.0,0.0,81,0.00,,---,0.00,VWS V14.01,2013-04-24 12:08:00,
2013-04-24 08:09:00,59.5,53.7,29.99,WNW,295,0.0,0.0,81,0.00,,---,0.00,VWS V14.01,2013-04-24 12:09:00,
2013-04-24 08:10:00,59.5,53.7,29.99,WNW,295,0.0,0.0,81,0.00,,---,0.00,VWS V14.01,2013-04-24 12:10:00,
2013-04-24 08:11:00,59.5,53.7,29.99,WNW,295,0.0,0.0,81,0.00,,---,0.00,VWS V14.01,2013-04-24 12:11:00,
2013-04-24 08:12:00,59.5,54.0,29.99,WNW,295,0.0,0.0,82,0.00,,---,0.00,VWS V14.01,2013-04-24 12:12:00,
2013-04-24 08:13:00,59.3,53.8,29.99,WNW,295,0.0,0.0,82,0.00,,---,0.00,VWS V14.01,2013-04-24 12:13:00,
2013-04-24 08:14:00,59.3,53.8,29.99,WNW,295,0.0,0.0,82,0.00,,---,0.00,VWS V14.01,2013-04-24 12:14:00,
2013-04-24 08:15:00,59.3,53.8,29.97,WNW,295,0.0,0.0,82,0.00,,---,0.00,VWS V14.01,2013-04-24 12:15:00,
2013-04-24 08:16:00,59.3,53.8,29.97,WNW,293,0.0,0.0,82,0.00,,---,0.00,VWS V14.01,2013-04-24 12:16:00,
2013-04-24 08:17:00,59.3,53.8,29.97,WNW,293,0.0,0.0,82,0.00,,---,0.00,VWS V14.01,2013-04-24 12:17:00,
2013-04-24 08:18:00,59.3,53.8,29.97,WNW,293,0.0,0.0,82,0.00,,---,0.00,VWS V14.01,2013-04-24 12:18:00,
2013-04-24 08:19:00,59.3,53.8,29.97,WNW,293,0.0,0.0,82,0.00,,---,0.00,VWS V14.01,2013-04-24 12:19:00,
2013-04-24 08:20:00,59.2,53.7,29.97,WNW,293,0.0,0.0,82,0.00,,---,0.00,VWS V14.01,2013-04-24 12:20:00,
2013-04-24 08:21:00,59.2,53.7,29.97,WNW,293,0.0,0.0,82,0.00,,---,0.00,VWS V14.01,2013-04-24 12:21:00,
2013-04-24 08:22:00,59.2,53.7,29.97,WNW,293,0.0,0.0,82,0.00,,---,0.00,VWS V14.01,2013-04-24 12:22:00,
2013-04-24 08:23:00,59.2,53.7,29.97,WNW,293,0.0,0.0,82,0.00,,---,0.00,VWS V14.01,2013-04-24 12:23:00,
2013-04-24 08:24:00,59.2,53.7,29.97,WNW,293,0.0,0.0,82,0.00,,---,0.00,VWS V14.01,2013-04-24 12:24:00,
2013-04-24 08:25:00,59.2,53.7,29.97,WNW,293,0.0,0.0,82,0.00,,---,0.00,VWS V14.01,2013-04-24 12:25:00,
2013-04-24 08:26:00,59.0,53.5,29.97,WNW,293,0.0,0.0,82,0.00,,---,0.00,VWS V14.01,2013-04-24 12:26:00,
2013-04-24 08:27:00,59.0,53.5,29.97,WNW,293,1.0,1.0,82,0.00,,---,0.00,VWS V14.01,2013-04-24 12:27:00,
2013-04-24 08:28:00,59.0,53.5,29.97,WNW,293,0.0,1.0,82,0.00,,---,0.00,VWS V14.01,2013-04-24 12:28:00,
2013-04-24 08:29:00,59.0,53.8,29.97,WNW,293,0.0,1.0,83,0.00,,---,0.00,VWS V14.01,2013-04-24 12:29:00,
2013-04-24 08:30:00,59.0,53.8,29.97,WNW,293,0.0,1.0,83,0.00,,---,0.00,VWS V14.01,2013-04-24 12:30:00,
2013-04-24 08:31:00,58.9,53.8,29.97,WNW,293,2.0,2.0,83,0.00,,---,0.00,VWS V14.01,2013-04-24 12:31:00,
2013-04-24 08:32:00,58.9,53.8,29.97,WNW,293,0.0,2.0,83,0.00,,---,0.00,VWS V14.01,2013-04-24 12:32:00,
2013-04-24 08:33:00,58.9,53.8,29.97,WNW,293,0.0,2.0,83,0.00,,---,0.00,VWS V14.01,2013-04-24 12:33:00,
2013-04-24 08:34:00,58.9,53.8,29.97,WNW,293,0.0,2.0,83,0.00,,---,0.00,VWS V14.01,2013-04-24 12:34:00,
2013-04-24 08:35:00,58.9,53.8,29.97,WNW,293,0.0,2.0,83,0.00,,---,0.00,VWS V14.01,2013-04-24 12:35:00,
2013-04-24 08:36:00,58.9,53.8,29.97,WNW,293,0.0,2.0,83,0.00,,---,0.00,VWS V14.01,2013-04-24 12:36:00,
2013-04-24 08:37:00,58.9,53.8,29.97,WNW,293,0.0,2.0,83,0.00,,---,0.00,VWS V14.01,2013-04-24 12:37:00,
2013-04-24 08:38:00,58.7,53.6,29.97,WNW,293,0.0,2.0,83,0.00,,---,0.00,VWS V14.01,2013-04-24 12:38:00,
2013-04-24 08:39:00,58.7,53.6,29.97,WNW,293,0.0,2.0,83,0.00,,---,0.00,VWS V14.01,2013-04-24 12:39:00,
2013-04-24 08:40:00,58.7,53.6,29.97,WNW,293,0.0,2.0,83,0.00,,---,0.00,VWS V14.01,2013-04-24 12:40:00,
2013-04-24 08:41:00,58.7,53.6,29.97,WNW,293,0.0,0.0,83,0.00,,---,0.00,VWS V14.01,2013-04-24 12:41:00,
2013-04-24 08:42:00,58.7,53.6,29.97,WNW,293,0.0,0.0,83,0.00,,---,0.00,VWS V14.01,2013-04-24 12:42:00,
2013-04-24 08:43:00,58.7,53.9,29.97,WNW,293,0.0,0.0,84,0.00,,---,0.00,VWS V14.01,2013-04-24 12:43:00,
2013-04-24 08:44:00,58.7,53.9,29.97,WNW,293,0.0,0.0,84,0.00,,---,0.00,VWS V14.01,2013-04-24 12:44:00,
2013-04-24 08:45:00,58.6,53.8,29.97,WNW,293,0.0,0.0,84,0.00,,---,0.00,VWS V14.01,2013-04-24 12:45:00,
2013-04-24 08:46:00,58.6,53.8,29.97,WNW,293,0.0,0.0,84,0.00,,---,0.00,VWS V14.01,2013-04-24 12:46:00,
2013-04-24 08:47:00,58.6,53.8,29.97,WNW,293,0.0,0.0,84,0.00,,---,0.00,VWS V14.01,2013-04-24 12:47:00,
2013-04-24 08:48:00,58.6,53.8,29.97,WNW,293,0.0,0.0,84,0.00,,---,0.00,VWS V14.01,2013-04-24 12:48:00,
2013-04-24 08:49:00,58.6,53.8,29.97,WNW,293,0.0,0.0,84,0.00,,---,0.00,VWS V14.01,2013-04-24 12:49:00,
2013-04-24 08:50:00,58.6,53.8,29.97,WNW,293,0.0,0.0,84,0.00,,---,0.00,VWS V14.01,2013-04-24 12:50:00,
2013-04-24 08:51:00,58.6,53.8,29.97,WNW,293,0.0,0.0,84,0.00,,---,0.00,VWS V14.01,2013-04-24 12:51:00,
2013-04-24 08:52:00,58.6,53.8,29.97,WNW,293,0.0,0.0,84,0.00,,---,0.00,VWS V14.01,2013-04-24 12:52:00,
2013-04-24 08:53:00,58.4,53.6,29.97,WNW,293,0.0,1.0,84,0.00,,---,0.00,VWS V14.01,2013-04-24 12:53:00,
2013-04-24 08:54:00,58.4,53.9,29.97,WNW,293,0.0,1.0,85,0.00,,---,0.00,VWS V14.01,2013-04-24 12:54:00,
2013-04-24 08:55:00,58.4,53.9,29.97,WNW,293,0.0,1.0,85,0.00,,---,0.00,VWS V14.01,2013-04-24 12:55:00,
2013-04-24 08:56:00,58.4,53.9,29.97,WNW,293,0.0,1.0,85,0.00,,---,0.00,VWS V14.01,2013-04-24 12:56:00,
2013-04-24 08:57:00,58.4,53.9,29.97,WNW,293,0.0,1.0,85,0.00,,---,0.00,VWS V14.01,2013-04-24 12:57:00,
2013-04-24 08:58:00,58.4,53.9,29.97,WNW,293,0.0,1.0,85,0.00,,---,0.00,VWS V14.01,2013-04-24 12:58:00,
2013-04-24 08:59:00,58.4,53.9,29.97,WNW,293,0.0,1.0,85,0.00,,---,0.00,VWS V14.01,2013-04-24 12:59:00,
2013-04-24 09:00:00,58.4,53.9,29.98,WNW,293,0.0,1.0,85,0.00,,---,0.00,VWS V14.01,2013-04-24 13:00:00,
2013-04-24 09:01:00,58.4,53.9,29.98,WNW,293,0.0,0.0,85,0.00,,---,0.00,VWS V14.01,2013-04-24 13:01:00,
2013-04-24 09:02:00,58.4,53.9,29.98,WNW,293,0.0,0.0,85,0.00,,---,0.00,VWS V14.01,2013-04-24 13:02:00,
2013-04-24 09:03:00,58.4,53.9,29.98,WNW,293,0.0,0.0,85,0.00,,---,0.00,VWS V14.01,2013-04-24 13:03:00,
2013-04-24 09:04:00,58.4,53.9,29.98,WNW,293,0.0,0.0,85,0.00,,---,0.00,VWS V14.01,2013-04-24 13:04:00,
2013-04-24 09:05:00,58.4,53.9,29.98,WNW,293,0.0,0.0,85,0.00,,---,0.00,VWS V14.01,2013-04-24 13:05:00,
2013-04-24 09:06:00,58.4,53.9,29.98,WNW,293,0.0,2.0,85,0.00,,---,0.00,VWS V14.01,2013-04-24 13:06:00,
2013-04-24 09:07:00,58.4,53.9,29.98,WNW,292,0.0,2.0,85,0.00,,---,0.00,VWS V14.01,2013-04-24 13:07:00,
2013-04-24 09:08:00,58.4,53.9,29.98,WNW,292,0.0,2.0,85,0.00,,---,0.00,VWS V14.01,2013-04-24 13:08:00,
2013-04-24 09:09:00,58.4,53.9,29.98,WNW,292,0.0,2.0,85,0.00,,---,0.00,VWS V14.01,2013-04-24 13:09:00,
2013-04-24 09:10:00,58.4,53.9,29.98,WNW,292,0.0,2.0,85,0.00,,---,0.00,VWS V14.01,2013-04-24 13:10:00,
2013-04-24 09:11:00,58.4,53.9,29.98,WNW,292,0.0,1.0,85,0.00,,---,0.00,VWS V14.01,2013-04-24 13:11:00,
2013-04-24 09:12:00,58.4,53.9,29.98,WNW,292,0.0,1.0,85,0.00,,---,0.00,VWS V14.01,2013-04-24 13:12:00,
2013-04-24 09:13:00,58.4,53.9,29.98,WNW,292,0.0,1.0,85,0.00,,---,0.00,VWS V14.01,2013-04-24 13:13:00,
2013-04-24 09:14:00,58.4,54.2,29.98,WNW,292,0.0,1.0,86,0.00,,---,0.00,VWS V14.01,2013-04-24 13:14:00,
2013-04-24 09:15:00,58.4,54.2,29.96,WNW,286,1.0,2.0,86,0.00,,---,0.00,VWS V14.01,2013-04-24 13:15:00,
2013-04-24 09:16:00,58.4,54.2,29.96,WNW,292,0.0,2.0,86,0.00,,---,0.00,VWS V14.01,2013-04-24 13:16:00,
2013-04-24 09:17:00,58.4,54.2,29.96,WNW,292,0.0,2.0,86,0.00,,---,0.00,VWS V14.01,2013-04-24 13:17:00,
2013-04-24 09:18:00,58.4,54.2,29.96,WNW,292,0.0,2.0,86,0.00,,---,0.00,VWS V14.01,2013-04-24 13:18:00,
2013-04-24 09:19:00,58.4,54.2,29.96,West,275,2.0,3.0,86,0.00,,---,0.00,VWS V14.01,2013-04-24 13:19:00,
2013-04-24 09:20:00,58.4,54.2,29.96,West,275,0.0,3.0,86,0.00,,---,0.00,VWS V14.01,2013-04-24 13:20:00,
2013-04-24 09:21:00,58.4,54.2,29.96,West,275,2.0,2.0,86,0.00,,---,0.00,VWS V14.01,2013-04-24 13:21:00,
2013-04-24 09:22:00,58.4,54.2,29.96,West,275,0.0,3.0,86,0.00,,---,0.00,VWS V14.01,2013-04-24 13:22:00,
2013-04-24 09:23:00,58.4,54.2,29.96,West,275,0.0,3.0,86,0.00,,---,0.00,VWS V14.01,2013-04-24 13:23:00,
2013-04-24 09:24:00,58.3,54.1,29.96,West,275,0.0,3.0,86,0.00,,---,0.00,VWS V14.01,2013-04-24 13:24:00,
2013-04-24 09:25:00,58.3,54.1,29.96,West,275,0.0,3.0,86,0.00,,---,0.00,VWS V14.01,2013-04-24 13:25:00,
2013-04-24 09:26:00,58.3,54.1,29.96,West,275,0.0,3.0,86,0.00,,---,0.00,VWS V14.01,2013-04-24 13:26:00,
2013-04-24 09:27:00,58.3,54.1,29.96,West,275,0.0,3.0,86,0.00,,---,0.00,VWS V14.01,2013-04-24 13:27:00,
2013-04-24 09:28:00,58.3,54.1,29.96,West,275,0.0,3.0,86,0.00,,---,0.00,VWS V14.01,2013-04-24 13:28:00,
2013-04-24 09:29:00,58.3,54.1,29.96,West,275,0.0,3.0,86,0.00,,---,0.00,VWS V14.01,2013-04-24 13:29:00,
2013-04-24 09:30:00,58.3,54.1,29.96,West,274,1.0,3.0,86,0.00,,---,0.00,VWS V14.01,2013-04-24 13:30:00,
2013-04-24 09:31:00,58.3,54.1,29.96,West,274,1.0,3.0,86,0.00,,---,0.00,VWS V14.01,2013-04-24 13:31:00,
2013-04-24 09:32:00,58.3,54.1,29.96,WNW,288,0.0,3.0,86,0.00,,---,0.00,VWS V14.01,2013-04-24 13:32:00,
2013-04-24 09:33:00,58.3,54.1,29.96,WNW,288,1.0,3.0,86,0.00,,---,0.00,VWS V14.01,2013-04-24 13:33:00,
2013-04-24 09:34:00,58.3,54.1,29.96,WNW,288,0.0,3.0,86,0.00,,---,0.00,VWS V14.01,2013-04-24 13:34:00,
2013-04-24 09:35:00,58.3,54.1,29.96,WNW,288,0.0,3.0,86,0.00,,---,0.00,VWS V14.01,2013-04-24 13:35:00,
2013-04-24 09:36:00,58.3,54.1,29.96,WNW,288,0.0,3.0,86,0.00,,---,0.00,VWS V14.01,2013-04-24 13:36:00,
2013-04-24 09:37:00,58.3,54.1,29.96,WNW,288,0.0,3.0,86,0.00,,---,0.00,VWS V14.01,2013-04-24 13:37:00,
2013-04-24 09:38:00,58.3,54.1,29.96,WNW,288,1.0,3.0,86,0.01,,---,0.01,VWS V14.01,2013-04-24 13:38:00,
2013-04-24 09:39:00,58.3,54.1,29.96,WNW,288,1.0,3.0,86,0.01,,---,0.01,VWS V14.01,2013-04-24 13:39:00,
2013-04-24 09:40:00,58.1,53.9,29.96,WNW,288,0.0,3.0,86,0.01,,---,0.01,VWS V14.01,2013-04-24 13:40:00,
2013-04-24 09:41:00,58.1,53.9,29.96,WNW,288,0.0,0.0,86,0.01,,---,0.01,VWS V14.01,2013-04-24 13:41:00,
2013-04-24 09:42:00,58.1,53.9,29.96,WNW,288,0.0,0.0,86,0.01,,---,0.01,VWS V14.01,2013-04-24 13:42:00,
2013-04-24 09:43:00,58.1,53.9,29.96,WNW,288,2.0,3.0,86,0.01,,---,0.01,VWS V14.01,2013-04-24 13:43:00,
2013-04-24 09:44:00,58.1,53.9,29.96,WNW,288,0.0,3.0,86,0.01,,---,0.01,VWS V14.01,2013-04-24 13:44:00,
2013-04-24 09:45:00,58.1,53.9,29.97,WNW,288,1.0,3.0,86,0.01,,---,0.01,VWS V14.01,2013-04-24 13:45:00,
2013-04-24 09:46:00,58.1,53.9,29.97,WNW,288,0.0,3.0,86,0.01,,---,0.01,VWS V14.01,2013-04-24 13:46:00,
2013-04-24 09:47:00,58.1,53.9,29.97,WNW,288,0.0,3.0,86,0.01,,---,0.01,VWS V14.01,2013-04-24 13:47:00,
2013-04-24 09:48:00,58.1,53.9,29.97,WNW,288,0.0,3.0,86,0.01,,---,0.01,VWS V14.01,2013-04-24 13:48:00,
2013-04-24 09:49:00,58.1,53.9,29.97,WNW,288,0.0,3.0,86,0.01,,---,0.01,VWS V14.01,2013-04-24 13:49:00,
2013-04-24 09:50:00,58.1,53.9,29.97,WNW,288,2.0,3.0,86,0.01,,---,0.01,VWS V14.01,2013-04-24 13:50:00,
2013-04-24 09:51:00,58.1,53.9,29.97,WNW,288,1.0,3.0,86,0.01,,---,0.01,VWS V14.01,2013-04-24 13:51:00,
2013-04-24 09:52:00,58.1,53.9,29.97,WNW,288,1.0,3.0,86,0.01,,---,0.01,VWS V14.01,2013-04-24 13:52:00,
2013-04-24 09:53:00,58.1,53.9,29.97,WNW,288,3.0,3.0,86,0.01,,---,0.01,VWS V14.01,2013-04-24 13:53:00,
2013-04-24 09:54:00,58.1,53.9,29.97,WNW,298,0.0,4.0,86,0.01,,---,0.01,VWS V14.01,2013-04-24 13:54:00,
2013-04-24 09:55:00,58.1,54.3,29.97,West,274,3.0,4.0,87,0.01,,---,0.01,VWS V14.01,2013-04-24 13:55:00,
2013-04-24 09:56:00,58.1,54.3,29.97,West,275,2.0,5.0,87,0.01,,---,0.01,VWS V14.01,2013-04-24 13:56:00,
2013-04-24 09:57:00,58.1,54.3,29.97,West,276,1.0,5.0,87,0.01,,---,0.01,VWS V14.01,2013-04-24 13:57:00,
2013-04-24 09:58:00,58.1,54.3,29.97,West,276,0.0,5.0,87,0.01,,---,0.01,VWS V14.01,2013-04-24 13:58:00,
2013-04-24 09:59:00,58.1,54.3,29.97,West,276,0.0,5.0,87,0.01,,---,0.01,VWS V14.01,2013-04-24 13:59:00,
2013-04-24 10:00:00,58.1,54.3,29.97,West,275,0.0,5.0,87,0.01,,---,0.01,VWS V14.01,2013-04-24 14:00:00,
2013-04-24 10:01:00,58.1,54.3,29.97,West,275,0.0,0.0,87,0.01,,---,0.01,VWS V14.01,2013-04-24 14:01:00,
2013-04-24 10:02:00,58.1,54.3,29.97,West,276,0.0,0.0,87,0.01,,---,0.01,VWS V14.01,2013-04-24 14:02:00,
2013-04-24 10:03:00,58.1,54.3,29.97,West,276,0.0,0.0,87,0.01,,---,0.01,VWS V14.01,2013-04-24 14:03:00,
2013-04-24 10:04:00,58.1,54.3,29.97,West,276,0.0,0.0,87,0.01,,---,0.01,VWS V14.01,2013-04-24 14:04:00,
2013-04-24 10:05:00,58.1,54.3,29.97,West,275,6.0,6.0,87,0.01,,---,0.01,VWS V14.01,2013-04-24 14:05:00,
2013-04-24 10:06:00,58.1,54.3,29.97,WNW,286,2.0,6.0,87,0.01,,---,0.01,VWS V14.01,2013-04-24 14:06:00,
2013-04-24 10:07:00,58.1,54.3,29.97,WNW,286,0.0,6.0,87,0.01,,---,0.01,VWS V14.01,2013-04-24 14:07:00,
2013-04-24 10:08:00,58.1,54.3,29.97,WNW,292,0.0,6.0,87,0.01,,---,0.01,VWS V14.01,2013-04-24 14:08:00,
2013-04-24 10:09:00,58.1,54.3,29.97,WNW,292,0.0,6.0,87,0.01,,---,0.01,VWS V14.01,2013-04-24 14:09:00,
2013-04-24 10:10:00,58.1,54.3,29.97,WNW,292,1.0,6.0,87,0.01,,---,0.01,VWS V14.01,2013-04-24 14:10:00,
2013-04-24 10:11:00,58.1,54.3,29.97,WNW,292,0.0,2.0,87,0.01,,---,0.01,VWS V14.01,2013-04-24 14:11:00,
2013-04-24 10:12:00,58.1,54.3,29.97,WNW,292,0.0,2.0,87,0.01,,---,0.01,VWS V14.01,2013-04-24 14:12:00,
2013-04-24 10:13:00,58.1,54.3,29.97,WNW,292,2.0,2.0,87,0.01,,---,0.01,VWS V14.01,2013-04-24 14:13:00,
2013-04-24 10:14:00,58.1,54.3,29.97,WNW,292,0.0,2.0,87,0.01,,---,0.01,VWS V14.01,2013-04-24 14:14:00,
2013-04-24 10:15:00,58.1,54.3,29.96,WNW,292,0.0,2.0,87,0.01,,---,0.01,VWS V14.01,2013-04-24 14:15:00,
2013-04-24 10:16:00,58.1,54.3,29.96,WNW,292,0.0,2.0,87,0.01,,---,0.01,VWS V14.01,2013-04-24 14:16:00,
2013-04-24 10:17:00,58.1,54.3,29.96,WNW,283,0.0,3.0,87,0.01,,---,0.01,VWS V14.01,2013-04-24 14:17:00,
2013-04-24 10:18:00,58.1,54.3,29.96,WNW,283,1.0,3.0,87,0.01,,---,0.01,VWS V14.01,2013-04-24 14:18:00,
2013-04-24 10:19:00,58.0,53.8,29.96,WNW,283,2.0,3.0,86,0.01,,---,0.01,VWS V14.01,2013-04-24 14:19:00,
2013-04-24 10:20:00,58.0,53.8,29.96,WNW,283,0.0,3.0,86,0.01,,---,0.01,VWS V14.01,2013-04-24 14:20:00,
2013-04-24 10:21:00,58.0,53.8,29.96,WNW,283,0.0,3.0,86,0.01,,---,0.01,VWS V14.01,2013-04-24 14:21:00,
2013-04-24 10:22:00,57.8,53.7,29.96,WNW,283,0.0,3.0,86,0.01,,---,0.01,VWS V14.01,2013-04-24 14:22:00,
2013-04-24 10:23:00,57.8,53.7,29.96,WNW,283,0.0,3.0,86,0.01,,---,0.01,VWS V14.01,2013-04-24 14:23:00,
2013-04-24 10:24:00,57.8,53.7,29.96,WNW,283,0.0,3.0,86,0.01,,---,0.01,VWS V14.01,2013-04-24 14:24:00,
2013-04-24 10:25:00,57.6,53.5,29.96,WNW,283,0.0,3.0,86,0.01,,---,0.01,VWS V14.01,2013-04-24 14:25:00,
2013-04-24 10:26:00,57.6,53.5,29.96,WNW,283,2.0,3.0,86,0.01,,---,0.01,VWS V14.01,2013-04-24 14:26:00,
2013-04-24 10:27:00,57.6,53.5,29.96,WNW,283,0.0,3.0,86,0.01,,---,0.01,VWS V14.01,2013-04-24 14:27:00,
2013-04-24 10:28:00,57.5,53.0,29.96,WNW,283,0.0,3.0,85,0.01,,---,0.01,VWS V14.01,2013-04-24 14:28:00,
2013-04-24 10:29:00,57.5,53.0,29.96,West,276,0.0,3.0,85,0.01,,---,0.01,VWS V14.01,2013-04-24 14:29:00,
2013-04-24 10:30:00,57.5,53.0,29.96,West,269,0.0,3.0,85,0.01,,---,0.01,VWS V14.01,2013-04-24 14:30:00,
2013-04-24 10:31:00,57.5,53.0,29.96,West,276,0.0,0.0,85,0.01,,---,0.01,VWS V14.01,2013-04-24 14:31:00,
2013-04-24 10:32:00,57.3,52.8,29.96,West,276,0.0,0.0,85,0.01,,---,0.01,VWS V14.01,2013-04-24 14:32:00,
2013-04-24 10:33:00,57.3,52.8,29.96,West,276,0.0,0.0,85,0.01,,---,0.01,VWS V14.01,2013-04-24 14:33:00,
2013-04-24 10:34:00,57.3,52.8,29.96,West,268,3.0,7.0,85,0.01,,---,0.01,VWS V14.01,2013-04-24 14:34:00,
2013-04-24 10:35:00,57.2,52.4,29.96,West,268,4.0,7.0,84,0.01,,---,0.01,VWS V14.01,2013-04-24 14:35:00,
2013-04-24 10:36:00,57.2,52.4,29.96,WSW,257,6.0,7.0,84,0.01,,---,0.01,VWS V14.01,2013-04-24 14:36:00,
2013-04-24 10:37:00,57.0,52.2,29.96,West,266,7.0,7.0,84,0.01,,---,0.01,VWS V14.01,2013-04-24 14:37:00,
2013-04-24 10:38:00,57.0,52.2,29.96,West,266,0.0,7.0,84,0.01,,---,0.01,VWS V14.01,2013-04-24 14:38:00,
2013-04-24 10:39:00,57.0,52.2,29.96,West,272,3.0,7.0,84,0.01,,---,0.01,VWS V14.01,2013-04-24 14:39:00,
2013-04-24 10:40:00,56.9,52.1,29.96,West,266,6.0,7.0,84,0.01,,---,0.01,VWS V14.01,2013-04-24 14:40:00,
2013-04-24 10:41:00,56.9,52.1,29.96,WNW,285,3.0,6.0,84,0.00,,---,0.01,VWS V14.01,2013-04-24 14:41:00,
2013-04-24 10:42:00,56.9,52.1,29.96,West,264,6.0,7.0,84,0.00,,---,0.01,VWS V14.01,2013-04-24 14:42:00,
2013-04-24 10:43:00,56.9,52.1,29.96,West,264,6.0,7.0,84,0.00,,---,0.01,VWS V14.01,2013-04-24 14:43:00,
2013-04-24 10:44:00,56.9,52.1,29.96,West,278,1.0,7.0,84,0.00,,---,0.01,VWS V14.01,2013-04-24 14:44:00,
2013-04-24 10:45:00,56.9,52.1,29.98,West,278,1.0,7.0,84,0.00,,---,0.01,VWS V14.01,2013-04-24 14:45:00,
2013-04-24 10:46:00,56.6,51.5,29.98,West,269,0.0,7.0,83,0.00,,---,0.01,VWS V14.01,2013-04-24 14:46:00,
2013-04-24 10:47:00,56.6,51.5,29.98,West,269,0.0,7.0,83,0.00,,---,0.01,VWS V14.01,2013-04-24 14:47:00,
2013-04-24 10:48:00,56.5,51.4,29.98,West,269,0.0,7.0,83,0.00,,---,0.01,VWS V14.01,2013-04-24 14:48:00,
2013-04-24 10:49:00,56.5,51.4,29.98,West,266,0.0,7.0,83,0.00,,---,0.01,VWS V14.01,2013-04-24 14:49:00,
2013-04-24 10:50:00,56.5,51.4,29.98,West,266,0.0,7.0,83,0.00,,---,0.01,VWS V14.01,2013-04-24 14:50:00,
2013-04-24 10:51:00,56.5,51.4,29.98,West,278,0.0,3.0,83,0.00,,---,0.01,VWS V14.01,2013-04-24 14:51:00,
2013-04-24 10:52:00,56.3,51.2,29.98,West,278,1.0,3.0,83,0.00,,---,0.01,VWS V14.01,2013-04-24 14:52:00,
2013-04-24 10:53:00,56.3,51.2,29.98,West,272,0.0,3.0,83,0.00,,---,0.01,VWS V14.01,2013-04-24 14:53:00,
2013-04-24 10:54:00,56.3,51.2,29.98,NW,312,0.0,3.0,83,0.00,,---,0.01,VWS V14.01,2013-04-24 14:54:00,
2013-04-24 10:55:00,56.2,51.1,29.98,NW,312,0.0,3.0,83,0.00,,---,0.01,VWS V14.01,2013-04-24 14:55:00,
2013-04-24 10:56:00,56.2,51.1,29.98,NW,312,0.0,3.0,83,0.00,,---,0.01,VWS V14.01,2013-04-24 14:56:00,
2013-04-24 10:57:00,56.2,51.1,29.98,NW,312,0.0,3.0,83,0.00,,---,0.01,VWS V14.01,2013-04-24 14:57:00,
2013-04-24 10:58:00,56.0,50.9,29.98,NW,312,0.0,3.0,83,0.00,,---,0.01,VWS V14.01,2013-04-24 14:58:00,
2013-04-24 10:59:00,56.0,50.6,29.98,NW,309,1.0,3.0,82,0.00,,---,0.01,VWS V14.01,2013-04-24 14:59:00,
2013-04-24 11:00:00,55.9,50.5,29.97,NW,309,0.0,3.0,82,0.00,,---,0.01,VWS V14.01,2013-04-24 15:00:00,
2013-04-24 11:01:00,55.9,50.5,29.97,NW,309,0.0,0.0,82,0.00,,---,0.01,VWS V14.01,2013-04-24 15:01:00,
2013-04-24 11:02:00,55.9,50.5,29.97,NW,309,0.0,0.0,82,0.00,,---,0.01,VWS V14.01,2013-04-24 15:02:00,
2013-04-24 11:03:00,55.7,50.3,29.97,NW,309,0.0,0.0,82,0.00,,---,0.01,VWS V14.01,2013-04-24 15:03:00,
2013-04-24 11:04:00,55.7,50.3,29.97,NW,309,0.0,0.0,82,0.00,,---,0.01,VWS V14.01,2013-04-24 15:04:00,
2013-04-24 11:05:00,55.7,50.3,29.97,NW,309,0.0,0.0,82,0.00,,---,0.01,VWS V14.01,2013-04-24 15:05:00,
2013-04-24 11:06:00,55.6,50.2,29.97,NW,305,0.0,0.0,82,0.00,,---,0.01,VWS V14.01,2013-04-24 15:06:00,
2013-04-24 11:07:00,55.6,50.2,29.97,NW,305,0.0,0.0,82,0.00,,---,0.01,VWS V14.01,2013-04-24 15:07:00,
2013-04-24 11:08:00,55.6,50.2,29.97,NW,305,0.0,0.0,82,0.00,,---,0.01,VWS V14.01,2013-04-24 15:08:00,
2013-04-24 11:09:00,55.4,50.0,29.97,NW,305,0.0,0.0,82,0.00,,---,0.01,VWS V14.01,2013-04-24 15:09:00,
2013-04-24 11:10:00,55.4,50.0,29.97,WSW,241,0.0,0.0,82,0.00,,---,0.01,VWS V14.01,2013-04-24 15:10:00,
2013-04-24 11:11:00,55.4,50.0,29.97,WSW,254,0.0,0.0,82,0.00,,---,0.01,VWS V14.01,2013-04-24 15:11:00,
2013-04-24 11:12:00,55.3,49.9,29.97,WSW,254,0.0,0.0,82,0.00,,---,0.01,VWS V14.01,2013-04-24 15:12:00,
2013-04-24 11:13:00,55.3,49.9,29.97,WSW,254,0.0,0.0,82,0.00,,---,0.01,VWS V14.01,2013-04-24 15:13:00,
2013-04-24 11:14:00,55.3,49.9,29.97,WSW,254,0.0,0.0,82,0.00,,---,0.01,VWS V14.01,2013-04-24 15:14:00,
2013-04-24 11:15:00,55.1,49.7,29.97,WSW,254,0.0,0.0,82,0.00,,---,0.01,VWS V14.01,2013-04-24 15:15:00,
2013-04-24 11:16:00,55.1,49.7,29.97,SW,227,0.0,0.0,82,0.00,,---,0.01,VWS V14.01,2013-04-24 15:16:00,
2013-04-24 11:17:00,55.1,49.7,29.97,SW,227,0.0,0.0,82,0.00,,---,0.01,VWS V14.01,2013-04-24 15:17:00,
2013-04-24 11:18:00,55.0,49.6,29.97,WSW,241,0.0,0.0,82,0.00,,---,0.01,VWS V14.01,2013-04-24 15:18:00,
2013-04-24 11:19:00,55.0,49.6,29.97,WSW,241,0.0,0.0,82,0.00,,---,0.01,VWS V14.01,2013-04-24 15:19:00,
2013-04-24 11:20:00,55.0,49.6,29.97,WSW,241,0.0,0.0,82,0.00,,---,0.01,VWS V14.01,2013-04-24 15:20:00,
2013-04-24 11:21:00,55.0,49.6,29.97,WSW,241,0.0,0.0,82,0.00,,---,0.01,VWS V14.01,2013-04-24 15:21:00,
2013-04-24 11:22:00,54.8,49.4,29.97,SW,220,0.0,0.0,82,0.00,,---,0.01,VWS V14.01,2013-04-24 15:22:00,
2013-04-24 11:23:00,54.8,49.4,29.97,SW,220,0.0,0.0,82,0.00,,---,0.01,VWS V14.01,2013-04-24 15:23:00,
2013-04-24 11:24:00,54.8,49.4,29.97,SW,220,0.0,1.0,82,0.00,,---,0.01,VWS V14.01,2013-04-24 15:24:00,
2013-04-24 11:25:00,54.7,49.3,29.97,SW,220,0.0,1.0,82,0.00,,---,0.01,VWS V14.01,2013-04-24 15:25:00,
2013-04-24 11:26:00,54.7,49.3,29.97,West,275,0.0,1.0,82,0.00,,---,0.01,VWS V14.01,2013-04-24 15:26:00,
2013-04-24 11:27:00,54.7,49.3,29.97,West,275,0.0,1.0,82,0.00,,---,0.01,VWS V14.01,2013-04-24 15:27:00,
2013-04-24 11:28:00,54.5,49.5,29.97,SE,135,3.0,5.0,83,0.00,,---,0.01,VWS V14.01,2013-04-24 15:28:00,
2013-04-24 11:29:00,54.5,49.1,29.97,SE,141,0.0,5.0,82,0.00,,---,0.01,VWS V14.01,2013-04-24 15:29:00,
2013-04-24 11:30:00,54.5,49.1,29.98,South,183,0.0,5.0,82,0.00,,---,0.01,VWS V14.01,2013-04-24 15:30:00,
2013-04-24 11:31:00,54.4,49.3,29.98,West,262,3.0,5.0,83,0.00,,---,0.01,VWS V14.01,2013-04-24 15:31:00,
2013-04-24 11:32:00,54.4,49.0,29.98,West,259,0.0,5.0,82,0.00,,---,0.01,VWS V14.01,2013-04-24 15:32:00,
2013-04-24 11:33:00,54.2,48.8,29.98,West,259,0.0,5.0,82,0.00,,---,0.01,VWS V14.01,2013-04-24 15:33:00,
2013-04-24 11:34:00,54.2,49.2,29.98,West,266,2.0,5.0,83,0.00,,---,0.01,VWS V14.01,2013-04-24 15:34:00,
2013-04-24 11:35:00,54.2,48.8,29.98,WSW,238,2.0,6.0,82,0.00,,---,0.01,VWS V14.01,2013-04-24 15:35:00,
2013-04-24 11:36:00,54.1,48.7,29.98,West,274,0.0,6.0,82,0.00,,---,0.01,VWS V14.01,2013-04-24 15:36:00,
2013-04-24 11:37:00,54.1,48.7,29.98,West,274,0.0,6.0,82,0.00,,---,0.01,VWS V14.01,2013-04-24 15:37:00,
2013-04-24 11:38:00,53.9,48.9,29.98,West,274,0.0,6.0,83,0.00,,---,0.01,VWS V14.01,2013-04-24 15:38:00,
2013-04-24 11:39:00,53.9,48.5,29.98,West,272,0.0,6.0,82,0.00,,---,0.01,VWS V14.01,2013-04-24 15:39:00,
2013-04-24 11:40:00,53.9,48.9,29.98,West,272,0.0,6.0,83,0.00,,---,0.01,VWS V14.01,2013-04-24 15:40:00,
2013-04-24 11:41:00,53.8,48.4,29.98,WNW,285,0.0,0.0,82,0.00,,---,0.01,VWS V14.01,2013-04-24 15:41:00,
2013-04-24 11:42:00,53.8,48.4,29.98,WNW,283,0.0,1.0,82,0.00,,---,0.01,VWS V14.01,2013-04-24 15:42:00,
2013-04-24 11:43:00,53.8,48.4,29.98,WNW,283,0.0,1.0,82,0.00,,---,0.01,VWS V14.01,2013-04-24 15:43:00,
2013-04-24 11:44:00,53.8,48.4,29.98,WNW,283,0.0,1.0,82,0.00,,---,0.01,VWS V14.01,2013-04-24 15:44:00,
2013-04-24 11:45:00,53.6,48.2,29.99,North,358,3.0,3.0,82,0.00,,---,0.01,VWS V14.01,2013-04-24 15:45:00,
2013-04-24 11:46:00,53.6,48.2,29.99,North,358,0.0,3.0,82,0.00,,---,0.01,VWS V14.01,2013-04-24 15:46:00,
2013-04-24 11:47:00,53.6,48.2,29.99,WNW,285,0.0,3.0,82,0.00,,---,0.01,VWS V14.01,2013-04-24 15:47:00,
2013-04-24 11:48:00,53.6,48.2,29.99,WNW,285,0.0,3.0,82,0.00,,---,0.01,VWS V14.01,2013-04-24 15:48:00,
2013-04-24 11:49:00,53.6,48.2,29.99,WNW,285,0.0,3.0,82,0.00,,---,0.01,VWS V14.01,2013-04-24 15:49:00,
2013-04-24 11:50:00,53.5,48.2,29.99,WNW,292,2.0,3.0,82,0.00,,---,0.01,VWS V14.01,2013-04-24 15:50:00,
2013-04-24 11:51:00,53.5,48.2,29.99,WNW,292,0.0,2.0,82,0.00,,---,0.01,VWS V14.01,2013-04-24 15:51:00,
2013-04-24 11:52:00,53.5,48.2,29.99,WNW,289,1.0,2.0,82,0.00,,---,0.01,VWS V14.01,2013-04-24 15:52:00,
2013-04-24 11:53:00,53.5,48.2,29.99,WSW,244,0.0,4.0,82,0.00,,---,0.01,VWS V14.01,2013-04-24 15:53:00,
2013-04-24 11:54:00,53.5,48.2,29.99,WSW,248,0.0,4.0,82,0.00,,---,0.01,VWS V14.01,2013-04-24 15:54:00,
2013-04-24 11:55:00,53.5,48.2,29.99,WSW,248,0.0,4.0,82,0.00,,---,0.01,VWS V14.01,2013-04-24 15:55:00,
2013-04-24 11:56:00,53.3,48.0,29.99,WSW,248,0.0,4.0,82,0.00,,---,0.01,VWS V14.01,2013-04-24 15:56:00,
2013-04-24 11:57:00,53.3,48.0,29.99,WSW,248,0.0,4.0,82,0.00,,---,0.01,VWS V14.01,2013-04-24 15:57:00,
2013-04-24 11:58:00,53.3,48.0,29.99,SE,146,0.0,4.0,82,0.00,,---,0.01,VWS V14.01,2013-04-24 15:58:00,
2013-04-24 11:59:00,53.3,47.6,29.99,SW,235,2.0,4.0,81,0.00,,---,0.01,VWS V14.01,2013-04-24 15:59:00,
2013-04-24 12:00:00,53.3,48.0,29.99,NNW,330,0.0,6.0,82,0.00,,---,0.01,VWS V14.01,2013-04-24 16:00:00,
2013-04-24 12:01:00,53.3,48.0,29.99,NNW,330,0.0,0.0,82,0.00,,---,0.01,VWS V14.01,2013-04-24 16:01:00,
2013-04-24 12:02:00,53.3,48.0,29.99,NNE,18,0.0,0.0,82,0.00,,---,0.01,VWS V14.01,2013-04-24 16:02:00,
2013-04-24 12:03:00,53.3,48.0,29.99,SSE,158,0.0,5.0,82,0.00,,---,0.01,VWS V14.01,2013-04-24 16:03:00,
2013-04-24 12:04:00,53.3,47.6,29.99,SSE,158,0.0,5.0,81,0.00,,---,0.01,VWS V14.01,2013-04-24 16:04:00,
2013-04-24 12:05:00,53.3,47.6,29.99,SSE,158,0.0,5.0,81,0.00,,---,0.01,VWS V14.01,2013-04-24 16:05:00,
2013-04-24 12:06:00,53.3,47.6,29.99,South,169,0.0,5.0,81,0.00,,---,0.01,VWS V14.01,2013-04-24 16:06:00,
2013-04-24 12:07:00,53.3,47.6,29.99,South,169,0.0,5.0,81,0.00,,---,0.01,VWS V14.01,2013-04-24 16:07:00,
2013-04-24 12:08:00,53.3,47.6,29.99,South,169,0.0,5.0,81,0.00,,---,0.01,VWS V14.01,2013-04-24 16:08:00,
2013-04-24 12:09:00,53.3,47.6,29.99,South,169,0.0,5.0,81,0.00,,---,0.01,VWS V14.01,2013-04-24 16:09:00,
2013-04-24 12:10:00,53.3,47.6,29.99,South,169,0.0,5.0,81,0.00,,---,0.01,VWS V14.01,2013-04-24 16:10:00,
2013-04-24 12:11:00,53.3,47.6,29.99,NNE,18,0.0,5.0,81,0.00,,---,0.01,VWS V14.01,2013-04-24 16:11:00,
2013-04-24 12:12:00,53.3,47.3,29.99,NNW,331,4.0,5.0,80,0.00,,---,0.01,VWS V14.01,2013-04-24 16:12:00,
2013-04-24 12:13:00,53.2,47.2,29.99,NW,322,0.0,5.0,80,0.00,,---,0.01,VWS V14.01,2013-04-24 16:13:00,
2013-04-24 12:14:00,53.2,47.2,29.99,NW,322,2.0,5.0,80,0.00,,---,0.01,VWS V14.01,2013-04-24 16:14:00,
2013-04-24 12:15:00,53.2,47.2,29.99,NW,322,0.0,5.0,80,0.00,,---,0.01,VWS V14.01,2013-04-24 16:15:00,
2013-04-24 12:16:00,53.2,47.2,29.99,NW,322,0.0,5.0,80,0.00,,---,0.01,VWS V14.01,2013-04-24 16:16:00,
2013-04-24 12:17:00,53.1,47.1,29.99,NW,323,0.0,5.0,80,0.00,,---,0.01,VWS V14.01,2013-04-24 16:17:00,
2013-04-24 12:18:00,53.1,47.1,29.99,NW,323,0.0,5.0,80,0.00,,---,0.01,VWS V14.01,2013-04-24 16:18:00,
2013-04-24 12:19:00,53.1,47.1,29.99,NW,323,0.0,5.0,80,0.00,,---,0.01,VWS V14.01,2013-04-24 16:19:00,
2013-04-24 12:20:00,53.1,47.1,29.99,SW,234,0.0,5.0,80,0.00,,---,0.01,VWS V14.01,2013-04-24 16:20:00,
2013-04-24 12:21:00,53.1,47.1,29.99,SW,234,0.0,0.0,80,0.00,,---,0.01,VWS V14.01,2013-04-24 16:21:00,
2013-04-24 12:22:00,52.9,46.9,29.99,SW,234,0.0,2.0,80,0.00,,---,0.01,VWS V14.01,2013-04-24 16:22:00,
2013-04-24 12:23:00,52.9,46.9,29.99,West,281,0.0,2.0,80,0.00,,---,0.01,VWS V14.01,2013-04-24 16:23:00,
2013-04-24 12:24:00,52.8,46.5,29.99,SW,231,3.0,3.0,79,0.00,,---,0.01,VWS V14.01,2013-04-24 16:24:00,
2013-04-24 12:25:00,52.8,46.5,29.99,West,274,3.0,5.0,79,0.00,,---,0.01,VWS V14.01,2013-04-24 16:25:00,
2013-04-24 12:26:00,52.8,46.5,29.99,SW,234,4.0,6.0,79,0.00,,---,0.01,VWS V14.01,2013-04-24 16:26:00,
2013-04-24 12:27:00,52.6,46.3,29.99,West,271,5.0,6.0,79,0.00,,---,0.01,VWS V14.01,2013-04-24 16:27:00,
2013-04-24 12:28:00,52.6,46.3,29.99,West,268,0.0,6.0,79,0.00,,---,0.01,VWS V14.01,2013-04-24 16:28:00,
2013-04-24 12:29:00,52.5,46.2,29.99,West,266,2.0,6.0,79,0.00,,---,0.01,VWS V14.01,2013-04-24 16:29:00,
2013-04-24 12:30:00,52.5,46.2,29.99,WNW,293,0.0,6.0,79,0.00,,---,0.01,VWS V14.01,2013-04-24 16:30:00,
2013-04-24 12:31:00,52.5,46.2,29.99,WNW,293,0.0,0.0,79,0.00,,---,0.01,VWS V14.01,2013-04-24 16:31:00,
2013-04-24 12:32:00,52.3,46.0,29.99,WNW,295,0.0,0.0,79,0.00,,---,0.01,VWS V14.01,2013-04-24 16:32:00,
2013-04-24 12:33:00,52.3,46.0,29.99,WNW,295,0.0,0.0,79,0.00,,---,0.01,VWS V14.01,2013-04-24 16:33:00,
2013-04-24 12:34:00,52.3,46.0,29.99,WNW,295,0.0,0.0,79,0.00,,---,0.01,VWS V14.01,2013-04-24 16:34:00,
2013-04-24 12:35:00,52.3,46.0,29.99,WNW,295,0.0,0.0,79,0.00,,---,0.01,VWS V14.01,2013-04-24 16:35:00,
2013-04-24 12:36:00,52.2,45.9,29.99,WNW,295,1.0,1.0,79,0.00,,---,0.01,VWS V14.01,2013-04-24 16:36:00,
2013-04-24 12:37:00,52.2,45.9,29.99,SSW,193,0.0,4.0,79,0.00,,---,0.01,VWS V14.01,2013-04-24 16:37:00,
2013-04-24 12:38:00,52.2,45.9,29.99,SSE,155,0.0,4.0,79,0.00,,---,0.01,VWS V14.01,2013-04-24 16:38:00,
2013-04-24 12:39:00,52.0,45.7,29.99,SSE,155,0.0,4.0,79,0.00,,---,0.01,VWS V14.01,2013-04-24 16:39:00,
2013-04-24 12:40:00,52.0,45.7,29.99,SSE,155,2.0,4.0,79,0.00,,---,0.01,VWS V14.01,2013-04-24 16:40:00,
2013-04-24 12:41:00,51.9,45.6,29.99,South,180,0.0,5.0,79,0.00,,---,0.01,VWS V14.01,2013-04-24 16:41:00,
2013-04-24 12:42:00,51.7,45.4,29.99,South,180,0.0,5.0,79,0.00,,---,0.01,VWS V14.01,2013-04-24 16:42:00,
2013-04-24 12:43:00,51.7,45.4,29.99,South,180,0.0,5.0,79,0.00,,---,0.01,VWS V14.01,2013-04-24 16:43:00,
2013-04-24 12:44:00,51.6,45.3,29.99,WSW,237,0.0,5.0,79,0.00,,---,0.01,VWS V14.01,2013-04-24 16:44:00,
2013-04-24 12:45:00,51.6,45.3,30.01,South,189,0.0,5.0,79,0.00,,---,0.01,VWS V14.01,2013-04-24 16:45:00,
2013-04-24 12:46:00,51.4,45.1,30.01,ENE,76,2.0,5.0,79,0.00,,---,0.01,VWS V14.01,2013-04-24 16:46:00,
2013-04-24 12:47:00,51.3,45.0,30.01,ENE,74,1.0,5.0,79,0.00,,---,0.01,VWS V14.01,2013-04-24 16:47:00,
2013-04-24 12:48:00,51.3,45.3,30.01,ENE,74,0.0,5.0,80,0.00,,---,0.01,VWS V14.01,2013-04-24 16:48:00,
2013-04-24 12:49:00,51.3,45.3,30.01,ENE,74,0.0,5.0,80,0.00,,---,0.01,VWS V14.01,2013-04-24 16:49:00,
2013-04-24 12:50:00,51.1,45.2,30.01,ENE,74,0.0,5.0,80,0.00,,---,0.01,VWS V14.01,2013-04-24 16:50:00,
2013-04-24 12:51:00,51.1,45.2,30.01,ENE,65,0.0,0.0,80,0.00,,---,0.01,VWS V14.01,2013-04-24 16:51:00,
2013-04-24 12:52:00,51.1,45.2,30.01,SE,127,2.0,2.0,80,0.00,,---,0.01,VWS V14.01,2013-04-24 16:52:00,
2013-04-24 12:53:00,51.0,45.1,30.01,SE,127,0.0,4.0,80,0.00,,---,0.01,VWS V14.01,2013-04-24 16:53:00,
2013-04-24 12:54:00,51.0,45.1,30.01,SE,127,0.0,4.0,80,0.00,,---,0.01,VWS V14.01,2013-04-24 16:54:00,
2013-04-24 12:55:00,50.8,44.9,30.01,SE,127,0.0,4.0,80,0.00,,---,0.01,VWS V14.01,2013-04-24 16:55:00,
2013-04-24 12:56:00,50.8,44.9,30.01,SSE,165,2.0,4.0,80,0.00,,---,0.01,VWS V14.01,2013-04-24 16:56:00,
2013-04-24 12:57:00,50.8,44.9,30.01,SSE,168,0.0,4.0,80,0.00,,---,0.01,VWS V14.01,2013-04-24 16:57:00,
2013-04-24 12:58:00,50.7,45.1,30.01,SE,131,0.0,4.0,81,0.00,,---,0.01,VWS V14.01,2013-04-24 16:58:00,
2013-04-24 12:59:00,50.7,44.8,30.01,SE,131,0.0,4.0,80,0.00,,---,0.01,VWS V14.01,2013-04-24 16:59:00,
2013-04-24 13:00:00,50.5,44.6,30.01,SE,131,0.0,4.0,80,0.00,,---,0.01,VWS V14.01,2013-04-24 17:00:00,
2013-04-24 13:01:00,50.5,44.6,30.01,SE,131,0.0,0.0,80,0.00,,---,0.01,VWS V14.01,2013-04-24 17:01:00,
2013-04-24 13:02:00,50.5,44.6,30.01,SE,132,0.0,0.0,80,0.00,,---,0.01,VWS V14.01,2013-04-24 17:02:00,
2013-04-24 13:03:00,50.4,44.5,30.01,SE,132,0.0,0.0,80,0.00,,---,0.01,VWS V14.01,2013-04-24 17:03:00,
2013-04-24 13:04:00,50.4,44.5,30.01,SE,132,0.0,0.0,80,0.00,,---,0.01,VWS V14.01,2013-04-24 17:04:00,
2013-04-24 13:05:00,50.4,44.5,30.01,SE,132,0.0,0.0,80,0.00,,---,0.01,VWS V14.01,2013-04-24 17:05:00,
2013-04-24 13:06:00,50.2,44.3,30.01,SE,132,0.0,0.0,80,0.00,,---,0.01,VWS V14.01,2013-04-24 17:06:00,
2013-04-24 13:07:00,50.2,44.3,30.01,SE,132,0.0,0.0,80,0.00,,---,0.01,VWS V14.01,2013-04-24 17:07:00,
2013-04-24 13:08:00,50.2,44.3,30.01,SE,132,0.0,0.0,80,0.00,,---,0.01,VWS V14.01,2013-04-24 17:08:00,
2013-04-24 13:09:00,50.2,44.3,30.01,SE,132,0.0,0.0,80,0.00,,---,0.01,VWS V14.01,2013-04-24 17:09:00,
2013-04-24 13:10:00,50.1,44.2,30.01,SE,132,0.0,0.0,80,0.00,,---,0.01,VWS V14.01,2013-04-24 17:10:00,
2013-04-24 13:11:00,49.9,44.0,30.01,SE,132,0.0,0.0,80,0.00,,---,0.01,VWS V14.01,2013-04-24 17:11:00,
2013-04-24 13:12:00,49.9,44.0,30.01,SE,132,0.0,0.0,80,0.00,,---,0.01,VWS V14.01,2013-04-24 17:12:00,
2013-04-24 13:13:00,49.9,44.0,30.01,SE,132,0.0,0.0,80,0.00,,---,0.01,VWS V14.01,2013-04-24 17:13:00,
2013-04-24 13:14:00,49.9,44.0,30.01,SE,132,0.0,0.0,80,0.00,,---,0.01,VWS V14.01,2013-04-24 17:14:00,
2013-04-24 13:15:00,49.8,43.9,30.02,SE,132,0.0,0.0,80,0.00,,---,0.01,VWS V14.01,2013-04-24 17:15:00,
2013-04-24 13:16:00,49.8,43.9,30.02,SE,132,0.0,0.0,80,0.00,,---,0.01,VWS V14.01,2013-04-24 17:16:00,
2013-04-24 13:17:00,49.8,43.9,30.02,North,7,0.0,0.0,80,0.00,,---,0.01,VWS V14.01,2013-04-24 17:17:00,
2013-04-24 13:18:00,49.6,43.7,30.02,NW,326,3.0,3.0,80,0.00,,---,0.01,VWS V14.01,2013-04-24 17:18:00,
2013-04-24 13:19:00,49.6,43.7,30.02,NW,326,0.0,3.0,80,0.00,,---,0.01,VWS V14.01,2013-04-24 17:19:00,
2013-04-24 13:20:00,49.5,43.6,30.02,NW,323,0.0,3.0,80,0.00,,---,0.01,VWS V14.01,2013-04-24 17:20:00,
2013-04-24 13:21:00,49.5,43.6,30.02,WNW,292,0.0,1.0,80,0.00,,---,0.01,VWS V14.01,2013-04-24 17:21:00,
2013-04-24 13:22:00,49.4,43.5,30.02,West,264,0.0,1.0,80,0.00,,---,0.01,VWS V14.01,2013-04-24 17:22:00,
2013-04-24 13:23:00,49.4,43.5,30.02,West,264,0.0,1.0,80,0.00,,---,0.01,VWS V14.01,2013-04-24 17:23:00,
2013-04-24 13:24:00,49.4,43.8,30.02,West,264,0.0,1.0,81,0.00,,---,0.01,VWS V14.01,2013-04-24 17:24:00,
2013-04-24 13:25:00,49.2,43.6,30.02,West,264,0.0,1.0,81,0.00,,---,0.01,VWS V14.01,2013-04-24 17:25:00,
2013-04-24 13:26:00,49.2,43.6,30.02,West,264,0.0,1.0,81,0.00,,---,0.01,VWS V14.01,2013-04-24 17:26:00,
2013-04-24 13:27:00,49.2,43.6,30.02,West,264,0.0,1.0,81,0.00,,---,0.01,VWS V14.01,2013-04-24 17:27:00,
2013-04-24 13:28:00,49.1,43.5,30.02,West,264,0.0,1.0,81,0.00,,---,0.01,VWS V14.01,2013-04-24 17:28:00,
2013-04-24 13:29:00,49.1,43.5,30.02,West,264,0.0,1.0,81,0.00,,---,0.01,VWS V14.01,2013-04-24 17:29:00,
2013-04-24 13:30:00,49.1,43.5,30.02,West,264,0.0,1.0,81,0.00,,---,0.01,VWS V14.01,2013-04-24 17:30:00,
2013-04-24 13:31:00,48.9,43.3,30.02,WNW,293,2.0,3.0,81,0.00,,---,0.01,VWS V14.01,2013-04-24 17:31:00,
2013-04-24 13:32:00,48.9,43.3,30.02,NW,320,5.0,7.0,81,0.00,,---,0.01,VWS V14.01,2013-04-24 17:32:00,
2013-04-24 13:33:00,48.9,43.3,30.02,NNW,334,2.0,7.0,81,0.00,,---,0.01,VWS V14.01,2013-04-24 17:33:00,
2013-04-24 13:34:00,48.8,43.2,30.02,NNW,334,0.0,7.0,81,0.00,,---,0.01,VWS V14.01,2013-04-24 17:34:00,
2013-04-24 13:35:00,48.8,43.2,30.02,NW,322,0.0,7.0,81,0.00,,---,0.01,VWS V14.01,2013-04-24 17:35:00,
2013-04-24 13:36:00,48.8,43.2,30.02,NW,309,1.0,7.0,81,0.00,,---,0.01,VWS V14.01,2013-04-24 17:36:00,
2013-04-24 13:37:00,48.6,43.0,30.02,North,354,0.0,7.0,81,0.00,,---,0.01,VWS V14.01,2013-04-24 17:37:00,
2013-04-24 13:38:00,48.6,43.0,30.02,North,354,0.0,7.0,81,0.00,,---,0.01,VWS V14.01,2013-04-24 17:38:00,
2013-04-24 13:39:00,48.6,43.0,30.02,North,354,0.0,7.0,81,0.00,,---,0.01,VWS V14.01,2013-04-24 17:39:00,
2013-04-24 13:40:00,48.5,43.0,30.02,North,350,0.0,7.0,81,0.00,,---,0.01,VWS V14.01,2013-04-24 17:40:00,
2013-04-24 13:41:00,48.5,43.3,30.02,North,350,0.0,0.0,82,0.00,,---,0.01,VWS V14.01,2013-04-24 17:41:00,
2013-04-24 13:42:00,48.5,43.3,30.02,NNW,347,0.0,0.0,82,0.00,,---,0.01,VWS V14.01,2013-04-24 17:42:00,
2013-04-24 13:43:00,48.3,43.1,30.02,SW,226,0.0,0.0,82,0.00,,---,0.01,VWS V14.01,2013-04-24 17:43:00,
2013-04-24 13:44:00,48.3,42.8,30.02,NNW,343,0.0,0.0,81,0.00,,---,0.01,VWS V14.01,2013-04-24 17:44:00,
2013-04-24 13:45:00,48.2,43.0,30.03,NNW,343,0.0,0.0,82,0.00,,---,0.01,VWS V14.01,2013-04-24 17:45:00,
2013-04-24 13:46:00,48.2,43.0,30.03,NNW,343,0.0,0.0,82,0.00,,---,0.01,VWS V14.01,2013-04-24 17:46:00,
2013-04-24 13:47:00,48.2,43.0,30.03,NNW,343,0.0,0.0,82,0.00,,---,0.01,VWS V14.01,2013-04-24 17:47:00,
2013-04-24 13:48:00,48.2,43.0,30.03,NNW,343,0.0,0.0,82,0.00,,---,0.01,VWS V14.01,2013-04-24 17:48:00,
2013-04-24 13:49:00,48.0,42.8,30.03,NNW,341,0.0,1.0,82,0.00,,---,0.01,VWS V14.01,2013-04-24 17:49:00,
2013-04-24 13:50:00,48.0,42.8,30.03,NNW,341,0.0,1.0,82,0.00,,---,0.01,VWS V14.01,2013-04-24 17:50:00,
2013-04-24 13:51:00,48.0,42.8,30.03,NNW,341,2.0,2.0,82,0.00,,---,0.01,VWS V14.01,2013-04-24 17:51:00,
2013-04-24 13:52:00,47.9,42.7,30.03,West,279,0.0,3.0,82,0.00,,---,0.01,VWS V14.01,2013-04-24 17:52:00,
2013-04-24 13:53:00,47.9,42.7,30.03,WNW,282,2.0,3.0,82,0.00,,---,0.01,VWS V14.01,2013-04-24 17:53:00,
2013-04-24 13:54:00,47.7,42.5,30.03,NNW,338,0.0,5.0,82,0.00,,---,0.01,VWS V14.01,2013-04-24 17:54:00,
2013-04-24 13:55:00,47.7,42.5,30.03,NW,324,0.0,5.0,82,0.00,,---,0.01,VWS V14.01,2013-04-24 17:55:00,
2013-04-24 13:56:00,47.7,42.5,30.03,NW,324,0.0,5.0,82,0.00,,---,0.01,VWS V14.01,2013-04-24 17:56:00,
2013-04-24 13:57:00,47.6,42.4,30.03,West,276,0.0,5.0,82,0.00,,---,0.01,VWS V14.01,2013-04-24 17:57:00,
2013-04-24 13:58:00,47.6,42.4,30.03,WSW,244,0.0,5.0,82,0.00,,---,0.01,VWS V14.01,2013-04-24 17:58:00,
2013-04-24 13:59:00,47.6,42.4,30.03,WSW,244,0.0,5.0,82,0.00,,---,0.01,VWS V14.01,2013-04-24 17:59:00,
2013-04-24 14:00:00,47.6,42.4,30.03,West,266,0.0,5.0,82,0.00,,---,0.01,VWS V14.01,2013-04-24 18:00:00,
2013-04-24 14:01:00,47.6,42.4,30.03,West,266,0.0,0.0,82,0.00,,---,0.01,VWS V14.01,2013-04-24 18:01:00,
2013-04-24 14:02:00,47.4,42.2,30.03,WSW,247,4.0,4.0,82,0.00,,---,0.01,VWS V14.01,2013-04-24 18:02:00,
2013-04-24 14:03:00,47.4,42.2,30.03,WSW,245,1.0,4.0,82,0.00,,---,0.01,VWS V14.01,2013-04-24 18:03:00,
2013-04-24 14:04:00,47.4,41.9,30.03,WSW,245,0.0,4.0,81,0.00,,---,0.01,VWS V14.01,2013-04-24 18:04:00,
2013-04-24 14:05:00,47.4,41.9,30.03,WSW,245,0.0,4.0,81,0.00,,---,0.01,VWS V14.01,2013-04-24 18:05:00,
2013-04-24 14:06:00,47.4,41.9,30.03,WSW,245,0.0,4.0,81,0.00,,---,0.01,VWS V14.01,2013-04-24 18:06:00,
2013-04-24 14:07:00,47.3,41.8,30.03,WSW,242,0.0,4.0,81,0.00,,---,0.01,VWS V14.01,2013-04-24 18:07:00,
2013-04-24 14:08:00,47.3,41.8,30.03,WSW,242,0.0,4.0,81,0.00,,---,0.01,VWS V14.01,2013-04-24 18:08:00,
2013-04-24 14:09:00,47.3,41.8,30.03,WSW,242,0.0,4.0,81,0.00,,---,0.01,VWS V14.01,2013-04-24 18:09:00,
2013-04-24 14:10:00,47.3,41.8,30.03,WSW,242,0.0,4.0,81,0.00,,---,0.01,VWS V14.01,2013-04-24 18:10:00,
2013-04-24 14:11:00,47.3,41.8,30.03,WSW,242,0.0,0.0,81,0.00,,---,0.01,VWS V14.01,2013-04-24 18:11:00,
2013-04-24 14:12:00,47.3,41.8,30.03,WSW,242,0.0,0.0,81,0.00,,---,0.01,VWS V14.01,2013-04-24 18:12:00,
2013-04-24 14:13:00,47.3,41.8,30.03,WSW,242,0.0,0.0,81,0.00,,---,0.01,VWS V14.01,2013-04-24 18:13:00,
2013-04-24 14:14:00,47.1,41.6,30.03,WSW,242,0.0,0.0,81,0.00,,---,0.01,VWS V14.01,2013-04-24 18:14:00,
2013-04-24 14:15:00,47.1,41.6,30.04,SW,231,0.0,0.0,81,0.00,,---,0.01,VWS V14.01,2013-04-24 18:15:00,
2013-04-24 14:16:00,47.1,41.6,30.04,WSW,242,0.0,0.0,81,0.00,,---,0.01,VWS V14.01,2013-04-24 18:16:00,
2013-04-24 14:17:00,47.1,41.6,30.04,WSW,242,0.0,0.0,81,0.00,,---,0.01,VWS V14.01,2013-04-24 18:17:00,
2013-04-24 14:18:00,47.1,41.6,30.04,WSW,242,0.0,0.0,81,0.00,,---,0.01,VWS V14.01,2013-04-24 18:18:00,
2013-04-24 14:19:00,47.1,41.6,30.04,WSW,242,0.0,0.0,81,0.00,,---,0.01,VWS V14.01,2013-04-24 18:19:00,
2013-04-24 14:20:00,47.1,41.6,30.04,WSW,242,0.0,0.0,81,0.00,,---,0.01,VWS V14.01,2013-04-24 18:20:00,
2013-04-24 14:21:00,47.1,41.6,30.04,WSW,242,0.0,0.0,81,0.00,,---,0.01,VWS V14.01,2013-04-24 18:21:00,
2013-04-24 14:22:00,47.0,41.5,30.04,WSW,242,0.0,0.0,81,0.00,,---,0.01,VWS V14.01,2013-04-24 18:22:00,
2013-04-24 14:23:00,47.0,41.5,30.04,WSW,242,0.0,0.0,81,0.00,,---,0.01,VWS V14.01,2013-04-24 18:23:00,
2013-04-24 14:24:00,47.0,41.5,30.04,WSW,242,0.0,1.0,81,0.00,,---,0.01,VWS V14.01,2013-04-24 18:24:00,
2013-04-24 14:25:00,47.0,41.5,30.04,NW,319,1.0,2.0,81,0.00,,---,0.01,VWS V14.01,2013-04-24 18:25:00,
2013-04-24 14:26:00,47.0,41.2,30.04,NW,316,0.0,2.0,80,0.00,,---,0.01,VWS V14.01,2013-04-24 18:26:00,
2013-04-24 14:27:00,46.8,41.0,30.04,NW,316,0.0,2.0,80,0.00,,---,0.01,VWS V14.01,2013-04-24 18:27:00,
2013-04-24 14:28:00,46.8,41.0,30.04,NW,316,0.0,2.0,80,0.00,,---,0.01,VWS V14.01,2013-04-24 18:28:00,
2013-04-24 14:29:00,46.8,41.0,30.04,West,272,2.0,2.0,80,0.00,,---,0.01,VWS V14.01,2013-04-24 18:29:00,
2013-04-24 14:30:00,46.8,41.0,30.03,West,272,0.0,2.0,80,0.00,,---,0.01,VWS V14.01,2013-04-24 18:30:00,
2013-04-24 14:31:00,46.7,40.9,30.03,West,272,0.0,0.0,80,0.00,,---,0.01,VWS V14.01,2013-04-24 18:31:00,
2013-04-24 14:32:00,46.7,40.9,30.03,West,272,0.0,0.0,80,0.00,,---,0.01,VWS V14.01,2013-04-24 18:32:00,
2013-04-24 14:33:00,46.7,40.9,30.03,West,272,0.0,0.0,80,0.00,,---,0.01,VWS V14.01,2013-04-24 18:33:00,
2013-04-24 14:34:00,46.7,40.9,30.03,WSW,248,0.0,0.0,80,0.00,,---,0.01,VWS V14.01,2013-04-24 18:34:00,
2013-04-24 14:35:00,46.5,40.7,30.03,WSW,240,0.0,0.0,80,0.00,,---,0.01,VWS V14.01,2013-04-24 18:35:00,
2013-04-24 14:36:00,46.5,40.7,30.03,WSW,240,0.0,0.0,80,0.00,,---,0.01,VWS V14.01,2013-04-24 18:36:00,
2013-04-24 14:37:00,46.5,40.7,30.03,WSW,240,0.0,0.0,80,0.00,,---,0.01,VWS V14.01,2013-04-24 18:37:00,
2013-04-24 14:38:00,46.5,40.7,30.03,WSW,240,0.0,0.0,80,0.00,,---,0.01,VWS V14.01,2013-04-24 18:38:00,
2013-04-24 14:39:00,46.4,40.9,30.03,WSW,240,0.0,0.0,81,0.00,,---,0.01,VWS V14.01,2013-04-24 18:39:00,
2013-04-24 14:40:00,46.4,40.9,30.03,WSW,240,0.0,0.0,81,0.00,,---,0.01,VWS V14.01,2013-04-24 18:40:00,
2013-04-24 14:41:00,46.4,40.9,30.03,WSW,240,0.0,0.0,81,0.00,,---,0.01,VWS V14.01,2013-04-24 18:41:00,
2013-04-24 14:42:00,46.4,40.9,30.03,WSW,240,0.0,0.0,81,0.00,,---,0.01,VWS V14.01,2013-04-24 18:42:00,
2013-04-24 14:43:00,46.4,40.9,30.03,WSW,240,1.0,1.0,81,0.00,,---,0.01,VWS V14.01,2013-04-24 18:43:00,
2013-04-24 14:44:00,46.2,40.7,30.03,WSW,245,0.0,2.0,81,0.00,,---,0.01,VWS V14.01,2013-04-24 18:44:00,
2013-04-24 14:45:00,46.2,40.7,30.03,WSW,245,0.0,2.0,81,0.00,,---,0.01,VWS V14.01,2013-04-24 18:45:00,
2013-04-24 14:46:00,46.2,40.7,30.03,WSW,245,0.0,2.0,81,0.00,,---,0.01,VWS V14.01,2013-04-24 18:46:00,
2013-04-24 14:47:00,46.2,40.7,30.03,WSW,237,5.0,5.0,81,0.00,,---,0.01,VWS V14.01,2013-04-24 18:47:00,
2013-04-24 14:48:00,46.1,40.6,30.03,SSW,204,6.0,8.0,81,0.00,,---,0.01,VWS V14.01,2013-04-24 18:48:00,
2013-04-24 14:49:00,46.0,40.8,30.03,SSW,204,7.0,8.0,82,0.00,,---,0.01,VWS V14.01,2013-04-24 18:49:00,
2013-04-24 14:50:00,46.0,40.8,30.03,SSW,204,2.0,8.0,82,0.00,,---,0.01,VWS V14.01,2013-04-24 18:50:00,
2013-04-24 14:51:00,46.0,40.8,30.03,SSW,204,1.0,2.0,82,0.00,,---,0.01,VWS V14.01,2013-04-24 18:51:00,
2013-04-24 14:52:00,45.8,40.6,30.03,SSW,204,0.0,3.0,82,0.00,,---,0.01,VWS V14.01,2013-04-24 18:52:00,
2013-04-24 14:53:00,45.8,40.6,30.03,SSW,209,0.0,3.0,82,0.00,,---,0.01,VWS V14.01,2013-04-24 18:53:00,
2013-04-24 14:54:00,45.8,40.6,30.03,WSW,240,3.0,5.0,82,0.00,,---,0.01,VWS V14.01,2013-04-24 18:54:00,
2013-04-24 14:55:00,45.8,40.6,30.03,WSW,240,3.0,5.0,82,0.00,,---,0.01,VWS V14.01,2013-04-24 18:55:00,
2013-04-24 14:56:00,45.8,40.9,30.03,WSW,240,0.0,5.0,83,0.00,,---,0.01,VWS V14.01,2013-04-24 18:56:00,
2013-04-24 14:57:00,45.8,40.9,30.03,WSW,240,0.0,5.0,83,0.00,,---,0.01,VWS V14.01,2013-04-24 18:57:00,
2013-04-24 14:58:00,45.8,40.9,30.03,WSW,240,0.0,5.0,83,0.00,,---,0.01,VWS V14.01,2013-04-24 18:58:00,
2013-04-24 14:59:00,45.8,40.9,30.03,SW,221,1.0,5.0,83,0.00,,---,0.01,VWS V14.01,2013-04-24 18:59:00,
2013-04-24 15:00:00,45.8,40.9,30.01,SW,221,0.0,5.0,83,0.00,,---,0.01,VWS V14.01,2013-04-24 19:00:00,
2013-04-24 15:01:00,45.8,40.9,30.01,SW,221,0.0,0.0,83,0.00,,---,0.01,VWS V14.01,2013-04-24 19:01:00,
2013-04-24 15:02:00,45.8,40.9,30.01,SW,221,0.0,0.0,83,0.00,,---,0.01,VWS V14.01,2013-04-24 19:02:00,
2013-04-24 15:03:00,45.7,40.8,30.01,SW,221,0.0,0.0,83,0.00,,---,0.01,VWS V14.01,2013-04-24 19:03:00,
2013-04-24 15:04:00,45.7,40.8,30.01,SW,221,0.0,0.0,83,0.00,,---,0.01,VWS V14.01,2013-04-24 19:04:00,
2013-04-24 15:05:00,45.7,40.8,30.01,NNW,343,1.0,5.0,83,0.00,,---,0.01,VWS V14.01,2013-04-24 19:05:00,
2013-04-24 15:06:00,45.8,40.9,30.01,NW,307,0.0,6.0,83,0.00,,---,0.01,VWS V14.01,2013-04-24 19:06:00,
2013-04-24 15:07:00,45.8,40.9,30.01,NW,307,0.0,6.0,83,0.00,,---,0.01,VWS V14.01,2013-04-24 19:07:00,
2013-04-24 15:08:00,46.0,41.1,30.01,SW,228,0.0,8.0,83,0.00,,---,0.01,VWS V14.01,2013-04-24 19:08:00,
2013-04-24 15:09:00,46.0,41.1,30.01,NW,310,3.0,8.0,83,0.00,,---,0.01,VWS V14.01,2013-04-24 19:09:00,
2013-04-24 15:10:00,46.0,41.1,30.01,NNW,347,0.0,8.0,83,0.00,,---,0.01,VWS V14.01,2013-04-24 19:10:00,
2013-04-24 15:11:00,46.1,41.2,30.01,NNW,341,2.0,4.0,83,0.00,,---,0.01,VWS V14.01,2013-04-24 19:11:00,
2013-04-24 15:12:00,46.1,41.2,30.01,WSW,242,5.0,5.0,83,0.00,,---,0.01,VWS V14.01,2013-04-24 19:12:00,
2013-04-24 15:13:00,46.1,40.9,30.01,NNW,329,3.0,5.0,82,0.00,,---,0.01,VWS V14.01,2013-04-24 19:13:00,
2013-04-24 15:14:00,46.1,40.9,30.01,West,268,2.0,7.0,82,0.00,,---,0.01,VWS V14.01,2013-04-24 19:14:00,
2013-04-24 15:15:00,46.1,40.9,30.02,WNW,285,2.0,7.0,82,0.00,,---,0.01,VWS V14.01,2013-04-24 19:15:00,
2013-04-24 15:16:00,46.1,40.9,30.02,WNW,288,0.0,7.0,82,0.00,,---,0.01,VWS V14.01,2013-04-24 19:16:00,
2013-04-24 15:17:00,46.1,40.9,30.02,WSW,251,1.0,7.0,82,0.00,,---,0.01,VWS V14.01,2013-04-24 19:17:00,
2013-04-24 15:18:00,46.1,40.9,30.02,WNW,292,0.0,7.0,82,0.00,,---,0.01,VWS V14.01,2013-04-24 19:18:00,
2013-04-24 15:19:00,46.1,40.6,30.02,WNW,292,0.0,7.0,81,0.00,,---,0.01,VWS V14.01,2013-04-24 19:19:00,
2013-04-24 15:20:00,46.1,40.6,30.02,WNW,302,1.0,7.0,81,0.00,,---,0.01,VWS V14.01,2013-04-24 19:20:00,
2013-04-24 15:21:00,46.1,40.6,30.02,WNW,285,0.0,6.0,81,0.00,,---,0.01,VWS V14.01,2013-04-24 19:21:00,
2013-04-24 15:22:00,46.1,40.6,30.02,WNW,299,0.0,6.0,81,0.00,,---,0.01,VWS V14.01,2013-04-24 19:22:00,
2013-04-24 15:23:00,46.1,40.6,30.02,WNW,299,0.0,6.0,81,0.00,,---,0.01,VWS V14.01,2013-04-24 19:23:00,
2013-04-24 15:24:00,46.1,40.3,30.02,WSW,252,5.0,6.0,80,0.00,,---,0.01,VWS V14.01,2013-04-24 19:24:00,
2013-04-24 15:25:00,46.1,40.3,30.02,WSW,245,4.0,6.0,80,0.00,,---,0.01,VWS V14.01,2013-04-24 19:25:00,
2013-04-24 15:26:00,46.0,40.2,30.02,NW,312,1.0,7.0,80,0.00,,---,0.01,VWS V14.01,2013-04-24 19:26:00,
2013-04-24 15:27:00,46.0,40.2,30.02,West,281,2.0,7.0,80,0.00,,---,0.01,VWS V14.01,2013-04-24 19:27:00,
2013-04-24 15:28:00,46.0,40.2,30.02,WNW,289,2.0,7.0,80,0.00,,---,0.01,VWS V14.01,2013-04-24 19:28:00,
2013-04-24 15:29:00,46.0,40.2,30.02,West,278,5.0,13.0,80,0.00,,---,0.01,VWS V14.01,2013-04-24 19:29:00,
2013-04-24 15:30:00,45.8,40.0,30.02,WSW,257,6.0,13.0,80,0.00,,---,0.01,VWS V14.01,2013-04-24 19:30:00,
2013-04-24 15:31:00,45.8,40.0,30.02,West,265,3.0,6.0,80,0.00,,---,0.01,VWS V14.01,2013-04-24 19:31:00,
2013-04-24 15:32:00,45.7,39.9,30.02,WNW,298,1.0,6.0,80,0.00,,---,0.01,VWS V14.01,2013-04-24 19:32:00,
2013-04-24 15:33:00,45.7,39.9,30.02,West,261,4.0,6.0,80,0.00,,---,0.01,VWS V14.01,2013-04-24 19:33:00,
2013-04-24 15:34:00,45.7,39.9,30.02,West,261,1.0,6.0,80,0.00,,---,0.01,VWS V14.01,2013-04-24 19:34:00,
2013-04-24 15:35:00,45.7,39.9,30.02,West,261,1.0,6.0,80,0.00,,---,0.01,VWS V14.01,2013-04-24 19:35:00,
2013-04-24 15:36:00,45.5,39.7,30.02,WSW,252,6.0,6.0,80,0.00,,---,0.01,VWS V14.01,2013-04-24 19:36:00,
2013-04-24 15:37:00,45.5,39.7,30.02,West,264,0.0,7.0,80,0.00,,---,0.01,VWS V14.01,2013-04-24 19:37:00,
2013-04-24 15:38:00,45.5,39.7,30.02,WSW,254,0.0,7.0,80,0.00,,---,0.01,VWS V14.01,2013-04-24 19:38:00,
2013-04-24 15:39:00,45.4,39.6,30.02,WSW,248,6.0,7.0,80,0.00,,---,0.01,VWS V14.01,2013-04-24 19:39:00,
2013-04-24 15:40:00,45.4,39.6,30.02,WSW,247,8.0,8.0,80,0.00,,---,0.01,VWS V14.01,2013-04-24 19:40:00,
2013-04-24 15:41:00,45.4,39.6,30.02,WNW,286,6.0,8.0,80,0.00,,---,0.01,VWS V14.01,2013-04-24 19:41:00,
2013-04-24 15:42:00,45.2,39.4,30.02,WNW,285,5.0,8.0,80,0.00,,---,0.01,VWS V14.01,2013-04-24 19:42:00,
2013-04-24 15:43:00,45.2,39.4,30.02,WNW,286,5.0,8.0,80,0.00,,---,0.01,VWS V14.01,2013-04-24 19:43:00,
2013-04-24 15:44:00,45.2,39.4,30.02,WNW,292,3.0,8.0,80,0.00,,---,0.01,VWS V14.01,2013-04-24 19:44:00,
2013-04-24 15:45:00,45.1,39.3,30.04,WNW,295,5.0,8.0,80,0.00,,---,0.01,VWS V14.01,2013-04-24 19:45:00,
2013-04-24 15:46:00,45.1,39.3,30.04,WNW,299,2.0,8.0,80,0.00,,---,0.01,VWS V14.01,2013-04-24 19:46:00,
2013-04-24 15:47:00,45.1,39.3,30.04,WNW,298,6.0,10.0,80,0.00,,---,0.01,VWS V14.01,2013-04-24 19:47:00,
2013-04-24 15:48:00,45.1,39.3,30.04,WNW,302,5.0,10.0,80,0.00,,---,0.01,VWS V14.01,2013-04-24 19:48:00,
2013-04-24 15:49:00,44.9,39.1,30.04,NW,307,4.0,10.0,80,0.00,,---,0.01,VWS V14.01,2013-04-24 19:49:00,
2013-04-24 15:50:00,44.9,39.1,30.04,WNW,285,3.0,10.0,80,0.00,,---,0.01,VWS V14.01,2013-04-24 19:50:00,
2013-04-24 15:51:00,44.9,39.1,30.04,NW,310,4.0,5.0,80,0.00,,---,0.01,VWS V14.01,2013-04-24 19:51:00,
2013-04-24 15:52:00,44.9,39.1,30.04,WNW,296,3.0,5.0,80,0.00,,---,0.01,VWS V14.01,2013-04-24 19:52:00,
2013-04-24 15:53:00,44.8,39.0,30.04,WNW,295,4.0,5.0,80,0.00,,---,0.01,VWS V14.01,2013-04-24 19:53:00,
2013-04-24 15:54:00,44.8,39.0,30.04,West,266,3.0,5.0,80,0.00,,---,0.01,VWS V14.01,2013-04-24 19:54:00,
2013-04-24 15:55:00,44.8,39.0,30.04,West,266,2.0,5.0,80,0.00,,---,0.01,VWS V14.01,2013-04-24 19:55:00,
2013-04-24 15:56:00,44.6,38.8,30.04,WNW,282,6.0,7.0,80,0.00,,---,0.01,VWS V14.01,2013-04-24 19:56:00,
2013-04-24 15:57:00,44.6,38.8,30.04,NW,314,0.0,7.0,80,0.00,,---,0.01,VWS V14.01,2013-04-24 19:57:00,
2013-04-24 15:58:00,44.6,38.8,30.04,West,281,2.0,7.0,80,0.00,,---,0.01,VWS V14.01,2013-04-24 19:58:00,
2013-04-24 15:59:00,44.6,38.8,30.04,West,279,1.0,7.0,80,0.00,,---,0.01,VWS V14.01,2013-04-24 19:59:00,
2013-04-24 16:00:00,44.5,38.7,30.05,West,279,0.0,7.0,80,0.00,,---,0.01,VWS V14.01,2013-04-24 20:00:00,
2013-04-24 16:01:00,44.5,38.7,30.05,WNW,295,2.0,6.0,80,0.00,,---,0.01,VWS V14.01,2013-04-24 20:01:00,
2013-04-24 16:02:00,44.5,38.7,30.05,WNW,302,0.0,6.0,80,0.00,,---,0.01,VWS V14.01,2013-04-24 20:02:00,
2013-04-24 16:03:00,44.5,38.7,30.05,West,279,5.0,6.0,80,0.00,,---,0.01,VWS V14.01,2013-04-24 20:03:00,
2013-04-24 16:04:00,44.5,38.7,30.05,West,268,2.0,6.0,80,0.00,,---,0.01,VWS V14.01,2013-04-24 20:04:00,
2013-04-24 16:05:00,44.5,38.7,30.05,WSW,254,1.0,6.0,80,0.00,,---,0.01,VWS V14.01,2013-04-24 20:05:00,
2013-04-24 16:06:00,44.3,38.5,30.05,West,272,5.0,6.0,80,0.00,,---,0.01,VWS V14.01,2013-04-24 20:06:00,
2013-04-24 16:07:00,44.2,38.4,30.05,WNW,303,1.0,6.0,80,0.00,,---,0.01,VWS V14.01,2013-04-24 20:07:00,
2013-04-24 16:08:00,44.1,38.3,30.05,West,276,0.0,6.0,80,0.00,,---,0.01,VWS V14.01,2013-04-24 20:08:00,
2013-04-24 16:09:00,44.1,38.3,30.05,West,271,2.0,6.0,80,0.00,,---,0.01,VWS V14.01,2013-04-24 20:09:00,
2013-04-24 16:10:00,44.1,38.3,30.05,West,265,4.0,6.0,80,0.00,,---,0.01,VWS V14.01,2013-04-24 20:10:00,
2013-04-24 16:11:00,43.9,38.1,30.05,WSW,255,2.0,4.0,80,0.00,,---,0.01,VWS V14.01,2013-04-24 20:11:00,
2013-04-24 16:12:00,43.9,38.1,30.05,West,262,3.0,6.0,80,0.00,,---,0.01,VWS V14.01,2013-04-24 20:12:00,
2013-04-24 16:13:00,43.9,38.1,30.05,West,266,4.0,6.0,80,0.00,,---,0.01,VWS V14.01,2013-04-24 20:13:00,
2013-04-24 16:14:00,43.8,37.7,30.05,NW,319,3.0,6.0,79,0.00,,---,0.01,VWS V14.01,2013-04-24 20:14:00,
2013-04-24 16:15:00,43.8,37.7,30.07,WNW,286,3.0,6.0,79,0.00,,---,0.01,VWS V14.01,2013-04-24 20:15:00,
2013-04-24 16:16:00,43.8,37.7,30.07,WNW,286,0.0,6.0,79,0.00,,---,0.01,VWS V14.01,2013-04-24 20:16:00,
2013-04-24 16:17:00,43.6,37.5,30.07,WSW,245,0.0,6.0,79,0.00,,---,0.01,VWS V14.01,2013-04-24 20:17:00,
2013-04-24 16:18:00,43.6,37.5,30.07,SW,233,2.0,6.0,79,0.00,,---,0.01,VWS V14.01,2013-04-24 20:18:00,
2013-04-24 16:19:00,43.6,37.5,30.07,West,262,0.0,6.0,79,0.00,,---,0.01,VWS V14.01,2013-04-24 20:19:00,
2013-04-24 16:20:00,43.5,37.4,30.07,West,261,0.0,6.0,79,0.00,,---,0.01,VWS V14.01,2013-04-24 20:20:00,
2013-04-24 16:21:00,43.5,37.4,30.07,WSW,254,2.0,5.0,79,0.00,,---,0.01,VWS V14.01,2013-04-24 20:21:00,
2013-04-24 16:22:00,43.5,37.4,30.07,WNW,286,5.0,5.0,79,0.00,,---,0.01,VWS V14.01,2013-04-24 20:22:00,
2013-04-24 16:23:00,43.3,37.2,30.07,WNW,295,0.0,5.0,79,0.00,,---,0.01,VWS V14.01,2013-04-24 20:23:00,
2013-04-24 16:24:00,43.3,37.2,30.07,WNW,286,0.0,5.0,79,0.00,,---,0.01,VWS V14.01,2013-04-24 20:24:00,
2013-04-24 16:25:00,43.3,37.2,30.07,West,261,0.0,5.0,79,0.00,,---,0.01,VWS V14.01,2013-04-24 20:25:00,
2013-04-24 16:26:00,43.3,37.2,30.07,West,281,0.0,6.0,79,0.00,,---,0.01,VWS V14.01,2013-04-24 20:26:00,
2013-04-24 16:27:00,43.2,37.1,30.07,West,281,0.0,6.0,79,0.00,,---,0.01,VWS V14.01,2013-04-24 20:27:00,
2013-04-24 16:28:00,43.1,37.0,30.07,West,266,3.0,6.0,79,0.00,,---,0.01,VWS V14.01,2013-04-24 20:28:00,
2013-04-24 16:29:00,43.1,37.0,30.07,West,266,0.0,6.0,79,0.00,,---,0.01,VWS V14.01,2013-04-24 20:29:00,
2013-04-24 16:30:00,43.1,37.0,30.07,West,266,0.0,6.0,79,0.00,,---,0.01,VWS V14.01,2013-04-24 20:30:00,
2013-04-24 16:31:00,43.1,37.0,30.07,West,262,0.0,1.0,79,0.00,,---,0.01,VWS V14.01,2013-04-24 20:31:00,
2013-04-24 16:32:00,42.9,36.8,30.07,West,269,0.0,1.0,79,0.00,,---,0.01,VWS V14.01,2013-04-24 20:32:00,
2013-04-24 16:33:00,42.9,36.8,30.07,West,269,0.0,1.0,79,0.00,,---,0.01,VWS V14.01,2013-04-24 20:33:00,
2013-04-24 16:34:00,42.9,36.8,30.07,West,268,0.0,1.0,79,0.00,,---,0.01,VWS V14.01,2013-04-24 20:34:00,
2013-04-24 16:35:00,42.8,36.8,30.07,West,268,0.0,1.0,79,0.00,,---,0.01,VWS V14.01,2013-04-24 20:35:00,
2013-04-24 16:36:00,42.8,36.8,30.07,West,268,0.0,1.0,79,0.00,,---,0.01,VWS V14.01,2013-04-24 20:36:00,
2013-04-24 16:37:00,42.8,36.8,30.07,West,268,0.0,1.0,79,0.00,,---,0.01,VWS V14.01,2013-04-24 20:37:00,
2013-04-24 16:38:00,42.6,36.5,30.07,West,268,0.0,1.0,79,0.00,,---,0.01,VWS V14.01,2013-04-24 20:38:00,
2013-04-24 16:39:00,42.6,36.5,30.07,West,268,0.0,1.0,79,0.00,,---,0.01,VWS V14.01,2013-04-24 20:39:00,
2013-04-24 16:40:00,42.6,36.5,30.07,West,268,0.0,1.0,79,0.00,,---,0.01,VWS V14.01,2013-04-24 20:40:00,
2013-04-24 16:41:00,42.6,36.5,30.07,WSW,257,0.0,1.0,79,0.00,,---,0.01,VWS V14.01,2013-04-24 20:41:00,
2013-04-24 16:42:00,42.5,36.5,30.07,WSW,257,0.0,1.0,79,0.00,,---,0.01,VWS V14.01,2013-04-24 20:42:00,
2013-04-24 16:43:00,42.5,36.5,30.07,WSW,255,2.0,3.0,79,0.00,,---,0.01,VWS V14.01,2013-04-24 20:43:00,
2013-04-24 16:44:00,42.5,36.8,30.07,WSW,251,0.0,3.0,80,0.00,,---,0.01,VWS V14.01,2013-04-24 20:44:00,
2013-04-24 16:45:00,42.3,36.6,30.08,WSW,250,4.0,5.0,80,0.00,,---,0.01,VWS V14.01,2013-04-24 20:45:00,
2013-04-24 16:46:00,42.3,36.6,30.08,WSW,250,0.0,5.0,80,0.00,,---,0.01,VWS V14.01,2013-04-24 20:46:00,
2013-04-24 16:47:00,42.3,36.6,30.08,WSW,250,0.0,5.0,80,0.00,,---,0.01,VWS V14.01,2013-04-24 20:47:00,
2013-04-24 16:48:00,42.3,36.6,30.08,WSW,250,0.0,5.0,80,0.00,,---,0.01,VWS V14.01,2013-04-24 20:48:00,
2013-04-24 16:49:00,42.3,36.6,30.08,West,266,0.0,5.0,80,0.00,,---,0.01,VWS V14.01,2013-04-24 20:49:00,
2013-04-24 16:50:00,42.2,36.5,30.08,West,266,0.0,5.0,80,0.00,,---,0.01,VWS V14.01,2013-04-24 20:50:00,
2013-04-24 16:51:00,42.2,36.5,30.08,West,266,0.0,0.0,80,0.00,,---,0.01,VWS V14.01,2013-04-24 20:51:00,
2013-04-24 16:52:00,42.2,36.5,30.08,WSW,251,0.0,3.0,80,0.00,,---,0.01,VWS V14.01,2013-04-24 20:52:00,
2013-04-24 16:53:00,42.2,36.5,30.08,WSW,251,0.0,3.0,80,0.00,,---,0.01,VWS V14.01,2013-04-24 20:53:00,
2013-04-24 16:54:00,42.1,36.4,30.08,WSW,254,0.0,3.0,80,0.00,,---,0.01,VWS V14.01,2013-04-24 20:54:00,
2013-04-24 16:55:00,42.1,36.4,30.08,West,261,0.0,3.0,80,0.00,,---,0.01,VWS V14.01,2013-04-24 20:55:00,
2013-04-24 16:56:00,42.1,36.4,30.08,WSW,255,0.0,3.0,80,0.00,,---,0.01,VWS V14.01,2013-04-24 20:56:00,
2013-04-24 16:57:00,42.1,36.4,30.08,WSW,255,2.0,3.0,80,0.00,,---,0.01,VWS V14.01,2013-04-24 20:57:00,
2013-04-24 16:58:00,41.9,36.2,30.08,WSW,255,0.0,3.0,80,0.00,,---,0.01,VWS V14.01,2013-04-24 20:58:00,
2013-04-24 16:59:00,41.9,36.2,30.08,WSW,255,0.0,3.0,80,0.00,,---,0.01,VWS V14.01,2013-04-24 20:59:00,
2013-04-24 17:00:00,41.9,36.5,30.08,WSW,254,3.0,3.0,81,0.00,,---,0.01,VWS V14.01,2013-04-24 21:00:00,
2013-04-24 17:01:00,41.9,36.5,30.08,WSW,248,2.0,3.0,81,0.00,,---,0.01,VWS V14.01,2013-04-24 21:01:00,
2013-04-24 17:02:00,41.9,36.5,30.08,WSW,248,0.0,3.0,81,0.00,,---,0.01,VWS V14.01,2013-04-24 21:02:00,
2013-04-24 17:03:00,41.8,36.4,30.08,West,268,0.0,3.0,81,0.00,,---,0.01,VWS V14.01,2013-04-24 21:03:00,
2013-04-24 17:04:00,41.8,36.4,30.08,WSW,255,3.0,6.0,81,0.00,,---,0.01,VWS V14.01,2013-04-24 21:04:00,
2013-04-24 17:05:00,41.8,36.4,30.08,WSW,258,0.0,6.0,81,0.00,,---,0.01,VWS V14.01,2013-04-24 21:05:00,
2013-04-24 17:06:00,41.8,36.4,30.08,West,268,0.0,6.0,81,0.00,,---,0.01,VWS V14.01,2013-04-24 21:06:00,
2013-04-24 17:07:00,41.8,36.4,30.08,West,276,3.0,6.0,81,0.00,,---,0.01,VWS V14.01,2013-04-24 21:07:00,
2013-04-24 17:08:00,41.8,36.4,30.08,WNW,282,4.0,6.0,81,0.00,,---,0.01,VWS V14.01,2013-04-24 21:08:00,
2013-04-24 17:09:00,41.8,36.4,30.08,West,259,2.0,6.0,81,0.00,,---,0.01,VWS V14.01,2013-04-24 21:09:00,
2013-04-24 17:10:00,41.8,36.4,30.08,WSW,255,2.0,6.0,81,0.00,,---,0.01,VWS V14.01,2013-04-24 21:10:00,
2013-04-24 17:11:00,41.6,36.2,30.08,WSW,255,0.0,3.0,81,0.00,,---,0.01,VWS V14.01,2013-04-24 21:11:00,
2013-04-24 17:12:00,41.6,36.2,30.08,WSW,255,0.0,3.0,81,0.00,,---,0.01,VWS V14.01,2013-04-24 21:12:00,
2013-04-24 17:13:00,41.6,36.2,30.08,WSW,258,2.0,3.0,81,0.00,,---,0.01,VWS V14.01,2013-04-24 21:13:00,
2013-04-24 17:14:00,41.6,36.2,30.08,WSW,258,2.0,3.0,81,0.00,,---,0.01,VWS V14.01,2013-04-24 21:14:00,
2013-04-24 17:15:00,41.6,36.2,30.10,WSW,255,2.0,3.0,81,0.00,,---,0.01,VWS V14.01,2013-04-24 21:15:00,
2013-04-24 17:16:00,41.6,36.2,30.10,West,265,0.0,3.0,81,0.00,,---,0.01,VWS V14.01,2013-04-24 21:16:00,
2013-04-24 17:17:00,41.6,36.2,30.10,WSW,241,5.0,5.0,81,0.00,,---,0.01,VWS V14.01,2013-04-24 21:17:00,
2013-04-24 17:18:00,41.6,36.2,30.10,WSW,241,0.0,5.0,81,0.00,,---,0.01,VWS V14.01,2013-04-24 21:18:00,
2013-04-24 17:19:00,41.6,36.2,30.10,WSW,241,0.0,5.0,81,0.00,,---,0.01,VWS V14.01,2013-04-24 21:19:00,
2013-04-24 17:20:00,41.5,36.4,30.10,WSW,247,2.0,5.0,82,0.00,,---,0.01,VWS V14.01,2013-04-24 21:20:00,
2013-04-24 17:21:00,41.5,36.4,30.10,West,261,1.0,2.0,82,0.00,,---,0.01,VWS V14.01,2013-04-24 21:21:00,
2013-04-24 17:22:00,41.5,36.4,30.10,SW,235,0.0,3.0,82,0.00,,---,0.01,VWS V14.01,2013-04-24 21:22:00,
2013-04-24 17:23:00,41.5,36.4,30.10,WNW,299,0.0,3.0,82,0.00,,---,0.01,VWS V14.01,2013-04-24 21:23:00,
2013-04-24 17:24:00,41.5,36.4,30.10,WNW,289,0.0,3.0,82,0.00,,---,0.01,VWS V14.01,2013-04-24 21:24:00,
2013-04-24 17:25:00,41.5,36.4,30.10,WSW,252,1.0,3.0,82,0.00,,---,0.01,VWS V14.01,2013-04-24 21:25:00,
2013-04-24 17:26:00,41.5,36.4,30.10,West,281,3.0,3.0,82,0.00,,---,0.01,VWS V14.01,2013-04-24 21:26:00,
2013-04-24 17:27:00,41.5,36.4,30.10,West,278,0.0,3.0,82,0.00,,---,0.01,VWS V14.01,2013-04-24 21:27:00,
2013-04-24 17:28:00,41.5,36.4,30.10,WSW,258,1.0,3.0,82,0.00,,---,0.01,VWS V14.01,2013-04-24 21:28:00,
2013-04-24 17:29:00,41.5,36.4,30.10,WSW,258,0.0,3.0,82,0.00,,---,0.01,VWS V14.01,2013-04-24 21:29:00,
2013-04-24 17:30:00,41.3,36.2,30.11,West,264,0.0,3.0,82,0.00,,---,0.01,VWS V14.01,2013-04-24 21:30:00,
2013-04-24 17:31:00,41.3,36.2,30.11,West,264,0.0,0.0,82,0.00,,---,0.01,VWS V14.01,2013-04-24 21:31:00,
2013-04-24 17:32:00,41.3,36.2,30.11,West,264,0.0,0.0,82,0.00,,---,0.01,VWS V14.01,2013-04-24 21:32:00,
2013-04-24 17:33:00,41.3,36.2,30.11,West,264,0.0,0.0,82,0.00,,---,0.01,VWS V14.01,2013-04-24 21:33:00,
2013-04-24 17:34:00,41.3,36.2,30.11,West,264,0.0,0.0,82,0.00,,---,0.01,VWS V14.01,2013-04-24 21:34:00,
2013-04-24 17:35:00,41.3,36.2,30.11,West,266,0.0,3.0,82,0.00,,---,0.01,VWS V14.01,2013-04-24 21:35:00,
2013-04-24 17:36:00,41.3,36.2,30.11,West,266,0.0,3.0,82,0.00,,---,0.01,VWS V14.01,2013-04-24 21:36:00,
2013-04-24 17:37:00,41.3,36.2,30.11,West,266,0.0,3.0,82,0.00,,---,0.01,VWS V14.01,2013-04-24 21:37:00,
2013-04-24 17:38:00,41.3,36.2,30.11,West,266,0.0,3.0,82,0.00,,---,0.01,VWS V14.01,2013-04-24 21:38:00,
2013-04-24 17:39:00,41.2,36.1,30.11,West,266,0.0,3.0,82,0.00,,---,0.01,VWS V14.01,2013-04-24 21:39:00,
2013-04-24 17:40:00,41.2,36.1,30.11,West,266,0.0,3.0,82,0.00,,---,0.01,VWS V14.01,2013-04-24 21:40:00,
2013-04-24 17:41:00,41.2,36.1,30.11,West,266,0.0,0.0,82,0.00,,---,0.01,VWS V14.01,2013-04-24 21:41:00,
2013-04-24 17:42:00,41.2,36.1,30.11,West,266,0.0,0.0,82,0.00,,---,0.01,VWS V14.01,2013-04-24 21:42:00,
2013-04-24 17:43:00,41.2,36.1,30.11,West,266,0.0,1.0,82,0.00,,---,0.01,VWS V14.01,2013-04-24 21:43:00,
2013-04-24 17:44:00,41.2,36.1,30.11,West,266,0.0,1.0,82,0.00,,---,0.01,VWS V14.01,2013-04-24 21:44:00,
2013-04-24 17:45:00,41.2,36.1,30.11,West,266,0.0,1.0,82,0.00,,---,0.01,VWS V14.01,2013-04-24 21:45:00,
2013-04-24 17:46:00,41.2,36.1,30.11,West,266,0.0,1.0,82,0.00,,---,0.01,VWS V14.01,2013-04-24 21:46:00,
2013-04-24 17:47:00,41.2,36.1,30.11,West,266,0.0,1.0,82,0.00,,---,0.01,VWS V14.01,2013-04-24 21:47:00,
2013-04-24 17:48:00,41.1,36.0,30.11,West,266,0.0,1.0,82,0.00,,---,0.01,VWS V14.01,2013-04-24 21:48:00,
2013-04-24 17:49:00,41.1,36.0,30.11,West,266,0.0,1.0,82,0.00,,---,0.01,VWS V14.01,2013-04-24 21:49:00,
2013-04-24 17:50:00,41.1,36.0,30.11,West,266,0.0,1.0,82,0.00,,---,0.01,VWS V14.01,2013-04-24 21:50:00,
2013-04-24 17:51:00,41.1,36.0,30.11,West,266,0.0,0.0,82,0.00,,---,0.01,VWS V14.01,2013-04-24 21:51:00,
2013-04-24 17:52:00,41.1,36.0,30.11,West,266,0.0,0.0,82,0.00,,---,0.01,VWS V14.01,2013-04-24 21:52:00,
2013-04-24 17:53:00,41.1,36.0,30.11,West,266,0.0,0.0,82,0.00,,---,0.01,VWS V14.01,2013-04-24 21:53:00,
2013-04-24 17:54:00,41.1,36.0,30.11,West,266,0.0,0.0,82,0.00,,---,0.01,VWS V14.01,2013-04-24 21:54:00,
2013-04-24 17:55:00,41.1,36.0,30.11,West,266,0.0,0.0,82,0.00,,---,0.01,VWS V14.01,2013-04-24 21:55:00,
2013-04-24 17:56:00,41.1,36.0,30.11,West,266,0.0,0.0,82,0.00,,---,0.01,VWS V14.01,2013-04-24 21:56:00,
2013-04-24 17:57:00,40.9,35.8,30.11,West,266,0.0,0.0,82,0.00,,---,0.01,VWS V14.01,2013-04-24 21:57:00,
2013-04-24 17:58:00,40.9,35.8,30.11,West,266,0.0,0.0,82,0.00,,---,0.01,VWS V14.01,2013-04-24 21:58:00,
2013-04-24 17:59:00,40.9,35.8,30.11,West,266,0.0,0.0,82,0.00,,---,0.01,VWS V14.01,2013-04-24 21:59:00,
2013-04-24 18:00:00,40.9,35.8,30.12,West,266,0.0,0.0,82,0.00,,---,0.01,VWS V14.01,2013-04-24 22:00:00,
2013-04-24 18:01:00,40.9,35.8,30.12,West,266,0.0,0.0,82,0.00,,---,0.01,VWS V14.01,2013-04-24 22:01:00,
2013-04-24 18:02:00,40.9,35.8,30.12,West,266,0.0,0.0,82,0.00,,---,0.01,VWS V14.01,2013-04-24 22:02:00,
2013-04-24 18:03:00,40.9,35.8,30.12,West,266,0.0,0.0,82,0.00,,---,0.01,VWS V14.01,2013-04-24 22:03:00,
2013-04-24 18:04:00,40.8,35.7,30.12,West,266,0.0,0.0,82,0.00,,---,0.01,VWS V14.01,2013-04-24 22:04:00,
2013-04-24 18:05:00,40.8,35.7,30.12,West,266,0.0,0.0,82,0.00,,---,0.01,VWS V14.01,2013-04-24 22:05:00,
2013-04-24 18:06:00,40.8,35.7,30.12,West,266,0.0,0.0,82,0.00,,---,0.01,VWS V14.01,2013-04-24 22:06:00,
2013-04-24 18:07:00,40.8,35.7,30.12,West,266,0.0,0.0,82,0.00,,---,0.01,VWS V14.01,2013-04-24 22:07:00,
2013-04-24 18:08:00,40.8,35.7,30.12,West,266,0.0,0.0,82,0.00,,---,0.01,VWS V14.01,2013-04-24 22:08:00,
2013-04-24 18:09:00,40.8,35.7,30.12,West,266,0.0,0.0,82,0.00,,---,0.01,VWS V14.01,2013-04-24 22:09:00,
2013-04-24 18:10:00,40.8,35.7,30.12,West,266,0.0,0.0,82,0.00,,---,0.01,VWS V14.01,2013-04-24 22:10:00,
2013-04-24 18:11:00,40.8,35.7,30.12,West,266,0.0,0.0,82,0.00,,---,0.01,VWS V14.01,2013-04-24 22:11:00,
2013-04-24 18:12:00,40.8,35.7,30.12,West,266,0.0,0.0,82,0.00,,---,0.01,VWS V14.01,2013-04-24 22:12:00,
2013-04-24 18:13:00,40.6,35.5,30.12,West,266,0.0,0.0,82,0.00,,---,0.01,VWS V14.01,2013-04-24 22:13:00,
2013-04-24 18:14:00,40.6,35.5,30.12,West,266,0.0,0.0,82,0.00,,---,0.01,VWS V14.01,2013-04-24 22:14:00,
2013-04-24 18:15:00,40.6,35.5,30.12,West,266,0.0,0.0,82,0.00,,---,0.01,VWS V14.01,2013-04-24 22:15:00,
2013-04-24 18:16:00,40.6,35.5,30.12,West,266,0.0,0.0,82,0.00,,---,0.01,VWS V14.01,2013-04-24 22:16:00,
2013-04-24 18:17:00,40.6,35.5,30.12,West,266,0.0,0.0,82,0.00,,---,0.01,VWS V14.01,2013-04-24 22:17:00,
2013-04-24 18:18:00,40.6,35.5,30.12,West,269,0.0,2.0,82,0.00,,---,0.01,VWS V14.01,2013-04-24 22:18:00,
2013-04-24 18:19:00,40.6,35.5,30.12,West,269,0.0,2.0,82,0.00,,---,0.01,VWS V14.01,2013-04-24 22:19:00,
2013-04-24 18:20:00,40.6,35.5,30.12,West,268,0.0,2.0,82,0.00,,---,0.01,VWS V14.01,2013-04-24 22:20:00,
2013-04-24 18:21:00,40.6,35.5,30.12,WSW,258,0.0,0.0,82,0.00,,---,0.01,VWS V14.01,2013-04-24 22:21:00,
2013-04-24 18:22:00,40.5,35.5,30.12,West,268,3.0,3.0,82,0.00,,---,0.01,VWS V14.01,2013-04-24 22:22:00,
2013-04-24 18:23:00,40.5,35.5,30.12,West,279,0.0,3.0,82,0.00,,---,0.01,VWS V14.01,2013-04-24 22:23:00,
2013-04-24 18:24:00,40.5,35.5,30.12,West,279,0.0,3.0,82,0.00,,---,0.01,VWS V14.01,2013-04-24 22:24:00,
2013-04-24 18:25:00,40.5,35.5,30.12,West,279,0.0,3.0,82,0.00,,---,0.01,VWS V14.01,2013-04-24 22:25:00,
2013-04-24 18:26:00,40.5,35.5,30.12,West,279,2.0,3.0,82,0.00,,---,0.01,VWS V14.01,2013-04-24 22:26:00,
2013-04-24 18:27:00,40.5,35.5,30.12,West,261,2.0,3.0,82,0.00,,---,0.01,VWS V14.01,2013-04-24 22:27:00,
2013-04-24 18:28:00,40.5,35.5,30.12,West,261,0.0,3.0,82,0.00,,---,0.01,VWS V14.01,2013-04-24 22:28:00,
2013-04-24 18:29:00,40.5,35.5,30.12,West,261,0.0,3.0,82,0.00,,---,0.01,VWS V14.01,2013-04-24 22:29:00,
2013-04-24 18:30:00,40.5,35.5,30.13,West,269,0.0,3.0,82,0.00,,---,0.01,VWS V14.01,2013-04-24 22:30:00,
2013-04-24 18:31:00,40.3,35.2,30.13,West,265,2.0,2.0,82,0.00,,---,0.01,VWS V14.01,2013-04-24 22:31:00,
2013-04-24 18:32:00,40.3,35.2,30.13,West,268,0.0,2.0,82,0.00,,---,0.01,VWS V14.01,2013-04-24 22:32:00,
2013-04-24 18:33:00,40.3,35.2,30.13,West,268,0.0,2.0,82,0.00,,---,0.01,VWS V14.01,2013-04-24 22:33:00,
2013-04-24 18:34:00,40.3,35.2,30.13,West,268,0.0,2.0,82,0.00,,---,0.01,VWS V14.01,2013-04-24 22:34:00,
2013-04-24 18:35:00,40.3,35.2,30.13,WNW,285,2.0,3.0,82,0.00,,---,0.01,VWS V14.01,2013-04-24 22:35:00,
2013-04-24 18:36:00,40.3,35.2,30.13,West,275,1.0,4.0,82,0.00,,---,0.01,VWS V14.01,2013-04-24 22:36:00,
2013-04-24 18:37:00,40.3,35.2,30.13,West,271,0.0,4.0,82,0.00,,---,0.01,VWS V14.01,2013-04-24 22:37:00,
2013-04-24 18:38:00,40.3,35.2,30.13,West,271,0.0,4.0,82,0.00,,---,0.01,VWS V14.01,2013-04-24 22:38:00,
2013-04-24 18:39:00,40.3,35.2,30.13,West,281,1.0,4.0,82,0.00,,---,0.01,VWS V14.01,2013-04-24 22:39:00,
2013-04-24 18:40:00,40.3,35.2,30.13,West,281,2.0,4.0,82,0.00,,---,0.01,VWS V14.01,2013-04-24 22:40:00,
2013-04-24 18:41:00,40.2,35.2,30.13,West,281,2.0,5.0,82,0.00,,---,0.01,VWS V14.01,2013-04-24 22:41:00,
2013-04-24 18:42:00,40.2,35.2,30.13,West,279,2.0,5.0,82,0.00,,---,0.01,VWS V14.01,2013-04-24 22:42:00,
2013-04-24 18:43:00,40.2,35.2,30.13,West,275,3.0,5.0,82,0.00,,---,0.01,VWS V14.01,2013-04-24 22:43:00,
2013-04-24 18:44:00,40.2,35.2,30.13,West,275,0.0,5.0,82,0.00,,---,0.01,VWS V14.01,2013-04-24 22:44:00,
2013-04-24 18:45:00,40.2,35.2,30.14,West,275,0.0,5.0,82,0.00,,---,0.01,VWS V14.01,2013-04-24 22:45:00,
2013-04-24 18:46:00,40.2,35.2,30.14,West,275,0.0,5.0,82,0.00,,---,0.01,VWS V14.01,2013-04-24 22:46:00,
2013-04-24 18:47:00,40.1,35.1,30.14,West,275,0.0,5.0,82,0.00,,---,0.01,VWS V14.01,2013-04-24 22:47:00,
2013-04-24 18:48:00,40.1,35.1,30.14,West,275,0.0,5.0,82,0.00,,---,0.01,VWS V14.01,2013-04-24 22:48:00,
2013-04-24 18:49:00,40.1,35.1,30.14,West,275,0.0,5.0,82,0.00,,---,0.01,VWS V14.01,2013-04-24 22:49:00,
2013-04-24 18:50:00,40.1,35.1,30.14,West,275,0.0,5.0,82,0.00,,---,0.01,VWS V14.01,2013-04-24 22:50:00,
2013-04-24 18:51:00,40.1,35.1,30.14,West,275,0.0,0.0,82,0.00,,---,0.01,VWS V14.01,2013-04-24 22:51:00,
2013-04-24 18:52:00,40.1,35.1,30.14,West,275,0.0,0.0,82,0.00,,---,0.01,VWS V14.01,2013-04-24 22:52:00,
2013-04-24 18:53:00,40.1,35.1,30.14,West,275,0.0,0.0,82,0.00,,---,0.01,VWS V14.01,2013-04-24 22:53:00,
2013-04-24 18:54:00,40.1,35.1,30.14,West,275,0.0,0.0,82,0.00,,---,0.01,VWS V14.01,2013-04-24 22:54:00,
2013-04-24 18:55:00,40.1,35.1,30.14,West,275,0.0,0.0,82,0.00,,---,0.01,VWS V14.01,2013-04-24 22:55:00,
2013-04-24 18:56:00,40.1,35.1,30.14,West,275,0.0,0.0,82,0.00,,---,0.01,VWS V14.01,2013-04-24 22:56:00,
2013-04-24 18:57:00,40.1,35.1,30.14,West,275,0.0,0.0,82,0.00,,---,0.01,VWS V14.01,2013-04-24 22:57:00,
2013-04-24 18:58:00,40.1,35.1,30.14,West,275,0.0,0.0,82,0.00,,---,0.01,VWS V14.01,2013-04-24 22:58:00,
2013-04-24 18:59:00,39.9,34.9,30.14,West,275,0.0,0.0,82,0.00,,---,0.01,VWS V14.01,2013-04-24 22:59:00,
2013-04-24 19:00:00,39.9,34.9,30.15,West,275,0.0,0.0,82,0.00,,---,0.01,VWS V14.01,2013-04-24 23:00:00,
2013-04-24 19:01:00,39.9,34.9,30.15,West,275,0.0,0.0,82,0.00,,---,0.01,VWS V14.01,2013-04-24 23:01:00,
2013-04-24 19:02:00,39.9,34.9,30.15,West,275,0.0,0.0,82,0.00,,---,0.01,VWS V14.01,2013-04-24 23:02:00,
2013-04-24 19:03:00,39.9,34.9,30.15,West,275,0.0,0.0,82,0.00,,---,0.01,VWS V14.01,2013-04-24 23:03:00,
2013-04-24 19:04:00,39.9,34.9,30.15,West,275,0.0,0.0,82,0.00,,---,0.01,VWS V14.01,2013-04-24 23:04:00,
2013-04-24 19:05:00,39.9,34.9,30.15,West,275,0.0,0.0,82,0.00,,---,0.01,VWS V14.01,2013-04-24 23:05:00,
2013-04-24 19:06:00,39.8,34.8,30.15,West,275,0.0,0.0,82,0.00,,---,0.01,VWS V14.01,2013-04-24 23:06:00,
2013-04-24 19:07:00,39.8,34.8,30.15,West,275,0.0,0.0,82,0.00,,---,0.01,VWS V14.01,2013-04-24 23:07:00,
2013-04-24 19:08:00,39.8,34.8,30.15,West,275,0.0,0.0,82,0.00,,---,0.01,VWS V14.01,2013-04-24 23:08:00,
2013-04-24 19:09:00,39.8,34.8,30.15,West,275,0.0,0.0,82,0.00,,---,0.01,VWS V14.01,2013-04-24 23:09:00,
2013-04-24 19:10:00,39.8,34.8,30.15,West,275,0.0,0.0,82,0.00,,---,0.01,VWS V14.01,2013-04-24 23:10:00,
2013-04-24 19:11:00,39.8,34.8,30.15,West,275,0.0,0.0,82,0.00,,---,0.01,VWS V14.01,2013-04-24 23:11:00,
2013-04-24 19:12:00,39.6,34.6,30.15,West,275,0.0,0.0,82,0.00,,---,0.01,VWS V14.01,2013-04-24 23:12:00,
2013-04-24 19:13:00,39.6,34.6,30.15,West,275,0.0,0.0,82,0.00,,---,0.01,VWS V14.01,2013-04-24 23:13:00,
2013-04-24 19:14:00,39.6,34.6,30.15,West,275,0.0,0.0,82,0.00,,---,0.01,VWS V14.01,2013-04-24 23:14:00,
2013-04-24 19:15:00,39.6,34.6,30.15,West,275,0.0,0.0,82,0.00,,---,0.01,VWS V14.01,2013-04-24 23:15:00,
2013-04-24 19:16:00,39.6,34.6,30.15,West,275,0.0,0.0,82,0.00,,---,0.01,VWS V14.01,2013-04-24 23:16:00,
2013-04-24 19:17:00,39.6,34.6,30.15,West,275,0.0,0.0,82,0.00,,---,0.01,VWS V14.01,2013-04-24 23:17:00,
2013-04-24 19:18:00,39.6,34.6,30.15,West,275,0.0,0.0,82,0.00,,---,0.01,VWS V14.01,2013-04-24 23:18:00,
2013-04-24 19:19:00,39.5,34.5,30.15,West,265,0.0,0.0,82,0.00,,---,0.01,VWS V14.01,2013-04-24 23:19:00,
2013-04-24 19:20:00,39.5,34.5,30.15,West,275,0.0,0.0,82,0.00,,---,0.01,VWS V14.01,2013-04-24 23:20:00,
2013-04-24 19:21:00,39.5,34.5,30.15,West,275,0.0,0.0,82,0.00,,---,0.01,VWS V14.01,2013-04-24 23:21:00,
2013-04-24 19:22:00,39.5,34.5,30.15,West,275,0.0,0.0,82,0.00,,---,0.01,VWS V14.01,2013-04-24 23:22:00,
2013-04-24 19:23:00,39.5,34.5,30.15,West,275,0.0,0.0,82,0.00,,---,0.01,VWS V14.01,2013-04-24 23:23:00,
2013-04-24 19:24:00,39.5,34.5,30.15,West,275,0.0,0.0,82,0.00,,---,0.01,VWS V14.01,2013-04-24 23:24:00,
2013-04-24 19:25:00,39.5,34.5,30.15,West,275,0.0,0.0,82,0.00,,---,0.01,VWS V14.01,2013-04-24 23:25:00,
2013-04-24 19:26:00,39.5,34.5,30.15,West,275,0.0,0.0,82,0.00,,---,0.01,VWS V14.01,2013-04-24 23:26:00,
2013-04-24 19:27:00,39.3,34.3,30.15,West,275,0.0,0.0,82,0.00,,---,0.01,VWS V14.01,2013-04-24 23:27:00,
2013-04-24 19:28:00,39.3,34.3,30.15,West,275,0.0,0.0,82,0.00,,---,0.01,VWS V14.01,2013-04-24 23:28:00,
2013-04-24 19:29:00,39.3,34.3,30.15,West,275,0.0,0.0,82,0.00,,---,0.01,VWS V14.01,2013-04-24 23:29:00,
2013-04-24 19:30:00,39.3,34.3,30.17,West,275,0.0,0.0,82,0.00,,---,0.01,VWS V14.01,2013-04-24 23:30:00,
2013-04-24 19:31:00,39.3,34.3,30.17,West,275,0.0,0.0,82,0.00,,---,0.01,VWS V14.01,2013-04-24 23:31:00,
2013-04-24 19:32:00,39.3,34.3,30.17,West,275,0.0,0.0,82,0.00,,---,0.01,VWS V14.01,2013-04-24 23:32:00,
2013-04-24 19:33:00,39.3,34.3,30.17,West,275,0.0,0.0,82,0.00,,---,0.01,VWS V14.01,2013-04-24 23:33:00,
2013-04-24 19:34:00,39.3,34.6,30.17,West,275,0.0,0.0,83,0.00,,---,0.01,VWS V14.01,2013-04-24 23:34:00,
2013-04-24 19:35:00,39.3,34.6,30.17,West,275,0.0,0.0,83,0.00,,---,0.01,VWS V14.01,2013-04-24 23:35:00,
2013-04-24 19:36:00,39.3,34.6,30.17,West,275,0.0,0.0,83,0.00,,---,0.01,VWS V14.01,2013-04-24 23:36:00,
2013-04-24 19:37:00,39.3,34.6,30.17,West,275,0.0,0.0,83,0.00,,---,0.01,VWS V14.01,2013-04-24 23:37:00,
2013-04-24 19:38:00,39.3,34.6,30.17,West,275,0.0,0.0,83,0.00,,---,0.01,VWS V14.01,2013-04-24 23:38:00,
2013-04-24 19:39:00,39.3,34.6,30.17,West,275,0.0,0.0,83,0.00,,---,0.01,VWS V14.01,2013-04-24 23:39:00,
2013-04-24 19:40:00,39.3,34.6,30.17,West,275,0.0,0.0,83,0.00,,---,0.01,VWS V14.01,2013-04-24 23:40:00,
2013-04-24 19:41:00,39.3,34.6,30.17,West,275,0.0,0.0,83,0.00,,---,0.01,VWS V14.01,2013-04-24 23:41:00,
2013-04-24 19:42:00,39.3,34.6,30.17,West,275,0.0,0.0,83,0.00,,---,0.01,VWS V14.01,2013-04-24 23:42:00,
2013-04-24 19:43:00,39.3,34.6,30.17,West,275,0.0,0.0,83,0.00,,---,0.01,VWS V14.01,2013-04-24 23:43:00,
2013-04-24 19:44:00,39.3,34.6,30.17,West,275,0.0,0.0,83,0.00,,---,0.01,VWS V14.01,2013-04-24 23:44:00,
2013-04-24 19:45:00,39.3,34.6,30.17,West,275,0.0,0.0,83,0.00,,---,0.01,VWS V14.01,2013-04-24 23:45:00,
2013-04-24 19:46:00,39.3,34.6,30.17,West,275,0.0,0.0,83,0.00,,---,0.01,VWS V14.01,2013-04-24 23:46:00,
2013-04-24 19:47:00,39.3,34.6,30.17,West,275,0.0,0.0,83,0.00,,---,0.01,VWS V14.01,2013-04-24 23:47:00,
2013-04-24 19:48:00,39.3,34.6,30.17,West,275,0.0,0.0,83,0.00,,---,0.01,VWS V14.01,2013-04-24 23:48:00,
2013-04-24 19:49:00,39.3,34.6,30.17,West,275,0.0,0.0,83,0.00,,---,0.01,VWS V14.01,2013-04-24 23:49:00,
2013-04-24 19:50:00,39.3,34.6,30.17,West,275,0.0,0.0,83,0.00,,---,0.01,VWS V14.01,2013-04-24 23:50:00,
2013-04-24 19:51:00,39.3,34.6,30.17,West,275,0.0,0.0,83,0.00,,---,0.01,VWS V14.01,2013-04-24 23:51:00,
2013-04-24 19:52:00,39.3,34.6,30.17,West,275,0.0,0.0,83,0.00,,---,0.01,VWS V14.01,2013-04-24 23:52:00,
2013-04-24 19:53:00,39.3,34.6,30.17,West,275,0.0,0.0,83,0.00,,---,0.01,VWS V14.01,2013-04-24 23:53:00,
2013-04-24 19:54:00,39.3,34.6,30.17,West,275,0.0,0.0,83,0.00,,---,0.01,VWS V14.01,2013-04-24 23:54:00,
2013-04-24 19:55:00,39.5,34.8,30.17,West,275,0.0,0.0,83,0.00,,---,0.01,VWS V14.01,2013-04-24 23:55:00,
2013-04-24 19:56:00,39.5,34.8,30.17,West,275,0.0,0.0,83,0.00,,---,0.01,VWS V14.01,2013-04-24 23:56:00,
2013-04-24 19:57:00,39.5,34.8,30.17,West,275,0.0,0.0,83,0.00,,---,0.01,VWS V14.01,2013-04-24 23:57:00,
2013-04-24 19:58:00,39.5,34.8,30.17,West,275,0.0,0.0,83,0.00,,---,0.01,VWS V14.01,2013-04-24 23:58:00,
2013-04-24 19:59:00,39.5,34.8,30.17,West,275,0.0,0.0,83,0.00,,---,0.01,VWS V14.01,2013-04-24 23:59:00,
2013-04-24 20:00:00,39.5,34.8,30.17,West,275,0.0,0.0,83,0.00,,---,0.01,VWS V14.01,2013-04-25 00:00:00,
2013-04-24 20:01:00,39.5,34.8,30.17,West,274,0.0,0.0,83,0.00,,---,0.01,VWS V14.01,2013-04-25 00:01:00,
2013-04-24 20:02:00,39.5,34.8,30.17,West,274,0.0,0.0,83,0.00,,---,0.01,VWS V14.01,2013-04-25 00:02:00,
2013-04-24 20:03:00,39.6,34.9,30.17,West,274,0.0,0.0,83,0.00,,---,0.01,VWS V14.01,2013-04-25 00:03:00,
2013-04-24 20:04:00,39.6,34.9,30.17,West,274,0.0,0.0,83,0.00,,---,0.01,VWS V14.01,2013-04-25 00:04:00,
2013-04-24 20:05:00,39.6,34.9,30.17,West,274,0.0,0.0,83,0.00,,---,0.01,VWS V14.01,2013-04-25 00:05:00,
2013-04-24 20:06:00,39.6,34.9,30.17,West,274,0.0,0.0,83,0.00,,---,0.01,VWS V14.01,2013-04-25 00:06:00,
2013-04-24 20:07:00,39.6,34.9,30.17,West,274,0.0,3.0,83,0.00,,---,0.01,VWS V14.01,2013-04-25 00:07:00,
2013-04-24 20:08:00,39.8,35.1,30.17,West,274,2.0,3.0,83,0.00,,---,0.01,VWS V14.01,2013-04-25 00:08:00,
2013-04-24 20:09:00,39.8,34.8,30.17,West,274,3.0,3.0,82,0.00,,---,0.01,VWS V14.01,2013-04-25 00:09:00,
2013-04-24 20:10:00,39.8,34.8,30.17,West,274,1.0,3.0,82,0.00,,---,0.01,VWS V14.01,2013-04-25 00:10:00,
2013-04-24 20:11:00,39.8,34.8,30.17,West,274,0.0,1.0,82,0.00,,---,0.01,VWS V14.01,2013-04-25 00:11:00,
2013-04-24 20:12:00,39.9,34.9,30.17,West,274,0.0,1.0,82,0.00,,---,0.01,VWS V14.01,2013-04-25 00:12:00,
2013-04-24 20:13:00,39.9,34.9,30.17,West,275,1.0,3.0,82,0.00,,---,0.01,VWS V14.01,2013-04-25 00:13:00,
2013-04-24 20:14:00,39.9,34.9,30.17,West,275,3.0,3.0,82,0.00,,---,0.01,VWS V14.01,2013-04-25 00:14:00,
2013-04-24 20:15:00,40.1,35.1,30.18,West,274,2.0,3.0,82,0.00,,---,0.01,VWS V14.01,2013-04-25 00:15:00,
2013-04-24 20:16:00,40.1,35.1,30.18,West,274,0.0,3.0,82,0.00,,---,0.01,VWS V14.01,2013-04-25 00:16:00,
2013-04-24 20:17:00,40.1,35.1,30.18,West,275,2.0,4.0,82,0.00,,---,0.01,VWS V14.01,2013-04-25 00:17:00,
2013-04-24 20:18:00,40.2,35.2,30.18,West,275,2.0,4.0,82,0.00,,---,0.01,VWS V14.01,2013-04-25 00:18:00,
2013-04-24 20:19:00,40.2,35.2,30.18,West,266,3.0,4.0,82,0.00,,---,0.01,VWS V14.01,2013-04-25 00:19:00,
2013-04-24 20:20:00,40.2,35.2,30.18,West,269,2.0,4.0,82,0.00,,---,0.01,VWS V14.01,2013-04-25 00:20:00,
2013-04-24 20:21:00,40.2,35.2,30.18,West,272,1.0,3.0,82,0.00,,---,0.01,VWS V14.01,2013-04-25 00:21:00,
2013-04-24 20:22:00,40.3,35.2,30.18,West,272,0.0,3.0,82,0.00,,---,0.01,VWS V14.01,2013-04-25 00:22:00,
2013-04-24 20:23:00,40.3,35.2,30.18,West,272,4.0,4.0,82,0.00,,---,0.01,VWS V14.01,2013-04-25 00:23:00,
2013-04-24 20:24:00,40.5,35.5,30.18,West,272,0.0,4.0,82,0.00,,---,0.01,VWS V14.01,2013-04-25 00:24:00,
2013-04-24 20:25:00,40.5,35.1,30.18,West,272,0.0,4.0,81,0.00,,---,0.01,VWS V14.01,2013-04-25 00:25:00,
2013-04-24 20:26:00,40.5,35.1,30.18,West,272,0.0,4.0,81,0.00,,---,0.01,VWS V14.01,2013-04-25 00:26:00,
2013-04-24 20:27:00,40.6,35.2,30.18,West,272,0.0,4.0,81,0.00,,---,0.01,VWS V14.01,2013-04-25 00:27:00,
2013-04-24 20:28:00,40.6,35.2,30.18,WNW,295,0.0,4.0,81,0.00,,---,0.01,VWS V14.01,2013-04-25 00:28:00,
2013-04-24 20:29:00,40.8,35.4,30.18,WNW,295,0.0,4.0,81,0.00,,---,0.01,VWS V14.01,2013-04-25 00:29:00,
2013-04-24 20:30:00,40.8,35.4,30.18,WNW,293,2.0,4.0,81,0.00,,---,0.01,VWS V14.01,2013-04-25 00:30:00,
2013-04-24 20:31:00,40.8,35.4,30.18,WNW,293,0.0,1.0,81,0.00,,---,0.01,VWS V14.01,2013-04-25 00:31:00,
2013-04-24 20:32:00,40.9,35.5,30.18,WNW,293,0.0,3.0,81,0.00,,---,0.01,VWS V14.01,2013-04-25 00:32:00,
2013-04-24 20:33:00,40.9,35.5,30.18,WNW,293,0.0,3.0,81,0.00,,---,0.01,VWS V14.01,2013-04-25 00:33:00,
2013-04-24 20:34:00,41.1,35.4,30.18,WNW,293,0.0,3.0,80,0.00,,---,0.01,VWS V14.01,2013-04-25 00:34:00,
2013-04-24 20:35:00,41.1,35.4,30.18,WNW,293,2.0,3.0,80,0.00,,---,0.01,VWS V14.01,2013-04-25 00:35:00,
2013-04-24 20:36:00,41.1,35.4,30.18,WNW,293,0.0,3.0,80,0.00,,---,0.01,VWS V14.01,2013-04-25 00:36:00,
2013-04-24 20:37:00,41.2,35.5,30.18,WNW,293,2.0,3.0,80,0.00,,---,0.01,VWS V14.01,2013-04-25 00:37:00,
2013-04-24 20:38:00,41.2,35.5,30.18,WNW,293,0.0,3.0,80,0.00,,---,0.01,VWS V14.01,2013-04-25 00:38:00,
2013-04-24 20:39:00,41.2,35.5,30.18,WNW,293,0.0,3.0,80,0.00,,---,0.01,VWS V14.01,2013-04-25 00:39:00,
2013-04-24 20:40:00,41.3,35.6,30.18,WNW,293,2.0,3.0,80,0.00,,---,0.01,VWS V14.01,2013-04-25 00:40:00,
2013-04-24 20:41:00,41.3,35.6,30.18,WNW,293,0.0,3.0,80,0.00,,---,0.01,VWS V14.01,2013-04-25 00:41:00,
2013-04-24 20:42:00,41.5,35.5,30.18,WNW,293,0.0,3.0,79,0.00,,---,0.01,VWS V14.01,2013-04-25 00:42:00,
2013-04-24 20:43:00,41.5,35.5,30.18,WNW,293,0.0,3.0,79,0.00,,---,0.01,VWS V14.01,2013-04-25 00:43:00,
2013-04-24 20:44:00,41.6,35.6,30.18,WNW,293,0.0,3.0,79,0.00,,---,0.01,VWS V14.01,2013-04-25 00:44:00,
2013-04-24 20:45:00,41.6,35.6,30.17,WNW,293,0.0,3.0,79,0.00,,---,0.01,VWS V14.01,2013-04-25 00:45:00,
2013-04-24 20:46:00,41.8,35.8,30.17,WNW,293,0.0,3.0,79,0.00,,---,0.01,VWS V14.01,2013-04-25 00:46:00,
2013-04-24 20:47:00,41.8,35.8,30.17,WNW,293,0.0,3.0,79,0.00,,---,0.01,VWS V14.01,2013-04-25 00:47:00,
2013-04-24 20:48:00,41.8,35.8,30.17,WNW,295,2.0,3.0,79,0.00,,---,0.01,VWS V14.01,2013-04-25 00:48:00,
2013-04-24 20:49:00,41.9,35.9,30.17,WNW,295,0.0,3.0,79,0.00,,---,0.01,VWS V14.01,2013-04-25 00:49:00,
2013-04-24 20:50:00,42.1,36.1,30.17,WNW,295,0.0,3.0,79,0.00,,---,0.01,VWS V14.01,2013-04-25 00:50:00,
2013-04-24 20:51:00,42.1,35.8,30.17,WNW,295,0.0,0.0,78,0.00,,---,0.01,VWS V14.01,2013-04-25 00:51:00,
2013-04-24 20:52:00,42.2,35.8,30.17,WNW,293,1.0,3.0,78,0.00,,---,0.01,VWS V14.01,2013-04-25 00:52:00,
2013-04-24 20:53:00,42.2,35.8,30.17,WNW,293,0.0,3.0,78,0.00,,---,0.01,VWS V14.01,2013-04-25 00:53:00,
2013-04-24 20:54:00,42.3,35.9,30.17,WNW,293,0.0,3.0,78,0.00,,---,0.01,VWS V14.01,2013-04-25 00:54:00,
2013-04-24 20:55:00,42.3,35.9,30.17,WNW,293,0.0,3.0,78,0.00,,---,0.01,VWS V14.01,2013-04-25 00:55:00,
2013-04-24 20:56:00,42.5,36.1,30.17,WNW,293,0.0,3.0,78,0.00,,---,0.01,VWS V14.01,2013-04-25 00:56:00,
2013-04-24 20:57:00,42.6,36.2,30.17,WNW,293,0.0,3.0,78,0.00,,---,0.01,VWS V14.01,2013-04-25 00:57:00,
2013-04-24 20:58:00,42.6,35.9,30.17,WNW,293,0.0,3.0,77,0.00,,---,0.01,VWS V14.01,2013-04-25 00:58:00,
2013-04-24 20:59:00,42.8,36.1,30.17,WNW,293,0.0,3.0,77,0.00,,---,0.01,VWS V14.01,2013-04-25 00:59:00,
2013-04-24 21:00:00,42.8,36.1,30.18,West,272,5.0,5.0,77,0.00,,---,0.01,VWS V14.01,2013-04-25 01:00:00,
2013-04-24 21:01:00,42.9,35.9,30.18,West,272,0.0,5.0,76,0.00,,---,0.01,VWS V14.01,2013-04-25 01:01:00,
2013-04-24 21:02:00,42.9,35.9,30.18,WNW,286,0.0,5.0,76,0.00,,---,0.01,VWS V14.01,2013-04-25 01:02:00,
2013-04-24 21:03:00,42.9,35.9,30.18,WNW,286,0.0,5.0,76,0.00,,---,0.01,VWS V14.01,2013-04-25 01:03:00,
2013-04-24 21:04:00,43.1,36.1,30.18,WNW,283,0.0,5.0,76,0.00,,---,0.01,VWS V14.01,2013-04-25 01:04:00,
2013-04-24 21:05:00,43.2,36.2,30.18,WNW,283,0.0,5.0,76,0.00,,---,0.01,VWS V14.01,2013-04-25 01:05:00,
2013-04-24 21:06:00,43.2,36.2,30.18,WNW,283,0.0,5.0,76,0.00,,---,0.01,VWS V14.01,2013-04-25 01:06:00,
2013-04-24 21:07:00,43.3,36.3,30.18,WNW,283,0.0,5.0,76,0.00,,---,0.01,VWS V14.01,2013-04-25 01:07:00,
2013-04-24 21:08:00,43.5,36.1,30.18,WNW,283,0.0,5.0,75,0.00,,---,0.01,VWS V14.01,2013-04-25 01:08:00,
2013-04-24 21:09:00,43.5,36.1,30.18,WNW,283,0.0,5.0,75,0.00,,---,0.01,VWS V14.01,2013-04-25 01:09:00,
2013-04-24 21:10:00,43.5,36.1,30.18,WNW,283,0.0,5.0,75,0.00,,---,0.01,VWS V14.01,2013-04-25 01:10:00,
2013-04-24 21:11:00,43.6,36.2,30.18,WNW,283,0.0,0.0,75,0.00,,---,0.01,VWS V14.01,2013-04-25 01:11:00,
2013-04-24 21:12:00,43.6,35.9,30.18,WNW,283,0.0,0.0,74,0.00,,---,0.01,VWS V14.01,2013-04-25 01:12:00,
2013-04-24 21:13:00,43.8,36.4,30.18,West,278,2.0,2.0,75,0.00,,---,0.01,VWS V14.01,2013-04-25 01:13:00,
2013-04-24 21:14:00,43.9,36.5,30.18,West,278,3.0,3.0,75,0.00,,---,0.01,VWS V14.01,2013-04-25 01:14:00,
2013-04-24 21:15:00,44.1,36.4,30.18,West,278,0.0,3.0,74,0.00,,---,0.01,VWS V14.01,2013-04-25 01:15:00,
2013-04-24 21:16:00,44.1,36.4,30.18,West,278,0.0,3.0,74,0.00,,---,0.01,VWS V14.01,2013-04-25 01:16:00,
2013-04-24 21:17:00,44.2,36.5,30.18,West,278,0.0,3.0,74,0.00,,---,0.01,VWS V14.01,2013-04-25 01:17:00,
2013-04-24 21:18:00,44.3,36.5,30.18,West,278,0.0,3.0,74,0.00,,---,0.01,VWS V14.01,2013-04-25 01:18:00,
2013-04-24 21:19:00,44.5,36.4,30.18,West,278,0.0,3.0,73,0.00,,---,0.01,VWS V14.01,2013-04-25 01:19:00,
2013-04-24 21:20:00,44.5,36.4,30.18,West,278,0.0,3.0,73,0.00,,---,0.01,VWS V14.01,2013-04-25 01:20:00,
2013-04-24 21:21:00,44.6,36.8,30.18,West,278,0.0,0.0,74,0.00,,---,0.01,VWS V14.01,2013-04-25 01:21:00,
2013-04-24 21:22:00,44.8,36.7,30.18,West,278,0.0,0.0,73,0.00,,---,0.01,VWS V14.01,2013-04-25 01:22:00,
2013-04-24 21:23:00,44.9,36.8,30.18,West,278,0.0,0.0,73,0.00,,---,0.01,VWS V14.01,2013-04-25 01:23:00,
2013-04-24 21:24:00,44.9,36.8,30.18,West,278,0.0,0.0,73,0.00,,---,0.01,VWS V14.01,2013-04-25 01:24:00,
2013-04-24 21:25:00,44.9,36.8,30.18,West,278,0.0,0.0,73,0.00,,---,0.01,VWS V14.01,2013-04-25 01:25:00,
2013-04-24 21:26:00,45.2,37.1,30.18,West,278,0.0,0.0,73,0.00,,---,0.01,VWS V14.01,2013-04-25 01:26:00,
2013-04-24 21:27:00,45.2,36.7,30.18,West,278,0.0,0.0,72,0.00,,---,0.01,VWS V14.01,2013-04-25 01:27:00,
2013-04-24 21:28:00,45.4,36.9,30.18,West,278,0.0,0.0,72,0.00,,---,0.01,VWS V14.01,2013-04-25 01:28:00,
2013-04-24 21:29:00,45.5,37.0,30.18,West,278,0.0,0.0,72,0.00,,---,0.01,VWS V14.01,2013-04-25 01:29:00,
2013-04-24 21:30:00,45.5,36.7,30.17,West,278,0.0,2.0,71,0.00,,---,0.01,VWS V14.01,2013-04-25 01:30:00,
2013-04-24 21:31:00,45.7,37.2,30.17,West,278,0.0,0.0,72,0.00,,---,0.01,VWS V14.01,2013-04-25 01:31:00,
2013-04-24 21:32:00,45.7,36.8,30.17,West,278,0.0,0.0,71,0.00,,---,0.01,VWS V14.01,2013-04-25 01:32:00,
2013-04-24 21:33:00,45.8,37.0,30.17,West,278,0.0,0.0,71,0.00,,---,0.01,VWS V14.01,2013-04-25 01:33:00,
2013-04-24 21:34:00,46.0,37.1,30.17,West,278,0.0,0.0,71,0.00,,---,0.01,VWS V14.01,2013-04-25 01:34:00,
2013-04-24 21:35:00,46.1,37.2,30.17,West,278,0.0,0.0,71,0.00,,---,0.01,VWS V14.01,2013-04-25 01:35:00,
2013-04-24 21:36:00,46.1,37.2,30.17,West,278,0.0,0.0,71,0.00,,---,0.01,VWS V14.01,2013-04-25 01:36:00,
2013-04-24 21:37:00,46.2,37.0,30.17,West,278,0.0,0.0,70,0.00,,---,0.01,VWS V14.01,2013-04-25 01:37:00,
2013-04-24 21:38:00,46.2,37.0,30.17,West,278,0.0,0.0,70,0.00,,---,0.01,VWS V14.01,2013-04-25 01:38:00,
2013-04-24 21:39:00,46.4,37.2,30.17,West,278,0.0,5.0,70,0.00,,---,0.01,VWS V14.01,2013-04-25 01:39:00,
2013-04-24 21:40:00,46.4,37.2,30.17,West,278,0.0,5.0,70,0.00,,---,0.01,VWS V14.01,2013-04-25 01:40:00,
2013-04-24 21:41:00,46.5,37.3,30.17,West,278,0.0,0.0,70,0.00,,---,0.01,VWS V14.01,2013-04-25 01:41:00,
2013-04-24 21:42:00,46.7,37.1,30.17,West,278,0.0,0.0,69,0.00,,---,0.01,VWS V14.01,2013-04-25 01:42:00,
2013-04-24 21:43:00,46.7,37.1,30.17,West,278,0.0,0.0,69,0.00,,---,0.01,VWS V14.01,2013-04-25 01:43:00,
2013-04-24 21:44:00,46.8,37.2,30.17,West,278,0.0,0.0,69,0.00,,---,0.01,VWS V14.01,2013-04-25 01:44:00,
2013-04-24 21:45:00,46.8,37.2,30.16,West,278,0.0,0.0,69,0.00,,---,0.01,VWS V14.01,2013-04-25 01:45:00,
2013-04-24 21:46:00,47.0,37.0,30.16,West,278,0.0,0.0,68,0.00,,---,0.01,VWS V14.01,2013-04-25 01:46:00,
2013-04-24 21:47:00,47.0,37.0,30.16,West,278,0.0,0.0,68,0.00,,---,0.01,VWS V14.01,2013-04-25 01:47:00,
2013-04-24 21:48:00,47.1,37.1,30.16,West,278,0.0,0.0,68,0.00,,---,0.01,VWS V14.01,2013-04-25 01:48:00,
2013-04-24 21:49:00,47.1,37.1,30.16,West,278,0.0,0.0,68,0.00,,---,0.01,VWS V14.01,2013-04-25 01:49:00,
2013-04-24 21:50:00,47.1,37.1,30.16,West,278,0.0,0.0,68,0.00,,---,0.01,VWS V14.01,2013-04-25 01:50:00,
2013-04-24 21:51:00,47.3,37.3,30.16,West,278,0.0,0.0,68,0.00,,---,0.01,VWS V14.01,2013-04-25 01:51:00,
2013-04-24 21:52:00,47.4,37.4,30.16,West,278,0.0,0.0,68,0.00,,---,0.01,VWS V14.01,2013-04-25 01:52:00,
2013-04-24 21:53:00,47.4,37.4,30.16,West,278,0.0,0.0,68,0.00,,---,0.01,VWS V14.01,2013-04-25 01:53:00,
2013-04-24 21:54:00,47.6,37.6,30.16,West,278,0.0,0.0,68,0.00,,---,0.01,VWS V14.01,2013-04-25 01:54:00,
2013-04-24 21:55:00,47.7,38.0,30.16,West,278,0.0,0.0,69,0.00,,---,0.01,VWS V14.01,2013-04-25 01:55:00,
2013-04-24 21:56:00,47.9,38.2,30.16,West,278,0.0,0.0,69,0.00,,---,0.01,VWS V14.01,2013-04-25 01:56:00,
2013-04-24 21:57:00,47.9,37.5,30.16,West,278,0.0,0.0,67,0.00,,---,0.01,VWS V14.01,2013-04-25 01:57:00,
2013-04-24 21:58:00,47.9,37.1,30.16,West,278,0.0,0.0,66,0.00,,---,0.01,VWS V14.01,2013-04-25 01:58:00,
2013-04-24 21:59:00,48.0,37.6,30.16,West,278,0.0,0.0,67,0.00,,---,0.01,VWS V14.01,2013-04-25 01:59:00,
2013-04-24 22:00:00,48.2,37.8,30.16,West,278,0.0,0.0,67,0.00,,---,0.01,VWS V14.01,2013-04-25 02:00:00,
2013-04-24 22:01:00,48.3,37.9,30.16,West,278,0.0,0.0,67,0.00,,---,0.01,VWS V14.01,2013-04-25 02:01:00,
2013-04-24 22:02:00,48.5,38.1,30.16,West,278,0.0,0.0,67,0.00,,---,0.01,VWS V14.01,2013-04-25 02:02:00,
2013-04-24 22:03:00,48.6,38.2,30.16,West,275,0.0,0.0,67,0.00,,---,0.01,VWS V14.01,2013-04-25 02:03:00,
2013-04-24 22:04:00,48.6,37.4,30.16,West,275,0.0,0.0,65,0.00,,---,0.01,VWS V14.01,2013-04-25 02:04:00,
2013-04-24 22:05:00,48.8,37.6,30.16,West,275,0.0,0.0,65,0.00,,---,0.01,VWS V14.01,2013-04-25 02:05:00,
2013-04-24 22:06:00,48.8,37.2,30.16,West,275,0.0,0.0,64,0.00,,---,0.01,VWS V14.01,2013-04-25 02:06:00,
2013-04-24 22:07:00,48.9,37.7,30.16,West,275,0.0,0.0,65,0.00,,---,0.01,VWS V14.01,2013-04-25 02:07:00,
2013-04-24 22:08:00,48.9,37.7,30.16,West,275,0.0,0.0,65,0.00,,---,0.01,VWS V14.01,2013-04-25 02:08:00,
2013-04-24 22:09:00,49.1,37.9,30.16,West,275,0.0,0.0,65,0.00,,---,0.01,VWS V14.01,2013-04-25 02:09:00,
2013-04-24 22:10:00,49.1,37.9,30.16,West,275,0.0,0.0,65,0.00,,---,0.01,VWS V14.01,2013-04-25 02:10:00,
2013-04-24 22:11:00,49.2,37.6,30.16,West,275,0.0,2.0,64,0.00,,---,0.01,VWS V14.01,2013-04-25 02:11:00,
2013-04-24 22:12:00,49.2,37.6,30.16,West,275,0.0,2.0,64,0.00,,---,0.01,VWS V14.01,2013-04-25 02:12:00,
2013-04-24 22:13:00,49.4,38.1,30.16,West,275,0.0,2.0,65,0.00,,---,0.01,VWS V14.01,2013-04-25 02:13:00,
2013-04-24 22:14:00,49.5,37.8,30.16,West,275,0.0,2.0,64,0.00,,---,0.01,VWS V14.01,2013-04-25 02:14:00,
2013-04-24 22:15:00,49.5,37.8,30.16,West,275,0.0,2.0,64,0.00,,---,0.01,VWS V14.01,2013-04-25 02:15:00,
2013-04-24 22:16:00,49.5,37.0,30.16,West,275,0.0,2.0,62,0.00,,---,0.01,VWS V14.01,2013-04-25 02:16:00,
2013-04-24 22:17:00,49.6,37.1,30.16,West,275,0.0,2.0,62,0.00,,---,0.01,VWS V14.01,2013-04-25 02:17:00,
2013-04-24 22:18:00,49.8,37.7,30.16,West,275,0.0,2.0,63,0.00,,---,0.01,VWS V14.01,2013-04-25 02:18:00,
2013-04-24 22:19:00,49.8,37.3,30.16,West,275,0.0,2.0,62,0.00,,---,0.01,VWS V14.01,2013-04-25 02:19:00,
2013-04-24 22:20:00,49.8,37.3,30.16,West,275,0.0,2.0,62,0.00,,---,0.01,VWS V14.01,2013-04-25 02:20:00,
2013-04-24 22:21:00,50.1,37.6,30.16,West,275,0.0,0.0,62,0.00,,---,0.01,VWS V14.01,2013-04-25 02:21:00,
2013-04-24 22:22:00,50.2,37.7,30.16,West,275,0.0,0.0,62,0.00,,---,0.01,VWS V14.01,2013-04-25 02:22:00,
2013-04-24 22:23:00,50.2,37.7,30.16,West,275,0.0,0.0,62,0.00,,---,0.01,VWS V14.01,2013-04-25 02:23:00,
2013-04-24 22:24:00,50.4,37.9,30.16,West,275,0.0,2.0,62,0.00,,---,0.01,VWS V14.01,2013-04-25 02:24:00,
2013-04-24 22:25:00,50.4,37.9,30.16,West,275,0.0,2.0,62,0.00,,---,0.01,VWS V14.01,2013-04-25 02:25:00,
2013-04-24 22:26:00,50.5,38.0,30.16,West,275,0.0,2.0,62,0.00,,---,0.01,VWS V14.01,2013-04-25 02:26:00,
2013-04-24 22:27:00,50.5,37.6,30.16,West,278,0.0,2.0,61,0.00,,---,0.01,VWS V14.01,2013-04-25 02:27:00,
2013-04-24 22:28:00,50.7,37.3,30.16,West,278,0.0,2.0,60,0.00,,---,0.01,VWS V14.01,2013-04-25 02:28:00,
2013-04-24 22:29:00,50.7,37.3,30.16,West,278,0.0,2.0,60,0.00,,---,0.01,VWS V14.01,2013-04-25 02:29:00,
2013-04-24 22:30:00,50.8,37.8,30.17,West,278,0.0,2.0,61,0.00,,---,0.01,VWS V14.01,2013-04-25 02:30:00,
2013-04-24 22:31:00,50.8,37.8,30.17,West,278,0.0,0.0,61,0.00,,---,0.01,VWS V14.01,2013-04-25 02:31:00,
2013-04-24 22:32:00,51.0,38.0,30.17,West,278,0.0,0.0,61,0.00,,---,0.01,VWS V14.01,2013-04-25 02:32:00,
2013-04-24 22:33:00,51.3,38.7,30.17,West,278,0.0,0.0,62,0.00,,---,0.01,VWS V14.01,2013-04-25 02:33:00,
2013-04-24 22:34:00,51.4,38.8,30.17,West,278,0.0,0.0,62,0.00,,---,0.01,VWS V14.01,2013-04-25 02:34:00,
2013-04-24 22:35:00,51.4,37.6,30.17,West,278,0.0,0.0,59,0.00,,---,0.01,VWS V14.01,2013-04-25 02:35:00,
2013-04-24 22:36:00,51.6,37.8,30.17,West,278,0.0,0.0,59,0.00,,---,0.01,VWS V14.01,2013-04-25 02:36:00,
2013-04-24 22:37:00,51.6,37.8,30.17,West,278,0.0,0.0,59,0.00,,---,0.01,VWS V14.01,2013-04-25 02:37:00,
2013-04-24 22:38:00,51.7,37.8,30.17,West,278,0.0,0.0,59,0.00,,---,0.01,VWS V14.01,2013-04-25 02:38:00,
2013-04-24 22:39:00,51.9,38.0,30.17,West,278,0.0,0.0,59,0.00,,---,0.01,VWS V14.01,2013-04-25 02:39:00,
2013-04-24 22:40:00,52.0,38.1,30.17,West,278,0.0,0.0,59,0.00,,---,0.01,VWS V14.01,2013-04-25 02:40:00,
2013-04-24 22:41:00,52.0,38.1,30.17,West,278,0.0,0.0,59,0.00,,---,0.01,VWS V14.01,2013-04-25 02:41:00,
2013-04-24 22:42:00,52.2,37.9,30.17,West,278,0.0,0.0,58,0.00,,---,0.01,VWS V14.01,2013-04-25 02:42:00,
2013-04-24 22:43:00,52.2,37.9,30.17,West,278,0.0,0.0,58,0.00,,---,0.01,VWS V14.01,2013-04-25 02:43:00,
2013-04-24 22:44:00,52.3,37.5,30.17,West,278,0.0,0.0,57,0.00,,---,0.01,VWS V14.01,2013-04-25 02:44:00,
2013-04-24 22:45:00,52.3,37.5,30.17,West,278,0.0,0.0,57,0.00,,---,0.01,VWS V14.01,2013-04-25 02:45:00,
2013-04-24 22:46:00,52.5,37.7,30.17,West,278,0.0,3.0,57,0.00,,---,0.01,VWS V14.01,2013-04-25 02:46:00,
2013-04-24 22:47:00,52.5,37.7,30.17,West,278,0.0,3.0,57,0.00,,---,0.01,VWS V14.01,2013-04-25 02:47:00,
2013-04-24 22:48:00,52.8,38.0,30.17,West,278,0.0,3.0,57,0.00,,---,0.01,VWS V14.01,2013-04-25 02:48:00,
2013-04-24 22:49:00,52.8,38.0,30.17,West,278,0.0,3.0,57,0.00,,---,0.01,VWS V14.01,2013-04-25 02:49:00,
2013-04-24 22:50:00,52.9,38.1,30.17,West,275,0.0,3.0,57,0.00,,---,0.01,VWS V14.01,2013-04-25 02:50:00,
2013-04-24 22:51:00,53.2,38.4,30.17,West,275,0.0,0.0,57,0.00,,---,0.01,VWS V14.01,2013-04-25 02:51:00,
2013-04-24 22:52:00,53.3,38.5,30.17,West,275,0.0,0.0,57,0.00,,---,0.01,VWS V14.01,2013-04-25 02:52:00,
2013-04-24 22:53:00,53.5,38.7,30.17,West,276,0.0,1.0,57,0.00,,---,0.01,VWS V14.01,2013-04-25 02:53:00,
2013-04-24 22:54:00,53.6,38.8,30.17,West,276,0.0,1.0,57,0.00,,---,0.01,VWS V14.01,2013-04-25 02:54:00,
2013-04-24 22:55:00,53.8,38.0,30.17,West,276,0.0,3.0,55,0.00,,---,0.01,VWS V14.01,2013-04-25 02:55:00,
2013-04-24 22:56:00,53.8,38.0,30.17,West,276,0.0,3.0,55,0.00,,---,0.01,VWS V14.01,2013-04-25 02:56:00,
2013-04-24 22:57:00,53.9,38.1,30.17,West,276,0.0,3.0,55,0.00,,---,0.01,VWS V14.01,2013-04-25 02:57:00,
2013-04-24 22:58:00,54.2,38.4,30.17,West,276,0.0,3.0,55,0.00,,---,0.01,VWS V14.01,2013-04-25 02:58:00,
2013-04-24 22:59:00,54.2,37.9,30.17,West,276,0.0,3.0,54,0.00,,---,0.01,VWS V14.01,2013-04-25 02:59:00,
2013-04-24 23:00:00,54.4,37.6,30.17,West,276,0.0,3.0,53,0.00,,---,0.01,VWS V14.01,2013-04-25 03:00:00,
2013-04-24 23:01:00,54.4,37.2,30.17,West,276,0.0,0.0,52,0.00,,---,0.01,VWS V14.01,2013-04-25 03:01:00,
2013-04-24 23:02:00,54.5,37.2,30.17,West,276,0.0,0.0,52,0.00,,---,0.01,VWS V14.01,2013-04-25 03:02:00,
2013-04-24 23:03:00,54.5,38.2,30.17,West,276,0.0,0.0,54,0.00,,---,0.01,VWS V14.01,2013-04-25 03:03:00,
2013-04-24 23:04:00,54.5,37.7,30.17,West,276,0.0,0.0,53,0.00,,---,0.01,VWS V14.01,2013-04-25 03:04:00,
2013-04-24 23:05:00,54.7,37.9,30.17,West,276,1.0,3.0,53,0.00,,---,0.01,VWS V14.01,2013-04-25 03:05:00,
2013-04-24 23:06:00,54.7,37.9,30.17,West,276,0.0,3.0,53,0.00,,---,0.01,VWS V14.01,2013-04-25 03:06:00,
2013-04-24 23:07:00,54.7,37.4,30.17,West,276,2.0,5.0,52,0.00,,---,0.01,VWS V14.01,2013-04-25 03:07:00,
2013-04-24 23:08:00,54.7,37.4,30.17,West,276,0.0,5.0,52,0.00,,---,0.01,VWS V14.01,2013-04-25 03:08:00,
2013-04-24 23:09:00,54.7,37.9,30.17,West,276,0.0,5.0,53,0.00,,---,0.01,VWS V14.01,2013-04-25 03:09:00,
2013-04-24 23:10:00,54.7,37.9,30.17,West,261,0.0,5.0,53,0.00,,---,0.01,VWS V14.01,2013-04-25 03:10:00,
2013-04-24 23:11:00,54.8,37.5,30.17,West,261,0.0,0.0,52,0.00,,---,0.01,VWS V14.01,2013-04-25 03:11:00,
2013-04-24 23:12:00,55.0,38.2,30.17,West,261,0.0,0.0,53,0.00,,---,0.01,VWS V14.01,2013-04-25 03:12:00,
2013-04-24 23:13:00,55.3,39.0,30.17,West,261,0.0,0.0,54,0.00,,---,0.01,VWS V14.01,2013-04-25 03:13:00,
2013-04-24 23:14:00,55.3,38.5,30.17,West,261,0.0,0.0,53,0.00,,---,0.01,VWS V14.01,2013-04-25 03:14:00,
2013-04-24 23:15:00,55.4,38.1,30.18,West,261,0.0,0.0,52,0.00,,---,0.01,VWS V14.01,2013-04-25 03:15:00,
2013-04-24 23:16:00,55.7,38.4,30.18,West,261,0.0,0.0,52,0.00,,---,0.01,VWS V14.01,2013-04-25 03:16:00,
2013-04-24 23:17:00,55.7,36.3,30.18,West,261,0.0,0.0,48,0.00,,---,0.01,VWS V14.01,2013-04-25 03:17:00,
2013-04-24 23:18:00,55.7,35.3,30.18,West,261,0.0,0.0,46,0.00,,---,0.01,VWS V14.01,2013-04-25 03:18:00,
2013-04-24 23:19:00,55.9,35.4,30.18,West,261,0.0,0.0,46,0.00,,---,0.01,VWS V14.01,2013-04-25 03:19:00,
2013-04-24 23:20:00,55.9,36.0,30.18,WSW,254,1.0,2.0,47,0.00,,---,0.01,VWS V14.01,2013-04-25 03:20:00,
2013-04-24 23:21:00,55.9,36.5,30.18,WSW,254,0.0,0.0,48,0.00,,---,0.01,VWS V14.01,2013-04-25 03:21:00,
2013-04-24 23:22:00,55.9,36.5,30.18,WSW,254,0.0,0.0,48,0.00,,---,0.01,VWS V14.01,2013-04-25 03:22:00,
2013-04-24 23:23:00,55.9,36.5,30.18,WSW,254,0.0,0.0,48,0.00,,---,0.01,VWS V14.01,2013-04-25 03:23:00,
2013-04-24 23:24:00,56.0,37.1,30.18,WSW,254,0.0,0.0,49,0.00,,---,0.01,VWS V14.01,2013-04-25 03:24:00,
2013-04-24 23:25:00,56.2,37.3,30.18,WSW,254,0.0,0.0,49,0.00,,---,0.01,VWS V14.01,2013-04-25 03:25:00,
2013-04-24 23:26:00,56.3,36.9,30.18,WSW,255,0.0,0.0,48,0.00,,---,0.01,VWS V14.01,2013-04-25 03:26:00,
2013-04-24 23:27:00,56.5,38.6,30.18,WSW,255,0.0,0.0,51,0.00,,---,0.01,VWS V14.01,2013-04-25 03:27:00,
2013-04-24 23:28:00,56.6,37.2,30.18,WSW,255,0.0,0.0,48,0.00,,---,0.01,VWS V14.01,2013-04-25 03:28:00,
2013-04-24 23:29:00,56.7,37.2,30.18,WSW,255,0.0,0.0,48,0.00,,---,0.01,VWS V14.01,2013-04-25 03:29:00,
2013-04-24 23:30:00,56.9,36.9,30.17,WSW,255,0.0,0.0,47,0.00,,---,0.01,VWS V14.01,2013-04-25 03:30:00,
2013-04-24 23:31:00,57.0,37.0,30.17,WSW,255,0.0,1.0,47,0.00,,---,0.01,VWS V14.01,2013-04-25 03:31:00,
2013-04-24 23:32:00,57.2,37.2,30.17,WSW,255,0.0,1.0,47,0.00,,---,0.01,VWS V14.01,2013-04-25 03:32:00,
2013-04-24 23:33:00,57.3,37.8,30.17,WSW,255,0.0,1.0,48,0.00,,---,0.01,VWS V14.01,2013-04-25 03:33:00,
2013-04-24 23:34:00,57.3,37.8,30.17,WSW,255,0.0,1.0,48,0.00,,---,0.01,VWS V14.01,2013-04-25 03:34:00,
2013-04-24 23:35:00,57.3,37.3,30.17,WSW,258,0.0,1.0,47,0.00,,---,0.01,VWS V14.01,2013-04-25 03:35:00,
2013-04-24 23:36:00,57.3,37.3,30.17,West,259,0.0,4.0,47,0.00,,---,0.01,VWS V14.01,2013-04-25 03:36:00,
2013-04-24 23:37:00,57.3,37.8,30.17,West,259,0.0,4.0,48,0.00,,---,0.01,VWS V14.01,2013-04-25 03:37:00,
2013-04-24 23:38:00,57.3,37.8,30.17,West,261,0.0,4.0,48,0.00,,---,0.01,VWS V14.01,2013-04-25 03:38:00,
2013-04-24 23:39:00,57.5,38.0,30.17,West,261,0.0,4.0,48,0.00,,---,0.01,VWS V14.01,2013-04-25 03:39:00,
2013-04-24 23:40:00,57.5,38.0,30.17,West,261,0.0,4.0,48,0.00,,---,0.01,VWS V14.01,2013-04-25 03:40:00,
2013-04-24 23:41:00,57.5,38.0,30.17,West,261,0.0,0.0,48,0.00,,---,0.01,VWS V14.01,2013-04-25 03:41:00,
2013-04-24 23:42:00,57.6,38.1,30.17,West,261,1.0,1.0,48,0.00,,---,0.01,VWS V14.01,2013-04-25 03:42:00,
2013-04-24 23:43:00,57.6,38.1,30.17,West,261,0.0,2.0,48,0.00,,---,0.01,VWS V14.01,2013-04-25 03:43:00,
2013-04-24 23:44:00,57.6,37.5,30.17,West,261,0.0,2.0,47,0.00,,---,0.01,VWS V14.01,2013-04-25 03:44:00,
2013-04-24 23:45:00,57.5,37.5,30.17,West,261,0.0,2.0,47,0.00,,---,0.01,VWS V14.01,2013-04-25 03:45:00,
2013-04-24 23:46:00,57.5,37.5,30.17,West,261,0.0,2.0,47,0.00,,---,0.01,VWS V14.01,2013-04-25 03:46:00,
2013-04-24 23:47:00,57.6,37.5,30.17,West,261,0.0,2.0,47,0.00,,---,0.01,VWS V14.01,2013-04-25 03:47:00,
2013-04-24 23:48:00,57.6,37.5,30.17,West,261,0.0,2.0,47,0.00,,---,0.01,VWS V14.01,2013-04-25 03:48:00,
2013-04-24 23:49:00,57.8,37.7,30.17,West,261,0.0,2.0,47,0.00,,---,0.01,VWS V14.01,2013-04-25 03:49:00,
2013-04-24 23:50:00,57.8,37.7,30.17,West,261,1.0,2.0,47,0.00,,---,0.01,VWS V14.01,2013-04-25 03:50:00,
2013-04-24 23:51:00,58.0,37.9,30.17,West,262,2.0,3.0,47,0.00,,---,0.01,VWS V14.01,2013-04-25 03:51:00,
2013-04-24 23:52:00,58.0,37.9,30.17,West,265,0.0,3.0,47,0.00,,---,0.01,VWS V14.01,2013-04-25 03:52:00,
2013-04-24 23:53:00,58.1,38.0,30.17,West,274,0.0,5.0,47,0.00,,---,0.01,VWS V14.01,2013-04-25 03:53:00,
2013-04-24 23:54:00,58.1,38.0,30.17,West,274,0.0,5.0,47,0.00,,---,0.01,VWS V14.01,2013-04-25 03:54:00,
2013-04-24 23:55:00,58.3,38.2,30.17,West,274,0.0,5.0,47,0.00,,---,0.01,VWS V14.01,2013-04-25 03:55:00,
2013-04-24 23:56:00,58.3,38.2,30.17,West,274,0.0,5.0,47,0.00,,---,0.01,VWS V14.01,2013-04-25 03:56:00,
2013-04-24 23:57:00,58.3,38.2,30.17,West,274,0.0,5.0,47,0.00,,---,0.01,VWS V14.01,2013-04-25 03:57:00,
2013-04-24 23:58:00,58.7,39.1,30.17,West,274,1.0,5.0,48,0.00,,---,0.01,VWS V14.01,2013-04-25 03:58:00,
2013-04-24 23:59:00,58.7,37.4,30.17,West,274,0.0,5.0,45,0.00,,---,0.01,VWS V14.01,2013-04-25 03:59:00,